[[{"header":{"parameterUnit":"m.s-1","parameterCategory":1,"la1":30.6,"la2":28.766,"lo1":-90.7593,"lo2":-88.6598,"dy":0.0162,"dx":0.0183,"nx":116,"ny":114,"refTime":"2023-04-05T12:00:00:Z","depth":0,"parameterNumber":2,"parameterNumberName":"U-component_of_WINDS"},"data":[0.0,0.0,0.0,0.0,0.0,0.0,0.0,0.0,0.0,0.0,0.0,0.0,0.0,0.0,0.0,0.0,0.0,0.0,0.0,0.0,0.0,0.0,0.0,0.0,0.0,0.0,0.0,0.0,0.0,0.0,0.0,0.0,0.0,0.0,0.0,0.0,0.0,0.0,0.0,0.0,0.0,0.0,0.0,0.0,0.0,0.0,0.0,0.0,0.0,0.0,0.0,0.0,0.0,0.0,0.0,0.0,0.0,0.0,0.0,0.0,0.0,0.0,0.0,0.0,0.0,0.0,0.0,0.0,0.0,0.0,0.0,0.0,0.0,0.0,0.0,0.0,0.0,0.0,0.0,0.0,0.0,0.0,0.0,0.0,0.0,0.0,0.0,0.0,0.0,0.0,0.0,0.0,0.0,0.0,0.0,0.0,0.0,0.0,0.0,0.0,0.0,0.0,0.0,0.0,0.0,0.0,0.0,0.0,0.0,0.0,0.0,0.0,0.0,0.0,0.0,0.0,0.0,0.0,0.0,0.0,0.0,0.0,0.0,0.0,0.0,0.0,0.0,0.0,0.0,0.0,0.0,0.0,0.0,0.0,0.0,0.0,0.0,0.0,0.0,0.0,0.0,0.0,0.0,0.0,0.0,0.0,0.0,0.0,0.0,0.0,0.0,0.0,0.0,0.0,0.0,0.0,0.0,0.0,0.0,0.0,0.0,0.0,0.0,0.0,0.0,0.0,0.0,0.0,0.0,0.0,0.0,0.0,0.0,0.0,0.0,0.0,0.0,0.0,0.0,0.0,0.0,0.0,0.0,0.0,0.0,0.0,0.0,0.0,0.0,0.0,0.0,0.0,0.0,0.0,0.0,0.0,0.0,0.0,0.0,0.0,0.0,0.0,0.0,0.0,0.0,0.0,0.0,0.0,0.0,0.0,0.0,0.0,0.0,0.0,0.0,0.0,0.0,0.0,0.0,0.0,0.0,0.0,0.0,0.0,0.0,0.0,0.0,0.0,0.0,0.0,0.0,0.0,0.0,0.0,0.0,0.0,0.0,0.0,0.0,0.0,0.0,0.0,0.0,0.0,0.0,0.0,0.0,0.0,0.0,0.0,0.0,0.0,0.0,0.0,0.0,0.0,0.0,0.0,0.0,0.0,0.0,0.0,0.0,0.0,0.0,0.0,0.0,0.0,0.0,0.0,0.0,0.0,0.0,0.0,0.0,0.0,0.0,0.0,0.0,0.0,0.0,0.0,0.0,0.0,0.0,0.0,0.0,0.0,0.0,0.0,0.0,0.0,0.0,0.0,0.0,0.0,0.0,0.0,0.0,0.0,0.0,0.0,0.0,0.0,0.0,0.0,0.0,0.0,0.0,0.0,0.0,0.0,0.0,0.0,0.0,0.0,0.0,0.0,0.0,0.0,0.0,0.0,0.0,0.0,0.0,0.0,0.0,0.0,0.0,0.0,0.0,0.0,0.0,0.0,0.0,0.0,0.0,0.0,0.0,0.0,0.0,0.0,0.0,0.0,0.0,0.0,0.0,0.0,0.0,0.0,0.0,0.0,0.0,0.0,0.0,0.0,0.0,0.0,0.0,0.0,0.0,0.0,0.0,0.0,0.0,0.0,0.0,0.0,0.0,0.0,0.0,0.0,0.0,0.0,0.0,0.0,0.0,0.0,0.0,0.0,0.0,0.0,0.0,0.0,0.0,0.0,0.0,0.0,0.0,0.0,0.0,0.0,0.0,0.0,0.0,0.0,0.0,0.0,0.0,0.0,0.0,0.0,0.0,0.0,0.0,0.0,0.0,0.0,0.0,0.0,0.0,0.0,0.0,0.0,0.0,0.0,0.0,0.0,0.0,0.0,0.0,0.0,0.0,0.0,0.0,0.0,0.0,0.0,0.0,0.0,0.0,0.0,0.0,0.0,0.0,0.0,0.0,0.0,0.0,0.0,0.0,0.0,0.0,0.0,0.0,0.0,0.0,0.0,0.0,0.0,0.0,0.0,0.0,0.0,0.0,0.0,0.0,0.0,0.0,0.0,0.0,0.0,0.0,0.0,0.0,0.0,0.0,0.0,0.0,0.0,0.0,0.0,0.0,0.0,0.0,0.0,0.0,0.0,0.0,0.0,0.0,0.0,0.0,0.0,0.0,0.0,0.0,0.0,0.0,0.0,0.0,0.0,0.0,0.0,0.0,0.0,0.0,0.0,0.0,0.0,0.0,0.0,0.0,0.0,0.0,0.0,0.0,0.0,0.0,0.0,0.0,0.0,0.0,0.0,0.0,0.0,0.0,0.0,0.0,0.0,0.0,0.0,0.0,0.0,0.0,0.0,0.0,0.0,0.0,0.0,0.0,0.0,0.0,0.0,0.0,0.0,0.0,0.0,0.0,0.0,0.0,0.0,0.0,0.0,0.0,0.0,0.0,0.0,0.0,0.0,0.0,0.0,0.0,0.0,0.0,0.0,0.0,0.0,0.0,0.0,0.0,0.0,0.0,0.0,0.0,0.0,0.0,0.0,0.0,0.0,0.0,0.0,0.0,0.0,0.0,0.0,0.0,0.0,0.0,0.0,0.0,0.0,0.0,0.0,0.0,0.0,0.0,0.0,0.0,0.0,0.0,0.0,0.0,0.0,0.0,0.0,0.0,0.0,0.0,0.0,0.0,0.0,0.0,0.0,0.0,0.0,0.0,0.0,0.0,0.0,0.0,0.0,0.0,0.0,0.0,0.0,0.0,0.0,0.0,0.0,0.0,0.0,0.0,0.0,0.0,0.0,0.0,0.0,0.0,0.0,0.0,0.0,0.0,0.0,0.0,0.0,0.0,0.0,0.0,0.0,0.0,0.0,0.0,0.0,0.0,0.0,0.0,0.0,0.0,0.0,0.0,0.0,0.0,0.0,0.0,0.0,0.0,0.0,0.0,0.0,0.0,0.0,0.0,0.0,0.0,0.0,0.0,0.0,0.0,0.0,0.0,0.0,0.0,0.0,0.0,0.0,0.0,0.0,0.0,0.0,0.0,0.0,0.0,0.0,0.0,0.0,0.0,0.0,0.0,0.0,0.0,0.0,0.0,0.0,0.0,0.0,0.0,0.0,0.0,0.0,0.0,0.0,0.0,0.0,0.0,0.0,0.0,0.0,0.0,0.0,0.0,0.0,0.0,0.0,0.0,0.0,0.0,0.0,0.0,0.0,0.0,0.0,0.0,0.0,0.0,0.0,0.0,0.0,0.0,0.0,0.0,0.0,0.0,0.0,0.0,0.0,0.0,0.0,0.0,0.0,0.0,0.0,0.0,0.0,0.0,0.0,0.0,0.0,0.0,0.0,0.0,0.0,0.0,0.0,0.0,0.0,0.0,0.0,0.0,0.0,0.0,0.0,0.0,0.0,0.0,0.0,0.0,0.0,0.0,0.0,0.0,0.0,0.0,0.0,0.0,0.0,0.0,0.0,0.0,0.0,0.0,0.0,0.0,0.0,0.0,0.0,0.0,0.0,0.0,0.0,0.0,0.0,0.0,0.0,0.0,0.0,0.0,0.0,0.0,0.0,0.0,0.0,0.0,0.0,0.0,0.0,0.0,0.0,0.0,0.0,0.0,0.0,0.0,0.0,0.0,0.0,0.0,0.0,0.0,0.0,0.0,0.0,0.0,0.0,0.0,0.0,0.0,0.0,0.0,0.0,0.0,0.0,0.0,0.0,0.0,0.0,0.0,0.0,0.0,0.0,0.0,0.0,0.0,0.0,0.0,0.0,0.0,0.0,0.0,0.0,0.0,0.0,0.0,0.0,0.0,0.0,0.0,0.0,0.0,0.0,0.0,0.0,0.0,0.0,0.0,0.0,0.0,0.0,0.0,0.0,0.0,0.0,0.0,0.0,0.0,0.0,0.0,0.0,0.0,0.0,0.0,0.0,0.0,0.0,0.0,0.0,0.0,0.0,0.0,0.0,0.0,0.0,0.0,0.0,0.0,0.0,0.0,0.0,0.0,0.0,0.0,0.0,0.0,0.0,0.0,0.0,0.0,0.0,0.0,0.0,0.0,0.0,0.0,0.0,0.0,0.0,0.0,0.0,0.0,0.0,0.0,0.0,0.0,0.0,0.0,0.0,0.0,0.0,0.0,0.0,0.0,0.0,0.0,0.0,0.0,0.0,0.0,0.0,0.0,0.0,0.0,0.0,0.0,0.0,0.0,0.0,0.0,0.0,0.0,0.0,0.0,0.0,0.0,0.0,0.0,0.0,0.0,0.0,0.0,0.0,0.0,0.0,0.0,0.0,0.0,0.0,0.0,0.0,0.0,0.0,0.0,0.0,0.0,0.0,0.0,0.0,0.0,0.0,0.0,0.0,0.0,0.0,0.0,0.0,0.0,0.0,0.0,0.0,0.0,0.0,0.0,0.0,0.0,0.0,0.0,0.0,0.0,0.0,0.0,0.0,0.0,0.0,0.0,0.0,0.0,0.0,0.0,0.0,0.0,0.0,0.0,0.0,0.0,0.0,0.0,0.0,0.0,0.0,0.0,0.0,0.0,0.0,0.0,0.0,0.0,0.0,0.0,0.0,0.0,0.0,0.0,0.0,0.0,0.0,0.0,0.0,0.0,0.0,0.0,0.0,0.0,0.0,0.0,0.0,0.0,0.0,0.0,0.0,0.0,0.0,0.0,0.0,0.0,0.0,0.0,0.0,0.0,0.0,0.0,0.0,0.0,0.0,0.0,0.0,0.0,0.0,0.0,0.0,0.0,0.0,0.0,0.0,0.0,0.0,0.0,0.0,0.0,0.0,0.0,0.0,0.0,0.0,0.0,0.0,0.0,0.0,0.0,0.0,0.0,0.0,0.0,0.0,0.0,0.0,0.0,0.0,0.0,0.0,0.0,0.0,0.0,0.0,0.0,0.0,0.0,0.0,0.0,0.0,0.0,0.0,0.0,0.0,0.0,0.0,0.0,0.0,0.0,0.0,0.0,0.0,0.0,0.0,0.0,0.0,0.0,0.0,0.0,0.0,0.0,0.0,0.0,0.0,0.0,0.0,0.0,0.0,0.0,0.0,0.0,0.0,0.0,0.0,0.0,0.0,0.0,0.0,0.0,0.0,0.0,0.0,0.0,0.0,0.0,0.0,0.0,0.0,0.0,0.0,0.0,0.0,0.0,0.0,0.0,0.0,0.0,0.0,0.0,0.0,0.0,0.0,0.0,0.0,0.0,0.0,0.0,0.0,0.0,0.0,0.0,0.0,0.0,0.0,0.0,0.0,0.0,0.0,0.0,0.0,0.0,0.0,0.0,0.0,0.0,0.0,0.0,0.0,0.0,0.0,0.0,0.0,0.0,0.0,0.0,0.0,0.0,0.0,0.0,0.0,0.0,0.0,0.0,0.0,0.0,0.0,0.0,0.0,0.0,0.0,0.0,0.0,0.0,0.0,0.0,0.0,0.0,0.0,0.0,0.0,0.0,0.0,0.0,0.0,0.0,0.0,0.0,0.0,0.0,0.0,0.0,0.0,0.0,0.0,0.0,0.0,0.0,0.0,0.0,0.0,0.0,0.0,0.0,0.0,0.0,0.0,0.0,0.0,0.0,0.0,0.0,0.0,0.0,0.0,0.0,0.0,0.0,0.0,0.0,0.0,0.0,0.0,0.0,0.0,0.0,0.0,0.0,0.0,0.0,0.0,0.0,0.0,0.0,0.0,0.0,0.0,0.0,0.0,0.0,0.0,0.0,0.0,0.0,0.0,0.0,0.0,0.0,0.0,0.0,0.0,0.0,0.0,0.0,0.0,0.0,0.0,0.0,0.0,0.0,0.0,0.0,0.0,0.0,0.0,0.0,0.0,0.0,0.0,0.0,0.0,0.0,0.0,0.0,0.0,0.0,0.0,0.0,0.0,0.0,0.0,0.0,0.0,0.0,0.0,0.0,0.0,0.0,0.0,0.0,0.0,0.0,0.0,0.0,0.0,0.0,0.0,0.0,0.0,0.0,0.0,0.0,0.0,0.0,0.0,0.0,0.0,0.0,0.0,0.0,0.0,0.0,0.0,0.0,0.0,0.0,0.0,0.0,0.0,0.0,0.0,0.0,0.0,0.0,0.0,0.0,0.0,0.0,0.0,0.0,0.0,0.0,0.0,-2.4025,-2.2405,0.0,0.0,0.0,0.0,0.0,0.0,0.0,0.0,0.0,0.0,0.0,0.0,0.0,0.0,0.0,0.0,0.0,0.0,0.0,0.0,0.0,0.0,0.0,0.0,0.0,0.0,0.0,0.0,0.0,0.0,0.0,0.0,0.0,0.0,0.0,0.0,0.0,0.0,-0.5983,-0.651,-0.7173,-0.7287,-0.7305,-0.7245,0.0,0.0,0.0,0.0,0.0,0.0,0.0,0.0,0.0,0.0,0.0,0.0,0.0,0.0,0.0,0.0,0.0,0.0,0.0,0.0,0.0,0.0,0.0,0.0,0.0,0.0,0.0,0.0,0.0,0.0,0.0,0.0,0.0,0.0,0.0,0.0,0.0,0.0,0.0,0.0,0.0,0.0,0.0,0.0,0.0,0.0,0.0,0.0,0.0,0.0,0.0,0.0,0.0,0.0,0.0,0.0,0.0,0.0,0.0,0.0,0.0,0.0,0.0,0.0,0.0,0.0,0.0,0.0,0.0,0.0,-2.5197,-2.4021,0.0,0.0,0.0,0.0,0.0,0.0,0.0,0.0,0.0,0.0,0.0,0.0,0.0,0.0,0.0,0.0,0.0,0.0,0.0,0.0,0.0,0.0,0.0,0.0,-0.0932,-0.118,-0.2096,0.0,0.0,0.0,0.0,0.0,0.0,0.0,0.0,-0.5691,-0.5776,-0.5918,-0.6503,-0.7158,-0.7938,-0.8157,-0.821,-0.8028,-0.8493,0.0,0.0,0.0,0.0,0.0,0.0,0.0,0.0,0.0,0.0,0.0,0.0,0.0,0.0,0.0,0.0,0.0,0.0,0.0,0.0,0.0,0.0,0.0,0.0,0.0,0.0,0.0,0.0,0.0,0.0,0.0,0.0,0.0,0.0,0.0,0.0,0.0,0.0,0.0,0.0,0.0,0.0,0.0,0.0,0.0,0.0,0.0,0.0,0.0,0.0,0.0,0.0,0.0,0.0,0.0,0.0,0.0,0.0,0.0,0.0,0.0,0.0,0.0,-2.6141,-2.6381,-2.6471,-2.6466,-2.7012,-2.7936,-2.6895,-2.6609,-2.6648,-2.4387,0.0,0.0,0.0,0.0,0.0,0.0,0.0,0.0,0.0,0.0,0.0,0.0,0.0,0.0,0.0,0.0,0.0,0.0,0.0,0.0,0.0,-0.0877,-0.1016,-0.1118,-0.2435,-0.3319,0.0,0.0,0.0,0.0,0.0,0.0,0.0,-0.6105,-0.6279,-0.6422,-0.7362,-0.7848,-0.8002,-0.8413,-0.8687,-0.8847,-0.8686,-0.8888,-0.946,0.0,0.0,0.0,0.0,0.0,0.0,0.0,0.0,0.0,0.0,0.0,0.0,0.0,0.0,0.0,0.0,0.0,0.0,0.0,0.0,0.0,0.0,0.0,0.0,0.0,0.0,0.0,0.0,0.0,0.0,0.0,0.0,0.0,0.0,0.0,0.0,0.0,0.0,0.0,0.0,0.0,-2.0105,-2.0156,0.0,0.0,0.0,0.0,0.0,0.0,0.0,0.0,0.0,0.0,0.0,0.0,0.0,-2.4623,-2.5045,-2.7489,-2.8539,-2.8145,-2.9178,-2.9958,-3.0432,-2.9457,-2.9391,-2.9994,-2.929,0.0,-2.7398,-2.7549,0.0,0.0,0.0,0.0,0.0,0.0,0.0,0.0,0.0,0.0,0.0,0.0,0.0,0.0,0.0,0.0,0.0,0.0,0.0,0.0,0.0,-0.0737,-0.081,-0.1027,-0.2093,-0.2918,-0.3434,0.0,0.0,0.0,0.0,-0.5935,-0.5786,-0.6176,-0.6658,-0.7105,-0.7576,-0.7919,-0.8229,-0.8612,-0.8946,-0.9294,-0.9216,-0.9404,-0.9839,-1.1027,0.0,0.0,0.0,0.0,0.0,0.0,0.0,0.0,0.0,0.0,0.0,0.0,0.0,0.0,0.0,0.0,0.0,0.0,0.0,0.0,0.0,0.0,0.0,0.0,0.0,0.0,0.0,0.0,0.0,0.0,0.0,0.0,0.0,0.0,0.0,0.0,0.0,0.0,0.0,-1.8731,-1.9337,-1.8839,-1.9114,-1.9087,0.0,0.0,0.0,0.0,0.0,0.0,0.0,0.0,0.0,-2.3441,-2.3968,-2.4873,-2.6235,-2.7186,-2.7942,-2.8555,-2.8605,-2.8903,-2.9415,-2.8478,-2.836,-2.8942,-2.881,-2.8363,-2.7669,-2.7719,-2.6882,-2.5571,0.0,0.0,0.0,0.0,-2.4879,-2.4892,0.0,0.0,0.0,0.0,0.0,0.0,0.0,0.0,0.0,0.0,0.0,0.0,-0.071,-0.0607,-0.0637,-0.0939,-0.17,-0.2546,-0.3465,-0.4282,0.0,0.0,0.0,-0.583,-0.5762,-0.6305,-0.6922,-0.76,-0.7685,-0.7959,-0.8375,-0.8711,-0.9095,-0.9415,-0.958,-0.9951,-1.0459,-1.1749,-1.22,-1.2135,0.0,0.0,0.0,0.0,0.0,0.0,0.0,0.0,0.0,0.0,0.0,0.0,0.0,0.0,0.0,0.0,0.0,0.0,0.0,0.0,0.0,0.0,0.0,0.0,0.0,0.0,0.0,0.0,0.0,0.0,0.0,0.0,0.0,0.0,0.0,0.0,0.0,-1.8982,-1.9437,-1.8494,-1.9323,-1.9463,0.0,0.0,0.0,0.0,0.0,0.0,-2.1104,-2.1838,-2.2692,-2.361,-2.4067,-2.5092,-2.6793,-2.6816,-2.7417,-2.8491,-2.7916,-2.781,-2.8071,-2.7429,-2.73,-2.7631,-2.798,-2.8009,-2.7874,-2.7996,-2.7816,-2.7456,-2.6685,-2.6214,-2.6026,-2.6161,-2.6198,-2.6449,0.0,0.0,0.0,0.0,0.0,0.0,0.0,0.0,0.0,0.0,0.0,-0.0508,-0.0523,-0.0513,-0.0611,-0.0862,-0.1573,-0.2388,-0.3256,-0.4136,-0.4956,-0.576,-0.5935,-0.6084,-0.6262,-0.6671,-0.7132,-0.76,-0.7982,-0.8208,-0.8225,-0.8864,-0.9191,-0.9256,-0.9702,-1.0407,-1.1337,-1.177,-1.2479,-1.3308,-1.3218,0.0,0.0,0.0,0.0,0.0,0.0,0.0,0.0,0.0,0.0,0.0,0.0,0.0,0.0,0.0,0.0,0.0,0.0,0.0,0.0,0.0,0.0,0.0,0.0,0.0,0.0,0.0,0.0,0.0,0.0,0.0,0.0,0.0,0.0,0.0,0.0,0.0,0.0,-2.0364,-2.1497,0.0,0.0,0.0,0.0,-2.0352,-2.0461,-2.1063,-2.2333,-2.2455,-2.3216,-2.4854,-2.5426,-2.5883,-2.6251,-2.7798,-2.8574,-2.8502,-2.8597,-2.8387,-2.8015,-2.782,-2.7545,-2.7174,-2.7633,-2.7923,-2.8209,-2.9649,-2.9188,-2.763,-2.7799,-2.7362,-2.6624,-2.7111,-2.7311,-2.7471,0.0,0.0,0.0,0.0,0.0,0.0,0.0,0.0,0.0,-0.0454,-0.0492,-0.0454,-0.0394,-0.0271,-0.0326,-0.0739,-0.1012,-0.1587,-0.2671,-0.3501,-0.4176,-0.4671,-0.5551,-0.6242,-0.6814,-0.7177,-0.7482,-0.7736,-0.7887,-0.7959,-0.8007,-0.8442,-0.8825,-0.9232,-1.0151,-1.1241,-1.2418,-1.2362,-1.2763,-1.3429,-1.4031,-1.4077,0.0,0.0,0.0,0.0,0.0,0.0,0.0,0.0,0.0,0.0,0.0,0.0,0.0,0.0,0.0,0.0,0.0,0.0,0.0,0.0,0.0,0.0,0.0,0.0,0.0,0.0,0.0,0.0,0.0,0.0,0.0,0.0,0.0,0.0,0.0,0.0,0.0,-2.101,-2.2575,0.0,-2.1476,-2.1849,-2.2201,-2.2201,-2.2699,-2.3247,-2.3743,-2.4053,-2.4387,-2.4651,-2.5146,-2.5614,-2.6001,-2.6582,-2.7185,-2.7696,-2.7487,-2.725,-2.7078,-2.6431,-2.6023,-2.5883,-2.6315,-2.6261,-2.5912,-2.7574,-2.8079,-2.7747,-2.7837,-2.7647,-2.7408,-2.7589,-2.7654,-2.7714,0.0,0.0,0.0,0.0,0.0,0.0,0.0,0.0,-0.0479,-0.0468,-0.0435,-0.0357,-0.0226,-0.0081,-0.0169,-0.0645,-0.0706,-0.1257,-0.2592,-0.3168,-0.3772,-0.4509,-0.559,-0.6458,-0.7011,-0.7316,-0.7543,-0.774,-0.7733,-0.7846,-0.7984,-0.8268,-0.8662,-0.9116,-1.0018,-1.1313,-1.2845,-1.271,-1.3309,-1.4408,-1.4723,-1.472,-1.4372,0.0,0.0,0.0,0.0,0.0,0.0,0.0,0.0,0.0,0.0,0.0,0.0,0.0,0.0,0.0,0.0,0.0,0.0,0.0,0.0,0.0,0.0,0.0,0.0,0.0,0.0,0.0,0.0,0.0,0.0,0.0,0.0,0.0,0.0,-2.1776,-2.3018,-2.1942,-2.3836,-2.4571,-2.2884,-2.3557,-2.4095,-2.4095,-2.4654,-2.4952,-2.4952,-2.5106,-2.5055,-2.4745,-2.4879,-2.5285,-2.5875,-2.5875,-2.6387,-2.7299,-2.6832,-2.6532,-2.6366,-2.572,-2.5368,-2.5213,-2.5476,-2.5263,-2.48,-2.5833,-2.64,-2.6707,-2.7168,-2.7412,-2.7441,-2.7209,-2.7065,-2.6892,0.0,0.0,0.0,0.0,0.0,0.0,0.0,-0.0576,-0.0482,-0.0417,-0.0339,-0.0219,-0.004,0.0,-0.0214,-0.0669,-0.0717,-0.1413,-0.3047,-0.3178,-0.3876,-0.5369,-0.6126,-0.662,-0.6879,-0.7034,-0.7253,-0.7594,-0.7668,-0.7822,-0.8098,-0.8482,-0.8744,-0.8836,-0.9233,-1.0577,-1.2529,-1.2672,-1.414,-1.6248,-1.539,-1.5307,-1.5668,0.0,0.0,0.0,0.0,0.0,0.0,0.0,0.0,0.0,0.0,0.0,0.0,0.0,0.0,0.0,0.0,0.0,0.0,0.0,0.0,0.0,0.0,0.0,0.0,0.0,0.0,0.0,0.0,0.0,0.0,0.0,0.0,0.0,-2.1834,-2.306,-2.3774,-2.335,-2.5244,-2.6072,-2.4714,-2.5399,-2.5896,-2.5896,-2.5885,-2.5885,-2.5896,-2.5458,-2.523,-2.523,-2.4807,-2.5003,-2.5906,-2.5937,-2.6438,-2.732,-2.6874,-2.6407,-2.5941,-2.593,-2.5647,-2.521,-2.5179,-2.5179,-2.5148,-2.4683,-2.4497,-2.4625,-2.5946,-2.6547,-2.6659,-2.6093,-2.5548,-2.5098,0.0,0.0,0.0,0.0,0.0,0.0,0.0,-0.0625,-0.0573,-0.0417,-0.0414,-0.0333,-0.0039,-0.0167,-0.039,-0.0658,-0.0889,-0.138,-0.2344,-0.3072,-0.4187,-0.5752,-0.6356,-0.6729,-0.6883,-0.7288,-0.7461,-0.7434,-0.7615,-0.7809,-0.7967,-0.8232,-0.8514,-0.8832,-0.9835,-1.1091,-1.257,-1.345,-1.4782,-1.6301,-1.606,-1.5974,-1.5972,0.0,0.0,0.0,0.0,0.0,0.0,0.0,0.0,0.0,0.0,0.0,0.0,0.0,0.0,0.0,0.0,0.0,0.0,0.0,0.0,0.0,0.0,0.0,0.0,0.0,0.0,0.0,0.0,0.0,0.0,0.0,-2.13,-2.2322,-2.2231,-2.3697,-2.483,-2.5077,-2.6125,-2.6658,-2.629,-2.6167,-2.6126,-2.6126,-2.5615,-2.5574,-2.6105,-2.5808,-2.5701,-2.5941,-2.6146,-2.6371,-2.6607,-2.7115,-2.7489,-2.7738,-2.7614,-2.7138,-2.6418,-2.6076,-2.5813,-2.5668,-2.4972,-2.4879,-2.5148,-2.4683,-2.4497,-2.454,-2.4914,-2.5073,-2.5105,-2.4956,-2.464,-2.4261,0.0,0.0,0.0,0.0,0.0,0.0,0.0,-0.0698,-0.0626,-0.0423,-0.0446,-0.0401,-0.0158,-0.0331,-0.0595,-0.0815,-0.1194,-0.173,-0.2482,-0.3657,-0.4849,-0.5952,-0.6461,-0.6773,-0.6883,-0.7305,-0.7477,-0.7462,-0.7548,-0.7767,-0.8028,-0.8157,-0.8388,-0.8763,-0.9444,-1.0687,-1.2281,-1.3094,-1.4463,-1.6099,-1.6219,-1.6269,-1.6163,-1.6016,-1.5878,-1.5873,-1.6095,-1.6371,-1.6673,-1.6742,0.0,0.0,0.0,0.0,0.0,0.0,0.0,0.0,0.0,0.0,0.0,0.0,0.0,0.0,0.0,0.0,0.0,0.0,0.0,0.0,0.0,0.0,0.0,0.0,-2.2504,-2.3421,-2.3513,-2.4606,-2.5554,-2.6054,-2.6489,-2.6747,-2.6747,-2.6513,-2.6303,-2.6303,-2.592,-2.5879,-2.6293,-2.598,-2.5879,-2.603,-2.6283,-2.6506,-2.6747,-2.7416,-2.7832,-2.8017,-2.7919,-2.7645,-2.7107,-2.6268,-2.6034,-2.6159,-2.5223,-2.4941,-2.5168,-2.49,-2.4673,0.0,0.0,0.0,0.0,0.0,-2.4105,-2.3888,0.0,0.0,0.0,0.0,0.0,0.0,0.0,-0.0791,-0.0644,-0.0465,-0.0506,-0.0496,-0.036,-0.0528,-0.0739,-0.0963,-0.153,-0.2187,-0.3061,-0.4492,-0.5515,-0.5884,-0.6404,-0.679,-0.6883,-0.7204,-0.7417,-0.7507,-0.7551,-0.7764,-0.8201,-0.8225,-0.8352,-0.858,-0.858,-0.9768,-1.1788,-1.21,-1.3594,-1.5758,-1.6106,-1.6259,-1.6315,-1.5981,-1.5817,-1.5821,-1.6461,-1.6802,-1.7005,-1.7025,0.0,0.0,0.0,0.0,0.0,0.0,0.0,0.0,0.0,0.0,0.0,0.0,0.0,0.0,0.0,0.0,0.0,0.0,0.0,0.0,0.0,0.0,0.0,0.0,-2.3703,-2.4979,-2.5272,-2.5625,-2.6019,-2.636,-2.6448,-2.6448,-2.6448,-2.6448,-2.6448,-2.6448,-2.6448,-2.64,-2.6448,-2.6019,0.0,0.0,0.0,-2.6137,-2.6589,-2.7286,-2.7811,-2.8208,-2.7988,-2.7847,-2.7703,-2.6439,-2.6057,-2.6444,-2.5499,-2.5137,-2.5179,-2.5127,-2.4869,-2.4497,-2.4497,-2.4497,-2.4456,-2.4105,-2.3919,-2.3805,0.0,0.0,0.0,0.0,0.0,0.0,0.0,-0.0841,-0.0828,-0.0728,-0.0742,-0.0704,-0.0548,-0.0765,-0.0938,-0.0983,-0.1636,-0.2341,-0.3061,-0.4252,-0.5018,-0.5195,-0.6271,-0.6856,-0.6886,-0.7051,-0.7262,-0.7507,-0.7724,-0.794,-0.8197,-0.8233,-0.8298,-0.8345,-0.8345,-0.9551,-1.1587,-1.2024,-1.3487,-1.5504,-1.5798,-1.6199,-1.6663,-1.6803,-1.6676,-1.6546,-1.7054,-1.7142,-1.7051,-1.73,-1.7497,-1.7693,-1.8004,-1.8063,0.0,0.0,0.0,0.0,0.0,0.0,0.0,0.0,0.0,0.0,0.0,0.0,0.0,0.0,0.0,0.0,0.0,0.0,0.0,-2.3662,-2.4805,-2.5801,-2.6533,-2.6447,-2.6183,-2.5917,-2.6062,-2.6197,-2.6197,-2.6197,-2.6197,-2.6197,-2.5965,-2.5965,-2.6149,-2.5886,-2.5799,-2.602,-2.6416,-2.6814,-2.7242,-2.7944,-2.8328,-2.846,-2.7996,0.0,-2.6731,-2.5936,-2.563,-2.566,-2.4936,-2.4848,-2.5158,-2.4786,-2.458,-2.4497,-2.4497,-2.4497,-2.4487,-2.4404,-2.4188,-2.3805,0.0,0.0,0.0,0.0,0.0,0.0,0.0,-0.0858,-0.0868,-0.0763,-0.084,-0.0834,-0.0724,-0.1181,-0.1487,-0.1487,-0.2188,-0.2931,-0.3639,-0.3988,-0.4256,-0.4491,-0.557,-0.6217,-0.6217,-0.675,-0.7214,-0.7556,-0.748,-0.7735,-0.8245,-0.8162,-0.8164,-0.8292,-0.8292,-0.9449,-1.1429,-1.1871,-1.326,-1.5217,-1.5651,-1.5957,-1.6286,-1.6587,-1.6654,-1.6704,-1.7091,-1.7289,-1.7414,-1.7423,-1.7606,-1.801,-1.8571,-1.856,-1.8485,0.0,0.0,0.0,0.0,0.0,0.0,0.0,0.0,0.0,0.0,0.0,0.0,0.0,0.0,-2.0889,-2.175,0.0,-2.333,-2.4787,-2.5635,-2.6289,-2.6924,-2.6836,-2.6543,-2.6113,-2.5957,-2.5917,-2.5917,-2.5917,-2.5917,-2.5917,-2.5986,-2.6016,-2.5936,-2.5986,-2.6104,-2.6241,-2.6458,-2.6773,-2.7196,-2.7678,-2.7941,-2.7931,-2.7422,-2.7039,-2.6788,-2.5589,-2.5214,-2.5589,-2.4975,-2.4841,-2.5026,-2.465,-2.4497,-2.4497,-2.4497,-2.4497,-2.4497,-2.4497,-2.4363,-2.4146,0.0,0.0,0.0,0.0,0.0,0.0,0.0,0.0,-0.0849,-0.0756,-0.0984,-0.1171,-0.1147,-0.1763,-0.2265,-0.2455,-0.2884,-0.3389,-0.4052,-0.376,-0.3647,-0.3883,-0.5028,-0.5667,-0.569,-0.6567,-0.7253,-0.7639,-0.7286,-0.7517,-0.8288,-0.8044,-0.8044,-0.8288,-0.8251,-0.9347,-1.1273,-1.1723,-1.3108,-1.5062,-1.5591,-1.5784,-1.5858,-1.6147,-1.6375,-1.6576,-1.6868,-1.7289,-1.7588,-1.7327,-1.7588,-1.8135,-1.8753,-1.8673,-1.8589,-1.9487,-1.9016,0.0,0.0,0.0,0.0,0.0,0.0,0.0,0.0,-1.9517,-2.0165,-2.1994,-2.2373,-2.2617,-2.3433,-2.3877,-2.457,-2.5742,-2.6357,-2.6777,-2.7207,-2.7197,-2.7012,-2.668,-2.625,-2.5937,-2.5937,-2.5937,-2.5937,-2.5937,-2.6309,-2.6318,-2.584,-2.6201,-2.6387,-2.6387,-2.6309,-2.6504,-2.7012,-2.7127,-2.7309,-2.7467,-2.6804,-2.6722,-2.7092,-2.5438,-2.5057,-2.5678,-2.5087,-2.4785,-2.4673,-2.4436,-2.4368,-2.4368,-2.4411,-2.4454,-2.4464,-2.4497,-2.4497,-2.4435,0.0,0.0,0.0,0.0,0.0,0.0,0.0,0.0,0.0,-0.0877,-0.1425,-0.1943,-0.228,-0.2714,-0.3305,-0.4064,-0.3556,-0.3268,-0.3397,-0.3637,-0.3673,-0.3485,-0.516,-0.6197,-0.6315,-0.6947,-0.7413,-0.768,-0.7641,-0.7844,-0.8284,-0.808,-0.8092,-0.8284,-0.8117,-0.9133,-1.1067,-1.1647,-1.3108,-1.5062,-1.5591,-1.5784,-1.5832,-1.6109,-1.6252,-1.6319,-1.6826,-1.7029,-1.7069,-1.7041,-1.7069,-1.722,-1.7583,-1.7824,-1.7965,-1.7911,-1.7961,-1.7767,-1.6645,-1.7569,-1.882,-1.8842,-2.012,-2.1809,0.0,-2.3159,-2.2906,-2.39,-2.4131,-2.4287,-2.4812,-2.5215,-2.5771,-2.6728,-2.7236,-2.7718,-2.8096,-2.7832,-2.7578,-2.7581,-2.7139,-2.6865,-2.6865,-2.6865,-2.6865,-2.6865,-2.6914,-2.6758,-2.6338,-2.6367,-2.6387,-2.6387,-2.6016,-2.6152,-2.7012,-2.6691,-2.6887,-2.763,-2.682,-2.6633,-2.6996,-2.5826,-2.5347,-2.5387,-2.4806,-2.4293,-2.3911,-2.3904,-2.3884,-2.3884,-2.4153,-2.4249,-2.4249,-2.4411,-2.4497,-2.4435,0.0,0.0,0.0,0.0,0.0,0.0,0.0,0.0,0.0,0.0,-0.2021,-0.2537,-0.2984,-0.3567,-0.4258,-0.509,-0.4551,-0.4242,-0.4356,-0.3865,-0.3696,-0.3966,-0.4903,-0.5617,-0.5913,-0.6756,-0.7282,-0.7535,-0.7462,-0.7624,-0.802,-0.7943,-0.7959,-0.813,-0.8158,-0.9279,-1.1192,-1.1778,-1.3147,-1.5042,-1.5727,-1.6007,-1.6076,-1.6508,-1.665,-1.6648,-1.6465,-1.6634,0.0,-1.6706,-1.668,-1.6843,-1.7701,-1.7781,-1.7669,-1.8079,-1.7804,-1.7518,-1.8113,-1.86,-1.9142,-2.0141,-2.1196,-2.2191,-2.3186,-2.3138,-2.3286,-2.4857,-2.5138,-2.5244,-2.542,-2.6016,-2.6602,-2.6953,-2.7588,-2.8096,-2.8271,-2.793,-2.7806,-2.7998,-2.7432,-2.6914,-2.667,-2.6875,-2.6807,-2.6259,-2.6973,-2.71,-2.6426,-2.6621,-2.6758,-2.6758,-2.6094,-2.6035,-2.6641,-2.6221,-2.6318,-2.6914,-2.6084,-2.5977,-2.6602,-2.5134,-2.4408,-2.4286,-2.4018,-2.3891,-2.3797,-2.3797,-2.3797,-2.3797,-2.3927,-2.398,-2.3993,-2.4123,-2.4157,-2.4053,0.0,0.0,0.0,0.0,0.0,0.0,0.0,0.0,0.0,0.0,-0.2544,-0.3176,-0.3805,-0.442,-0.5073,-0.5687,-0.5295,-0.5018,-0.508,-0.4341,-0.4088,-0.4525,-0.5083,-0.5526,-0.586,-0.6749,-0.7274,-0.7434,-0.7343,-0.7456,-0.78,-0.7849,-0.8004,-0.8301,-0.8492,-0.9676,-1.1602,-1.2208,-1.3487,-1.5259,-1.5954,-1.6246,-1.6359,-1.6838,-1.6922,-1.6825,-1.6265,-1.6394,-1.6705,-1.6199,-1.6045,-1.6242,-1.7156,-1.7155,-1.6944,-1.7478,-1.6951,-1.6599,-1.8357,-1.8989,-1.9503,-2.1139,-2.2211,-2.2983,-2.3437,-2.3531,-2.3937,-2.5392,-2.5693,-2.5693,-2.5693,-2.6386,-2.7012,-2.7012,-2.7734,-2.8291,-2.8291,-2.793,-2.7836,-2.8086,-2.7461,-2.6846,-2.6426,-2.6768,-2.6758,-2.6093,-2.707,-2.7236,-2.626,-2.6719,-2.6904,-2.667,-2.6015,-2.5947,-2.6387,-2.5908,-2.5849,-2.6201,-2.543,-2.5469,-2.6162,-2.4775,-2.3938,-2.3584,-2.3466,-2.3503,-2.3614,-2.3494,-2.3514,-2.3624,-2.3667,-2.3641,-2.3566,-2.3512,-2.3639,-2.367,0.0,0.0,0.0,0.0,0.0,0.0,0.0,0.0,0.0,0.0,0.0,0.0,0.0,-0.5356,-0.5644,-0.5868,-0.5459,-0.5169,-0.5099,-0.5083,-0.5021,-0.4993,-0.598,-0.6567,-0.656,-0.7176,-0.7484,-0.7492,-0.748,-0.7612,-0.7804,-0.7927,-0.8351,-0.8958,-0.9161,-1.0376,-1.2301,-1.2993,-1.4212,-1.5721,-1.633,-1.6574,-1.6636,-1.6885,-1.6793,-1.6517,-1.6402,-1.6419,-1.6287,-1.5354,-1.5027,-1.5049,-1.5182,-1.5366,-1.5505,-1.5183,-1.4866,-1.4879,-1.6134,-1.7936,-1.9815,-2.1544,-2.3496,-2.5127,-2.5528,-2.5635,-2.5645,-2.5684,-2.5693,-2.5693,-2.5693,-2.6386,-2.7012,-2.7012,-2.7734,-2.8291,-2.8291,-2.793,-2.7718,-2.7738,-2.7285,-2.6846,-2.6426,-2.6768,-2.7002,-2.6982,-2.7402,-2.7109,-2.5771,-2.6502,-2.6631,-2.5752,-2.5703,-2.5947,-2.6387,-2.5908,-2.5693,-2.5703,-2.5293,-2.5312,-2.5693,-2.5254,-2.4617,-2.375,-2.3384,-2.3198,-2.3105,-2.2705,-2.2773,-2.3135,-2.3406,-2.3246,-2.2914,-2.2631,-2.2939,-2.3461,0.0,0.0,0.0,0.0,0.0,0.0,0.0,0.0,0.0,0.0,0.0,0.0,0.0,0.0,0.0,0.0,-0.6344,-0.6329,-0.6171,-0.6332,-0.6594,-0.696,-0.7233,-0.7595,-0.7978,-0.8203,-0.8284,-0.8284,-0.8284,-0.8431,-0.8674,-0.8697,-0.8987,-0.948,-1.0002,-1.1006,-1.2363,-1.3225,-1.4507,-1.5997,-1.6076,-1.6414,-1.6786,-1.6182,-1.5879,-1.5654,0.0,-1.4874,-1.5287,-1.4598,-1.4367,-1.4541,-1.5361,-1.5304,-1.4911,-1.4926,-1.4867,-1.5295,-1.7664,-1.9256,-2.0731,-2.3028,-2.4559,-2.5557,-2.5654,-2.5693,-2.5693,-2.5693,-2.5049,-2.4443,-2.4443,-2.4912,-2.5381,-2.5674,-2.6934,-2.7978,-2.8252,-2.8174,-2.8086,-2.8086,-2.7451,-2.707,-2.7226,-2.71,-2.6777,-2.6161,-2.6836,-2.6924,-2.6211,-2.6709,-2.6758,-2.6182,-2.6172,-2.6103,-2.5957,-2.5762,-2.5693,-2.5684,-2.5283,-2.4853,-2.4434,-2.4287,-2.3906,-2.3286,-2.291,-2.2725,-2.2685,-2.2266,-2.2344,-2.2695,-2.2506,-2.2519,-2.2559,-2.1873,-2.1858,-2.216,0.0,0.0,0.0,0.0,0.0,0.0,0.0,0.0,0.0,0.0,0.0,0.0,0.0,0.0,0.0,0.0,0.0,-0.6489,-0.6577,-0.6749,-0.7085,-0.7599,-0.7677,-0.7928,-0.8295,-0.8402,-0.844,-0.844,-0.8628,-0.8774,-0.896,-0.9188,-0.9676,-1.0312,-1.0847,-1.1812,-1.3082,-1.3822,-1.4718,-1.5653,-1.556,-1.5791,-1.6002,-1.5194,-1.4845,0.0,-1.366,-1.3645,-1.3995,-1.3733,-1.3578,-1.3721,-1.4718,-1.467,-1.4291,-1.4758,-1.498,-1.5726,-1.8675,-1.9955,-2.1075,-2.3731,-2.4797,-2.5304,-2.5615,-2.5693,-2.5586,-2.5226,-2.421,-2.3374,-2.3238,-2.3664,-2.4033,-2.4134,-2.5605,-2.6994,-2.7529,-2.7344,-2.7432,-2.8203,-2.7676,-2.7295,-2.7422,-2.7324,-2.6894,-2.6035,-2.6768,-2.6865,-2.5967,-2.6611,-2.668,-2.5937,-2.6221,-2.6182,-2.5693,-2.5693,-2.5528,-2.5216,-2.4824,-2.4326,-2.3789,-2.3789,-2.3467,-2.2847,-2.2471,-2.2295,-2.2256,-2.1826,-2.1904,-2.2266,-2.1992,-2.1953,-2.1992,-2.1395,-2.1213,-2.1184,0.0,0.0,0.0,0.0,0.0,0.0,0.0,0.0,0.0,0.0,0.0,0.0,0.0,0.0,0.0,0.0,0.0,0.0,-0.6337,-0.6435,-0.6598,-0.6892,-0.7367,-0.7619,-0.7619,-0.7875,-0.8014,-0.8028,-0.8498,-0.8708,-0.8742,-0.9442,-1.0315,-1.1398,-1.1598,-1.2675,-1.4296,-1.4612,-1.4803,-1.4827,-1.4791,-1.467,-1.4445,-1.4064,-1.3704,-1.3404,-1.306,-1.2738,-1.2485,-1.2848,-1.2797,-1.2716,-1.3382,-1.3594,-1.3777,-1.4674,-1.5185,-1.6087,-1.8933,-1.9932,-2.0867,-2.3601,-2.4358,-2.4648,-2.5489,-2.5635,-2.5314,-2.427,-2.3203,-2.2436,-2.2089,-2.2631,-2.3034,-2.2605,-2.4023,-2.5527,-2.6357,-2.5781,-2.6074,-2.8076,-2.7959,-2.7539,-2.7119,-2.7432,-2.7366,-2.6455,-2.7209,-2.6955,-2.5272,-2.6328,-2.6435,-2.5223,-2.5947,-2.6182,-2.5693,-2.5645,-2.5187,-2.4385,-2.3975,-2.3779,-2.375,-2.375,-2.3301,-2.249,-2.2041,-2.1846,-2.1816,-2.1377,-2.1455,-2.1846,-2.1826,-2.1582,-2.119,-2.1171,-2.0937,-2.0644,0.0,0.0,0.0,0.0,0.0,0.0,0.0,0.0,0.0,0.0,0.0,0.0,0.0,0.0,0.0,0.0,0.0,0.0,-0.6269,-0.6802,-0.7115,-0.7063,-0.7598,-0.7906,-0.7906,-0.7964,-0.808,-0.8227,-0.8706,-0.9047,-0.9309,-1.0031,-1.0642,-1.1123,-1.1671,-1.2182,-1.2628,-1.2967,-1.3528,-1.4074,-1.3403,-1.363,-1.4283,-1.2998,-1.2594,-1.2694,-1.2164,-1.1907,-1.1885,-1.2175,-1.2877,-1.3762,-1.4655,-1.494,-1.4988,-1.5484,-1.5884,-1.6482,-1.7925,-1.9248,-2.067,-2.2501,-2.3702,-2.4648,-2.5489,-2.5069,-2.424,-2.3242,-2.1437,-1.9943,-1.9697,-2.0597,-2.1729,-2.2746,-2.4971,-2.6816,-2.7685,-2.7881,-2.8144,-2.8691,-2.8389,-2.8096,-2.7978,-2.7783,-2.7366,-2.6455,-2.6885,-2.6846,-2.6094,-2.667,-2.6719,-2.6074,-2.6269,-2.6182,-2.5693,-2.504,-2.4482,-2.3945,-2.3838,-2.3623,-2.3257,-2.3257,-2.2974,-2.2471,-2.1678,-2.1356,-2.1367,-2.0918,-2.0996,-2.1367,-2.1035,-2.1035,-2.1151,-2.0859,-2.0703,-2.0605,0.0,0.0,0.0,0.0,0.0,0.0,0.0,0.0,0.0,0.0,0.0,0.0,0.0,0.0,0.0,0.0,0.0,0.0,0.0,-0.7691,-0.7957,-0.7854,-0.8373,-0.8661,-0.8661,-0.8777,-0.8792,-0.874,-0.9222,-0.9619,-0.9982,-1.0455,-1.1171,-1.211,-1.2122,-1.2389,-1.2817,-1.2847,-1.3002,0.0,0.0,-1.2925,-1.3445,-1.2257,-1.2274,-1.2843,-1.2203,-1.2293,-1.2717,-1.3271,-1.3886,-1.4472,-1.4882,-1.5006,-1.5153,-1.5899,-1.6235,-1.6691,-1.7898,-1.9006,-2.0264,-2.2044,-2.3157,-2.3972,-2.4711,-2.4382,-2.3439,-2.1491,-1.9726,-1.8389,-1.8147,-1.9264,-2.0605,-2.1816,-2.418,-2.6309,-2.7559,-2.7607,-2.7939,-2.9072,-2.8828,-2.8496,-2.831,-2.8252,-2.7861,-2.7012,-2.7168,-2.7031,-2.6426,-2.6611,-2.6631,-2.6396,-2.6387,-2.6084,-2.5449,-2.4756,-2.4297,-2.4062,-2.4062,-2.3935,-2.3647,-2.3506,-2.2988,-2.2207,-2.1728,-2.1299,-2.0918,-2.0713,-2.0713,-2.0918,-2.0703,-2.0723,-2.0908,-2.0693,-2.0605,-2.0605,0.0,0.0,0.0,0.0,0.0,0.0,0.0,0.0,0.0,0.0,-0.6986,-0.7231,0.0,0.0,0.0,0.0,0.0,0.0,0.0,0.0,-0.8855,-0.8764,-0.915,-0.9389,-0.9389,-0.9612,-0.9556,-0.918,-0.9647,-1.0039,-1.034,-1.0546,-1.1539,-1.3068,-1.2476,-1.2668,-1.347,-1.3208,-1.2782,-1.2288,-1.2431,-1.253,-1.2534,0.0,-1.2559,-1.3442,-1.2757,-1.3195,-1.4239,-1.5037,-1.5242,-1.5124,-1.5091,-1.5031,-1.5134,-1.6261,-1.65,-1.6699,-1.8031,-1.8751,-1.9589,-2.1724,-2.252,-2.2973,-2.3554,-2.3611,-2.2653,-1.9595,-1.8195,-1.7389,-1.7059,-1.8273,-1.9635,-2.0582,-2.2799,-2.5068,-2.6924,-2.6504,-2.6885,-2.9287,-2.9131,-2.8691,-2.833,-2.8623,-2.8486,-2.7689,-2.7679,-2.7314,-2.6514,-2.6475,-2.6396,-2.6221,-2.6211,-2.5791,-2.4949,-2.458,-2.4385,-2.4336,-2.4385,-2.4385,-2.4316,-2.3838,-2.2988,-2.1875,-2.1758,-2.1319,-2.0605,-2.0605,-2.0605,-2.0605,-2.0605,-2.0605,-2.0605,-2.0605,-2.0527,-2.044,0.0,0.0,0.0,0.0,0.0,0.0,0.0,0.0,0.0,0.0,-0.7941,-0.8095,0.0,0.0,0.0,0.0,0.0,0.0,0.0,0.0,0.0,-0.858,-0.8681,-0.8745,-0.8745,-0.8803,-0.873,-0.8553,-0.9021,-0.9183,-0.9044,-1.0023,-1.0643,-1.0958,-1.1427,-1.1567,-1.1439,-1.1763,-1.1799,-1.1713,-1.2158,-1.2627,-1.3094,-1.3157,0.0,0.0,-1.2779,-1.3485,-1.4793,-1.5182,-1.577,-1.6583,-1.782,-1.7738,-1.7188,-1.7423,-1.6976,-1.6382,-1.641,-1.7167,-1.8471,-2.0432,-2.1446,-2.2165,-2.3105,-2.258,-2.1225,-1.8855,-1.7286,-1.6309,-1.5998,-1.7075,-1.8736,-2.0922,-2.3019,-2.5273,-2.7725,-2.7646,-2.7891,-2.945,-2.8877,-2.8369,-2.8301,-2.8359,-2.8047,-2.7197,-2.7461,-2.7441,-2.6934,-2.6904,-2.6416,-2.538,-2.535,-2.493,-2.4023,-2.4277,-2.4238,-2.3906,-2.4248,-2.4238,-2.3877,-2.3096,-2.2422,-2.1846,-2.1153,0.0,-2.0605,-2.0605,-2.0605,-2.0605,-2.0605,-2.0605,-2.0605,-2.0605,-2.0128,-1.9618,0.0,0.0,0.0,0.0,0.0,0.0,0.0,-0.8878,-0.9246,-0.9316,-0.9458,-0.9484,-0.9321,-0.9379,-0.9587,0.0,0.0,0.0,0.0,0.0,0.0,0.0,0.0,0.0,-1.0266,-1.0366,-1.014,-0.9605,0.0,-1.0287,-1.0383,-1.0922,-1.1502,-1.207,-1.2041,-1.1999,-1.2,-1.2047,-1.2177,-1.2372,-1.2845,-1.3463,-1.407,0.0,0.0,0.0,-1.3786,-1.429,-1.5158,-1.5463,-1.6484,-1.7786,-1.8513,-1.849,-1.8099,-1.7786,-1.7442,-1.7012,-1.6573,-1.7209,-1.8451,-2.0397,-2.1454,-2.2063,-2.2142,-2.1719,-2.0533,-1.775,-1.6475,-1.5836,-1.5733,-1.6446,-1.7811,-1.9989,-2.2513,-2.491,-2.7009,-2.7891,-2.8633,-2.9528,-2.9209,-2.8867,-2.8643,-2.8418,-2.8037,-2.7402,-2.7334,-2.7236,-2.7021,-2.6807,-2.6191,-2.5145,-2.5116,-2.4705,-2.3799,-2.4209,-2.4316,-2.4121,-2.4316,-2.4307,-2.4082,-2.3242,-2.25,-2.1846,-2.1191,-2.0908,-2.0898,-2.0703,-2.0703,-2.0889,-2.0693,-2.0605,-2.0605,-2.0605,-2.0323,-2.005,0.0,0.0,0.0,0.0,0.0,0.0,-0.9287,-0.9824,-1.0264,-1.0392,-1.0958,-1.1019,-1.0128,-1.0368,-1.0709,0.0,0.0,0.0,0.0,0.0,0.0,0.0,0.0,0.0,0.0,0.0,0.0,-1.1429,-1.1526,0.0,0.0,0.0,0.0,0.0,-1.293,-1.2765,-1.289,-1.2776,-1.2932,0.0,0.0,-1.441,0.0,0.0,0.0,0.0,0.0,-1.5004,-1.5419,-1.5711,-1.6828,-1.8136,-1.8158,-1.8429,-1.8559,-1.7647,-1.7461,-1.7396,-1.6952,-1.7552,-1.8701,-2.0332,-2.1476,-2.1919,-2.0935,-2.0934,-2.0159,-1.6983,-1.6115,-1.5886,-1.5745,-1.603,-1.6865,-1.8504,-2.1078,-2.3608,-2.572,-2.7289,-2.8574,-2.9463,-2.9482,-2.9258,-2.8828,-2.8408,-2.7988,-2.7559,-2.7129,-2.6875,-2.6875,-2.6484,-2.584,-2.4998,-2.5067,-2.4705,-2.3799,-2.4297,-2.4512,-2.4414,-2.4414,-2.4365,-2.4248,-2.331,-2.2572,-2.1865,-2.1385,-2.1142,-2.1034,-2.081,-2.0859,-2.1055,-2.0703,-2.0605,-2.0605,-2.0605,-2.0479,-2.0372,0.0,0.0,0.0,0.0,0.0,0.0,-0.9536,-1.0337,-1.0974,-1.1102,-1.19,-1.2364,-1.2053,-1.1956,-1.2207,0.0,0.0,0.0,0.0,0.0,0.0,0.0,0.0,0.0,0.0,0.0,0.0,-1.3781,-1.2916,0.0,0.0,0.0,0.0,0.0,0.0,-1.3041,-1.2577,-1.3224,0.0,0.0,0.0,0.0,0.0,0.0,0.0,0.0,0.0,-1.5126,-1.5674,-1.577,-1.626,-1.6908,-1.7081,-1.8099,-1.8838,-1.6917,-1.6458,-1.6612,-1.6462,-1.7368,-1.852,-1.9355,-2.0678,-2.1328,-1.9584,-1.994,-1.9893,-1.7216,-1.6717,-1.6585,-1.5842,-1.5725,-1.5996,-1.6651,-1.8171,-2.0569,-2.4236,-2.5466,-2.6914,-2.9287,-2.9219,-2.8809,-2.8389,-2.7969,-2.7549,-2.7109,-2.6689,-2.6445,-2.6445,-2.6035,-2.5343,-2.4502,-2.4863,-2.4705,-2.3799,-2.46,-2.4805,-2.4414,-2.4414,-2.4219,-2.3809,-2.2568,-2.1963,-2.1865,-2.1385,-2.1006,0.0,-2.1025,-2.0957,-2.0664,-2.0615,-2.0605,-2.0605,-2.0605,-2.0089,-1.9539,0.0,0.0,0.0,0.0,0.0,0.0,-1.089,-1.1517,-1.1995,-1.2049,-1.3011,-1.3396,-1.268,-1.3538,-1.3989,-1.3608,0.0,0.0,0.0,0.0,0.0,0.0,0.0,0.0,0.0,0.0,-1.4614,-1.4037,-1.4169,0.0,0.0,0.0,0.0,0.0,0.0,-1.4048,-1.3436,-1.4028,0.0,0.0,0.0,0.0,0.0,0.0,0.0,0.0,0.0,0.0,-1.5346,-1.5643,-1.6166,-1.6573,-1.5741,-1.6889,-1.8267,-1.6913,-1.7025,-1.7516,-1.7318,-1.8064,-1.9252,-2.0616,-2.0597,-2.0168,-1.977,-1.9255,-1.8379,-1.6741,-1.668,-1.6793,-1.6481,-1.5666,-1.5248,-1.5905,-1.703,-1.8609,-2.0792,-2.3373,-2.5667,-2.7479,-2.8662,-2.9248,-2.9082,-2.8447,-2.7539,-2.6288,-2.6094,-2.5879,-2.5605,-2.543,-2.5049,-2.4434,-2.458,-2.4394,-2.3799,-2.4375,-2.4717,-2.4805,-2.4014,-2.3691,-2.374,-2.2197,-2.1494,-2.1484,-2.1268,-2.1279,0.0,-2.1269,-2.1279,-2.1349,-2.0811,-2.0605,-2.0605,-2.0605,-2.0372,-2.0128,0.0,0.0,0.0,0.0,0.0,-1.1489,-1.174,-1.2449,-1.2959,-1.3013,-1.3969,-1.4426,-1.3736,-1.4671,-1.5161,-1.4673,-1.4954,0.0,0.0,0.0,0.0,0.0,0.0,0.0,0.0,0.0,-1.5717,-1.5008,-1.5455,-1.5832,0.0,0.0,-1.5734,-1.5449,0.0,0.0,0.0,0.0,0.0,0.0,0.0,0.0,0.0,0.0,0.0,0.0,0.0,0.0,0.0,0.0,0.0,-1.6108,-1.4893,-1.5756,-1.7106,-1.638,-1.7196,-1.8304,-1.8022,-1.8737,-1.9909,-2.1287,-2.0538,-1.9424,-1.9327,-1.8438,-1.7335,-1.6309,-1.6529,-1.6828,-1.6585,-1.5842,-1.5242,-1.5073,-1.6009,-1.7146,-1.831,-2.1105,-2.3719,-2.5452,-2.6984,-2.8072,-2.8603,-2.8086,-2.7178,-2.5791,-2.5693,-2.5537,-2.5135,-2.4988,-2.4736,-2.4424,-2.4414,-2.4336,-2.417,-2.4336,-2.457,-2.4863,-2.3701,-2.3242,-2.3359,-2.1863,-2.119,-2.119,-2.119,-2.1338,0.0,-2.1309,-2.1338,-2.1435,-2.085,-2.0605,-2.0605,-2.0605,-2.0605,-2.0605,0.0,0.0,0.0,0.0,0.0,0.0,-1.1703,-1.2893,-1.3834,-1.3978,-1.4755,-1.5382,-1.5639,-1.5262,-1.5432,-1.6475,-1.6956,0.0,0.0,0.0,0.0,0.0,0.0,0.0,0.0,0.0,-1.7369,-1.7358,-1.6839,-1.7088,-1.8038,-1.6587,-1.6042,-1.6241,0.0,0.0,0.0,0.0,0.0,0.0,0.0,0.0,0.0,0.0,0.0,0.0,0.0,0.0,0.0,0.0,0.0,0.0,0.0,-1.4922,-1.5356,-1.5022,-1.6603,-1.8473,-1.8341,-1.9228,-2.0281,-2.0627,-2.0263,-1.9381,-1.7795,-1.7477,-1.7182,-1.6058,-1.6379,-1.6655,-1.5851,-1.6341,-1.6132,-1.3884,-1.4776,-1.6164,-1.7524,-1.8727,-2.0545,-2.35,-2.3855,-2.453,-2.6288,-2.6416,-2.6221,-2.5723,-2.5693,-2.5537,-2.5135,-2.4658,-2.4424,-2.4414,-2.4414,-2.4619,-2.5096,-2.4629,-2.4414,-2.4414,-2.3564,-2.2939,-2.249,-2.159,-2.119,-2.119,-2.119,-2.0986,0.0,-2.1055,-2.0977,-2.0615,-2.0605,-2.0605,-2.0605,-2.0605,-2.0605,-2.0605,0.0,0.0,0.0,0.0,0.0,0.0,-1.2552,-1.3662,-1.4573,-1.4857,-1.5887,-1.6358,-1.5762,-1.6559,-1.6979,-1.662,-1.6714,0.0,0.0,0.0,0.0,0.0,0.0,0.0,0.0,-1.7407,-1.7407,-1.7407,-1.7538,-1.7802,-1.8088,-1.7301,-1.6782,-1.6475,-1.6143,-1.5681,0.0,0.0,0.0,0.0,0.0,0.0,-1.5908,0.0,0.0,0.0,0.0,0.0,0.0,0.0,0.0,0.0,0.0,0.0,0.0,-1.5254,-1.5791,-1.6416,-1.6611,-1.6778,-1.7106,-1.7971,-1.6806,-1.561,-1.6071,-1.5891,-1.561,-1.5504,-1.6649,-1.7579,-1.7329,-1.6629,-1.5851,-1.5108,-1.4751,-1.4781,-1.5406,-1.8253,-2.094,-2.2702,-2.5488,-2.7381,-2.7685,-2.7158,-2.6641,-2.6211,-2.5908,-2.5537,-2.5135,-2.4941,-2.4727,-2.4424,-2.3803,-2.3887,-2.4619,-2.4199,-2.4131,-2.4404,-2.3262,-2.2646,-2.2471,-2.1309,-2.0781,-2.081,-2.1416,-2.1426,-2.1055,-2.1494,-2.1416,-2.0996,-2.0723,-2.0605,-2.0605,-2.0605,-2.0605,-2.0605,0.0,0.0,0.0,0.0,0.0,0.0,-1.3453,-1.4645,-1.5537,-1.575,-1.6673,-1.7087,-1.6651,-1.733,-1.7581,-1.6961,-1.7053,0.0,0.0,0.0,0.0,0.0,0.0,0.0,-1.7105,-1.7473,-1.7576,-1.7407,-1.7859,-1.8084,-1.81,-1.7622,-1.7209,-1.6899,-1.6679,-1.6341,0.0,0.0,0.0,0.0,0.0,0.0,-1.567,0.0,0.0,0.0,0.0,0.0,0.0,0.0,0.0,0.0,0.0,0.0,0.0,0.0,-1.525,-1.5273,-1.6212,-1.605,-1.5892,-1.7183,-1.5589,-1.3994,-1.5082,-1.5025,-1.4834,-1.5213,-1.6528,-1.7579,-1.7579,-1.6802,-1.5948,-1.5384,-1.4801,-1.4706,-1.5578,-1.8056,-2.0482,-2.2488,-2.5799,-2.7793,-2.7373,-2.7139,-2.6777,-2.6182,-2.5732,-2.5225,-2.4619,-2.4736,-2.4697,-2.4424,-2.3851,-2.3955,-2.4658,-2.4082,-2.3838,-2.3935,-2.2812,-2.2187,-2.196,-2.1191,-2.0723,-2.0654,-2.1504,-2.1543,0.0,-2.1455,-2.1377,-2.0957,-2.0713,-2.0605,-2.0605,-2.0605,-2.0605,-2.0605,0.0,0.0,0.0,0.0,0.0,0.0,0.0,-1.5711,-1.6651,-1.6592,-1.7074,-1.7576,-1.8054,-1.7679,-1.7407,-1.7407,-1.779,0.0,0.0,0.0,0.0,0.0,0.0,0.0,-1.6742,-1.7599,-1.7875,-1.7505,-1.7909,-1.8084,-1.81,-1.7622,-1.7407,-1.7384,-1.6887,-1.6653,0.0,0.0,0.0,0.0,0.0,0.0,0.0,0.0,0.0,0.0,0.0,0.0,0.0,0.0,0.0,0.0,0.0,0.0,0.0,0.0,0.0,0.0,0.0,-1.6518,-1.6084,-1.7605,-1.5946,-1.4103,-1.4676,-1.4697,0.0,-1.5211,-1.6122,-1.6892,-1.6929,-1.6895,-1.6366,-1.4914,-1.494,-1.5695,-1.7416,-1.8212,-1.98,-2.287,-2.5168,-2.625,-2.5615,-2.6426,-2.6621,-2.5703,-2.5303,-2.4707,-2.3877,-2.4209,-2.4434,-2.4463,-2.4463,-2.4639,-2.5067,-2.4199,-2.3564,-2.3149,-2.2285,-2.167,-2.1239,-2.121,-2.1025,-2.0752,-2.1603,-2.1435,-2.0683,-2.1094,-2.0996,-2.0605,-2.0605,-2.0605,-2.0605,-2.0605,-2.0605,-2.0605,0.0,0.0,0.0,0.0,0.0,0.0,0.0,0.0,0.0,0.0,-1.7088,-1.7576,-1.8054,-1.7679,-1.7407,0.0,0.0,0.0,0.0,0.0,0.0,0.0,0.0,0.0,-1.8051,-1.7728,-1.785,-1.8475,-1.8217,-1.8084,-1.81,-1.7622,-1.7407,-1.7396,-1.7281,-1.7153,0.0,0.0,0.0,0.0,0.0,0.0,0.0,0.0,0.0,0.0,-1.4847,-1.4954,0.0,0.0,0.0,0.0,0.0,0.0,0.0,0.0,-1.4725,-1.4712,-1.5612,0.0,-1.4138,-1.4522,-1.4133,-1.3641,0.0,-1.4425,-1.5011,-1.5133,-1.6,-1.686,-1.7229,-1.6792,-1.6156,-1.5553,-1.5267,-1.5569,-1.696,-2.0513,-2.3386,-2.4515,-2.6267,-2.6593,-2.4453,-2.5635,-2.6172,-2.5293,-2.5127,-2.4834,-2.4297,-2.4365,-2.457,-2.4902,-2.4959,-2.4805,-2.457,-2.4053,-2.3418,-2.2656,-2.2139,-2.1836,-2.1719,-2.1346,-2.1357,-2.1602,-2.2139,-2.1875,-2.1073,-2.1553,-2.1269,-2.0605,-2.0605,-2.0605,-2.0605,-2.0605,-2.0605,-2.0605,0.0,0.0,0.0,0.0,0.0,0.0,0.0,0.0,0.0,0.0,-1.6839,-1.714,-1.7389,-1.7197,-1.6959,0.0,0.0,0.0,0.0,0.0,0.0,0.0,0.0,-1.7854,-1.8522,-1.8118,-1.8199,-1.8798,-1.8556,-1.841,-1.841,-1.8157,-1.8055,-1.8017,-1.7805,-1.7686,-1.7595,-1.7263,0.0,0.0,-1.5474,0.0,0.0,0.0,0.0,0.0,-1.4511,-1.4625,0.0,-1.4641,-1.456,-1.4407,0.0,0.0,0.0,0.0,-1.5003,-1.4971,-1.5323,-1.446,-1.3563,-1.3872,-1.3722,-1.3463,-1.3316,-1.3967,-1.4613,-1.4481,-1.5316,-1.6225,-1.6845,-1.6906,-1.6669,-1.6028,-1.6741,-1.7745,-1.8775,-2.1463,-2.3607,-2.4393,-2.5528,-2.5781,-2.4785,-2.5537,-2.5723,-2.4834,-2.4775,-2.4492,-2.3822,-2.4023,-2.4326,-2.4756,-2.5008,-2.4998,-2.4717,-2.4492,-2.3848,-2.2812,-2.2383,-2.1973,-2.1582,-2.1553,-2.1445,-2.1368,-2.2148,-2.1904,-2.0967,-2.1406,-2.1182,-2.0605,-2.0605,-2.0605,-2.0605,-2.0605,-2.0605,-2.0605,0.0,0.0,0.0,0.0,0.0,0.0,0.0,0.0,0.0,0.0,0.0,0.0,0.0,0.0,0.0,0.0,0.0,0.0,0.0,0.0,0.0,0.0,-1.7837,-1.8216,-1.8759,-1.8683,-1.8762,-1.8972,-1.8919,-1.8905,-1.8905,-1.8905,-1.8851,-1.8771,-1.8383,-1.8139,-1.7995,-1.7231,-1.672,-1.6308,-1.5249,0.0,0.0,0.0,0.0,0.0,0.0,0.0,0.0,-1.4069,-1.4255,-1.4449,-1.4228,0.0,0.0,0.0,0.0,0.0,-1.541,-1.4701,-1.4073,-1.4526,-1.4142,-1.3588,-1.3303,-1.362,-1.3941,-1.3729,-1.4388,-1.5361,-1.6386,-1.6991,-1.713,-1.659,-1.8536,-2.0447,-2.1479,-2.2245,-2.2933,-2.3645,-2.4257,-2.4736,-2.4972,-2.5294,-2.5099,-2.4199,-2.4248,-2.3945,-2.3042,-2.3516,-2.3955,-2.4307,-2.4746,-2.4971,-2.4971,-2.5077,-2.447,-2.3208,-2.2793,-2.2146,-2.1405,-2.1816,-2.1611,-2.1055,-2.206,0.0,-2.083,-2.1103,-2.0967,-2.0605,-2.0605,-2.0605,-2.0605,-2.0605,-2.0605,-2.0605,0.0,0.0,0.0,0.0,0.0,0.0,0.0,0.0,0.0,0.0,0.0,0.0,0.0,0.0,0.0,0.0,0.0,0.0,0.0,0.0,0.0,-1.8942,-1.9094,-1.9296,-1.9607,-1.9383,-1.9452,-1.9824,-1.946,-1.9316,-1.9316,-1.9316,-1.9143,-1.8798,-1.8718,-1.834,-1.7733,-1.7151,-1.6378,-1.5577,-1.5376,0.0,0.0,0.0,0.0,0.0,0.0,0.0,0.0,-1.4435,-1.4368,-1.4042,-1.4281,0.0,0.0,0.0,0.0,0.0,-1.541,-1.5806,-1.6069,-1.5419,-1.4795,-1.4339,-1.4273,-1.3921,-1.3583,-1.3551,-1.3663,-1.4542,-1.706,-1.6412,-1.6019,-1.7618,-1.9139,-2.0908,-2.322,-2.4812,-2.513,-2.3473,-2.4594,-2.4534,-2.2116,-2.351,-2.4121,-2.29,-2.3477,-2.3516,-2.2656,-2.3359,-2.3818,-2.3887,-2.4297,-2.4521,-2.4521,-2.4883,-2.447,-2.3208,-2.3086,-2.275,-2.2324,-2.2383,-2.2539,-2.2691,0.0,-2.2197,-2.166,-2.1317,-2.0967,-2.0605,-2.0605,-2.0605,-2.0605,-2.0605,-2.0605,-2.0605,0.0,0.0,0.0,0.0,0.0,0.0,0.0,0.0,0.0,0.0,0.0,0.0,0.0,0.0,0.0,0.0,0.0,0.0,0.0,0.0,-1.8655,-1.9544,-1.9913,-2.0155,-2.027,-1.9848,-1.975,-1.9991,-1.9798,-1.9734,-1.9734,-1.9734,-1.95,-1.9105,-1.8905,-1.8476,-1.7886,-1.7376,-1.658,-1.5661,0.0,0.0,0.0,0.0,0.0,0.0,0.0,0.0,0.0,0.0,-1.4566,-1.4319,-1.4636,0.0,0.0,0.0,0.0,0.0,-1.5001,-1.5435,-1.5944,-1.5687,-1.6027,-1.6168,-1.534,-1.4915,-1.4369,-1.3204,-1.3088,-1.378,-1.5664,-1.6225,-1.7288,-2.0052,-1.9954,-2.0241,-2.2334,-2.2843,-2.2888,-2.2549,-2.3171,-2.3291,-2.2311,-2.3164,-2.3496,-2.2847,-2.3008,-2.3027,-2.2818,-2.3008,-2.331,-2.3779,-2.3975,-2.4189,-2.4414,-2.4619,-2.4307,-2.3496,-2.3252,-2.2877,-2.251,-2.2275,-2.2148,-2.2058,0.0,-2.1572,-2.1212,-2.1221,-2.0967,-2.0625,-2.083,-2.0781,-2.0605,-2.0605,-2.0605,-2.0605,0.0,0.0,0.0,0.0,0.0,0.0,0.0,0.0,0.0,0.0,0.0,0.0,0.0,0.0,0.0,0.0,0.0,0.0,0.0,-1.862,-1.9381,-1.9969,-2.0438,-2.0699,-2.0699,-2.0255,-2.0057,-2.0156,-2.0156,-2.0156,-2.0156,-2.0156,-1.9939,-1.9539,-1.9225,-1.8839,-1.8363,-1.7748,-1.7037,-1.6276,0.0,0.0,0.0,0.0,0.0,0.0,0.0,0.0,0.0,0.0,0.0,0.0,0.0,0.0,0.0,-1.5312,-1.5294,-1.5089,-1.4617,-1.4876,-1.5317,-1.5505,-1.6263,-1.6725,-1.5878,-1.5361,-1.4668,-1.3172,-1.3126,-1.3716,-1.4949,-1.6565,-1.855,-2.1052,-2.0151,-1.9706,-2.1435,-2.1167,-2.1077,-2.1909,-2.2188,-2.251,-2.2906,-2.3008,-2.2969,-2.2808,-2.2637,-2.2613,-2.2925,-2.2871,-2.3066,-2.3623,-2.374,-2.3896,-2.4066,-2.4121,-2.4014,-2.3789,-2.3457,-2.3066,-2.2646,-2.2324,-2.2002,-2.1629,-2.1541,-2.1289,-2.0938,-2.124,-2.1123,-2.0762,-2.1211,-2.1182,-2.0899,-2.0801,-2.0723,-2.0742,0.0,0.0,0.0,0.0,0.0,0.0,0.0,0.0,0.0,0.0,0.0,0.0,0.0,0.0,0.0,0.0,0.0,0.0,0.0,-1.9384,-1.9995,-2.062,-2.0686,-2.0699,-2.0699,-2.0673,-2.0635,-2.0649,-2.0649,-2.0649,-2.0649,-2.0649,-2.041,-1.9965,-1.9914,-1.9708,-1.9254,-1.8215,-1.7675,-1.7421,-1.6593,0.0,0.0,0.0,0.0,0.0,0.0,0.0,0.0,0.0,0.0,0.0,0.0,0.0,-1.5371,-1.54,-1.5001,-1.4558,-1.4499,-1.467,-1.4848,-1.4876,-1.4334,-1.4158,-1.5394,-1.4398,-1.3341,-1.38,-1.4174,-1.4898,-1.6517,-1.7683,-1.8435,-1.8493,-1.8975,-2.0035,-2.1896,-2.2533,-2.2658,-2.2327,-2.3079,-2.3369,-2.2627,-2.2559,-2.2402,-2.2002,-2.2305,-2.2519,-2.2559,-2.3281,-2.3545,-2.3149,-2.3574,-2.3613,-2.3188,-2.3188,-2.3418,-2.3789,-2.376,-2.3516,-2.3052,-2.3023,-2.2984,-2.2935,-2.2588,-2.2178,-2.1797,-2.1826,-2.1582,-2.119,-2.167,-2.1816,-2.1738,-2.1338,-2.1142,-2.1083,0.0,0.0,0.0,0.0,0.0,0.0,0.0,0.0,0.0,0.0,0.0,0.0,0.0,0.0,0.0,0.0,0.0,0.0,0.0,-1.9682,-2.0061,-2.0673,-2.0699,-2.0699,-2.0699,-2.0699,-2.0699,-2.0699,-2.0699,-2.0699,-2.0699,-2.0699,-2.046,-1.9991,-1.9991,-1.9773,-1.937,-1.8965,-1.8339,-1.7566,-1.7391,-1.6822,0.0,0.0,0.0,0.0,0.0,0.0,0.0,0.0,-1.5257,-1.5413,-1.5584,-1.5533,-1.541,-1.541,-1.4971,-1.441,-1.3983,-1.4247,-1.4534,-1.4238,-1.3827,-1.3924,-1.5622,-1.5483,-1.4782,-1.4125,-1.456,-1.5194,-1.563,-1.7181,-1.8168,-1.7507,-1.8856,-2.0216,-2.0703,-2.1298,-2.1756,-2.1925,-2.2024,-2.214,-2.2136,-2.1875,-2.1768,-2.1875,-2.1777,-2.1953,-2.248,-2.2822,-2.3037,-2.3091,-2.3257,-2.3257,-2.3091,-2.3091,-2.3179,-2.3344,-2.3344,-2.3257,-2.3081,-2.2828,-2.2711,-2.2682,-2.2305,-2.2031,-2.1885,-2.1885,-2.1787,-2.1631,-2.1523,-2.1309,-2.1085,-2.0879,-2.082,-2.0791,0.0,0.0,0.0,0.0,0.0,0.0,0.0,0.0,0.0,0.0,0.0,0.0,0.0,0.0,0.0,0.0,0.0,0.0,-1.9512,-1.9695,-1.9969,-2.0399,-2.0412,-2.0504,-2.0699,-2.0699,-2.0699,-2.0699,-2.0699,-2.0699,-2.0699,-2.0699,-2.0536,-2.0207,-2.0207,-2.0067,-1.9798,-1.9597,-1.9053,-1.8279,-1.814,-1.7492,0.0,0.0,0.0,0.0,0.0,0.0,0.0,0.0,-1.5552,-1.5674,-1.5674,-1.5553,-1.541,-1.541,-1.5161,-1.4815,-1.4356,-1.4247,-1.4239,-1.4134,-1.3642,-1.365,-1.5397,-1.5699,-1.5504,-1.4894,-1.5189,-1.544,-1.5119,-1.6521,-1.7406,-1.6587,-1.8123,-1.9313,-1.9011,-1.9589,-2.0352,-2.0998,-2.1198,-2.1435,-2.1851,-2.1611,-2.1504,-2.167,-2.1533,-2.1758,-2.2471,-2.2637,-2.2799,-2.3081,-2.3091,-2.3091,-2.3091,-2.3091,-2.3091,-2.3091,-2.3091,-2.3091,-2.3081,-2.2799,-2.2672,-2.2652,-2.2402,-2.2207,-2.21,-2.2227,-2.2275,-2.2236,-2.1807,-2.1455,-2.1192,-2.0879,-2.0781,-2.0752,0.0,0.0,0.0,0.0,0.0,0.0,0.0,0.0,0.0,0.0,0.0,0.0,0.0,0.0,0.0,0.0,0.0,0.0,-1.8937,-1.9473,-1.9799,-1.9799,-1.9812,-2.0074,-2.0699,-2.0699,-2.0699,-2.0699,-2.0699,-2.0699,-2.0699,-2.0699,-2.0699,-2.0699,-2.0699,-2.0699,-2.0673,-2.0048,-1.9794,-1.9722,-1.8856,-1.8197,-1.7667,0.0,0.0,0.0,0.0,0.0,0.0,0.0,-1.5103,-1.5195,-1.5195,-1.5315,-1.541,-1.541,-1.5581,-1.578,-1.578,-1.482,-1.3961,-1.4627,-1.3666,-1.2958,-1.4528,-1.4699,-1.4878,-1.6154,-1.6126,-1.5811,-1.5447,-1.5943,-1.6162,-1.5484,-1.6447,-1.7208,-1.6939,-1.7688,-1.8657,-1.9675,-2.0899,-2.1733,-2.187,-2.1885,-2.1709,-2.1239,-2.1641,-2.207,-2.249,-2.2867,-2.3091,-2.3091,-2.3091,-2.3091,-2.3091,-2.3091,-2.3091,-2.3091,-2.3091,-2.3091,-2.3091,-2.3091,-2.3091,-2.3091,-2.3091,-2.2857,-2.2549,-2.2916,-2.3081,-2.3033,-2.2666,-2.25,-2.2393,-2.1512,-2.119,-2.1122,0.0,0.0,0.0,0.0,0.0,0.0,0.0,0.0,0.0,0.0,0.0,0.0,0.0,0.0,0.0,0.0,0.0,0.0,-1.8937,-1.9473,-1.9799,-1.9799,-2.0216,-2.0504,-2.0699,-2.0699,-2.0699,-2.0699,-2.0699,-2.0699,-2.0699,-2.0699,-2.0699,-2.0699,-2.0699,-2.0699,-2.0699,-2.0504,-2.0255,-1.9901,-1.9444,-1.8701,-1.7815,0.0,0.0,0.0,0.0,0.0,0.0,0.0,0.0,0.0,-1.5713,-1.565,-1.5575,-1.5449,-1.4805,-1.4175,-1.4175,-1.4329,-1.4287,-1.3389,-1.3976,-1.4726,-1.465,-1.4587,-1.4914,-1.6188,-1.5799,-1.5228,-1.536,-1.5943,-1.6089,-1.5185,-1.5972,-1.6623,-1.6573,-1.6773,-1.7205,-1.79,-1.9092,-2.0036,-2.0456,-2.1361,-2.1836,-2.1699,-2.209,-2.2383,-2.251,-2.2867,-2.3091,-2.3091,-2.3091,-2.3091,-2.3091,-2.3091,-2.3091,-2.3091,-2.3091,-2.3091,-2.3091,-2.3091,-2.3091,-2.3091,-2.3091,-2.3023,-2.2896,-2.2773,-2.2301,-2.1775,-2.2002,-2.1689,-2.1192,-2.1171,-2.1035,-2.0742,0.0,0.0,0.0,0.0,0.0,0.0,0.0,0.0,0.0,0.0,0.0,0.0,0.0,0.0,0.0,0.0,0.0,0.0,0.0,-1.9473,-1.9695,-1.946,-2.0033,-2.0438,-2.0699,-2.0699,-2.0699,-2.0699,-2.0699,-2.0699,-2.0712,-2.0909,-2.1027,-2.1027,-2.1027,-2.1027,-2.1001,-2.0804,-2.0524,-2.0195,-2.0029,-1.9357,-1.8375,0.0,0.0,0.0,0.0,0.0,0.0,0.0,0.0,0.0,-1.5943,-1.5798,-1.5742,-1.587,-1.5383,-1.4938,-1.5605,-1.5735,-1.5513,-1.4856,-1.5199,-1.5528,-1.4899,-1.4931,-1.5374,-1.6261,-1.5828,-1.5345,-1.5542,-1.5935,-1.6001,-1.5382,-1.5811,-1.6235,-1.6397,-1.6309,-1.6503,-1.7352,-1.842,-1.9364,-2.0113,-2.1215,-2.1885,-2.1885,-2.2275,-2.251,-2.251,-2.2867,-2.3091,-2.3091,-2.3091,-2.3091,-2.3091,-2.3091,-2.3091,-2.3091,-2.3091,-2.3091,-2.3091,-2.3091,-2.3091,-2.3091,-2.3091,-2.3003,-2.2828,-2.2617,-2.2109,-2.1504,-2.1592,-2.1299,-2.084,-2.0937,-2.0801,-2.0605,0.0,0.0,0.0,0.0,0.0,0.0,0.0,0.0,0.0,0.0,0.0,0.0,0.0,0.0,0.0,0.0,0.0,0.0,0.0,-1.9496,-1.9575,-1.9015,-1.9564,-2.0151,-2.0699,-2.0699,-2.0699,-2.0699,-2.0699,-2.0699,-2.0712,-2.125,-2.1511,-2.1511,-2.1511,-2.1511,-2.1446,-2.0923,-2.0637,-2.0511,-2.0511,-2.0003,-1.9226,-1.9226,0.0,0.0,0.0,0.0,0.0,0.0,0.0,0.0,-1.5943,-1.5827,-1.5831,-1.6418,-1.6607,-1.6973,-1.8562,-1.8019,-1.7125,-1.767,-1.6719,-1.556,-1.5202,-1.5488,-1.5957,-1.6265,-1.6082,-1.5877,-1.5913,-1.5849,-1.5827,-1.587,-1.5827,-1.5922,-1.6243,-1.6045,-1.6266,-1.7439,-1.84,-1.9332,-2.0358,-2.1313,-2.187,-2.2002,-2.2353,-2.2568,-2.2568,-2.2886,-2.3091,-2.3091,-2.3091,-2.3091,-2.3091,-2.3091,-2.3091,-2.3091,-2.3091,-2.3091,-2.3091,-2.3091,-2.3091,-2.3091,-2.3052,-2.2818,-2.251,-2.2422,-2.2168,-2.1787,-2.1387,-2.1171,-2.1093,-2.0762,-2.0635,-2.0605,0.0,0.0,0.0,0.0,0.0,0.0,0.0,0.0,0.0,0.0,0.0,0.0,0.0,0.0,0.0,0.0,0.0,0.0,0.0,-1.9671,-1.9948,-1.9616,-2.019,-2.0581,-2.0699,-2.0699,-2.0699,-2.0699,-2.0699,-2.0699,-2.0712,-2.125,-2.1511,-2.1511,-2.1511,-2.1511,-2.1446,-2.0923,-2.0687,-2.0662,-2.0662,-2.0118,-1.9345,-1.9345,-1.8765,0.0,0.0,0.0,0.0,0.0,0.0,0.0,-1.6,-1.5885,-1.5828,-1.5704,-1.5835,-1.6075,-1.6464,-1.6772,-1.6882,-1.6333,-1.5832,-1.5446,-1.5352,-1.544,-1.5544,-1.5727,-1.5625,-1.5571,-1.587,-1.5581,-1.5316,-1.5491,-1.5365,-1.5337,-1.5579,-1.5535,-1.5597,-1.5866,-1.6957,-1.8194,-1.9476,-2.0641,-2.1755,-2.2755,-2.2906,-2.2955,-2.2955,-2.3042,-2.3091,-2.3091,-2.3091,-2.3091,-2.3091,-2.3091,-2.3091,-2.3091,-2.3091,-2.3091,-2.3091,-2.3091,-2.3091,-2.3081,-2.275,-2.2598,-2.2461,-2.1746,-2.1414,-2.1327,-2.1229,-2.1016,-2.0781,-2.0996,-2.0869,-2.0605,0.0,0.0,0.0,0.0,0.0,0.0,0.0,0.0,0.0,0.0,0.0,0.0,0.0,0.0,0.0,0.0,0.0,0.0,0.0,0.0,-1.9811,-1.9381,-2.0216,-2.0543,-2.0281,-2.0543,-2.0699,-2.0699,-2.0699,-2.0818,-2.1106,-2.1642,-2.193,-2.1943,-2.193,-2.176,-2.1446,-2.0923,-2.0699,-2.0699,-2.0699,-2.0334,-1.9773,-1.9773,-1.9253,-1.8483,-1.8174,0.0,0.0,0.0,0.0,0.0,0.0,0.0,-1.5936,-1.6098,-1.5903,-1.5882,-1.713,-1.7472,-1.7388,-1.6909,-1.6081,-1.5389,-1.5389,-1.5389,-1.5433,-1.5474,-1.5464,-1.544,-1.5608,-1.5414,-1.5257,-1.5389,-1.5305,-1.5356,-1.56,-1.5484,-1.5447,-1.56,-1.6434,-1.762,-1.9144,-2.0285,-2.1536,-2.2999,-2.3091,-2.3091,-2.3091,-2.3091,-2.3091,-2.3091,-2.3091,-2.3091,-2.3091,-2.3091,-2.3091,-2.3091,-2.3091,-2.3091,-2.3091,-2.3091,-2.2984,-2.2779,-2.2607,-2.2275,-2.1824,-2.1385,-2.1103,-2.0918,-2.0918,-2.0898,-2.0889,-2.0908,-2.0898,-2.0859,0.0,0.0,0.0,0.0,0.0,0.0,0.0,0.0,0.0,0.0,0.0,0.0,0.0,0.0,0.0,0.0,0.0,0.0,0.0,0.0,0.0,-1.8924,-1.9863,-2.0203,-1.9812,-2.0294,-2.0607,-2.0699,-2.0779,-2.1132,-2.1681,-2.2166,-2.2401,-2.24,-2.2401,-2.2061,-2.1446,-2.0897,-2.0687,-2.0662,-2.0624,-2.0423,-2.0182,-2.0182,-1.9746,-1.9119,-1.904,-1.8348,-1.7479,-1.7285,0.0,0.0,0.0,0.0,-1.6026,-1.6596,-1.6246,-1.6113,-1.8262,-1.8325,-1.7771,-1.7773,-1.6591,-1.5389,-1.5389,-1.5389,-1.5389,-1.5389,-1.5389,-1.5389,-1.5389,-1.5389,-1.5347,-1.5389,-1.5389,-1.5442,-1.5754,-1.5557,-1.5491,-1.5796,-1.6357,-1.7383,-1.9127,-2.0105,-2.1311,-2.2989,-2.3091,-2.3091,-2.3091,-2.3091,-2.3091,-2.3091,-2.3091,-2.3091,-2.3091,-2.3091,-2.3091,-2.3091,-2.3091,-2.3091,-2.3091,-2.3023,-2.2799,-2.251,-2.2353,-2.1853,-2.119,-2.1112,-2.0898,-2.0605,-2.0605,-2.0791,-2.1074,-2.0703,-2.0801,-2.1064,0.0,0.0,0.0,0.0,0.0,0.0,0.0,0.0,0.0,0.0,0.0,0.0,0.0,0.0,0.0,0.0,0.0,0.0,0.0,0.0,0.0,-1.8911,-1.9054,-1.9355,-1.9799,-1.9878,-2.019,-2.0699,-2.1184,-2.1707,-2.2296,-2.2362,-2.2388,-2.2388,-2.2388,-2.2061,-2.1446,-2.0809,-2.0537,-2.0511,-2.0347,-2.0156,-2.0042,-2.0042,-1.9901,-1.963,-1.9172,-1.8907,-1.8602,-1.7562,-1.7146,0.0,0.0,0.0,-1.5905,-1.5879,-1.6186,-1.6599,-1.6941,-1.6945,-1.686,-1.6863,-1.6147,-1.5389,-1.5389,-1.5389,-1.5389,-1.5389,-1.5389,-1.5389,-1.5389,-1.5264,-1.5215,-1.5389,-1.5257,-1.5229,-1.5447,-1.5418,-1.5403,-1.5447,-1.6211,-1.7383,-1.9127,-2.0105,-2.1311,-2.2989,-2.3091,-2.3091,-2.3091,-2.3091,-2.3091,-2.3091,-2.3091,-2.3091,-2.3091,-2.3091,-2.3091,-2.3091,-2.3091,-2.3091,-2.3081,-2.2721,-2.2568,-2.2471,-2.1687,-2.1298,-2.1161,-2.081,-2.0664,-2.0605,-2.0605,-2.0644,-2.0683,-2.0625,-2.0644,-2.0683,0.0,0.0,0.0,0.0,0.0,0.0,0.0,0.0,0.0,0.0,0.0,0.0,0.0,0.0,0.0,0.0,0.0,0.0,0.0,0.0,0.0,-1.7957,-1.8558,-1.9028,-1.929,-1.963,-2.0087,-2.0699,-2.1224,-2.1603,-2.1784,-2.2122,-2.2462,-2.2721,-2.2423,-2.1913,-2.1224,-2.0592,-2.0322,-2.0322,-2.0233,-2.0513,-2.0877,-2.0244,-2.0318,-2.0638,-1.9775,-1.9251,-1.8934,-1.8402,-1.7765,-1.7146,-1.6821,0.0,0.0,0.0,-1.6028,-1.6343,-1.7187,-1.7413,-1.7427,-1.7449,-1.6788,-1.5982,-1.5506,-1.5389,-1.5389,-1.5389,-1.5389,-1.5389,-1.5389,-1.534,-1.5298,-1.5389,-1.534,-1.5298,-1.5389,-1.5389,-1.5389,-1.5389,-1.6188,-1.7383,-1.9127,-2.0105,-2.1311,-2.2989,-2.3091,-2.3091,-2.3091,-2.3091,-2.3091,-2.3091,-2.3091,-2.3091,-2.3091,-2.3091,-2.2974,-2.275,-2.2984,-2.2847,-2.2432,-2.2246,-2.2158,-2.2129,-2.1463,-2.1094,-2.084,-2.0683,-2.0605,-2.0605,-2.0605,-2.0723,-2.0908,-2.0693,-2.0723,-2.0908,0.0,0.0,0.0,0.0,0.0,0.0,0.0,0.0,0.0,0.0,0.0,0.0,0.0,0.0,0.0,0.0,0.0,0.0,0.0,0.0,0.0,-1.7468,-1.8375,-1.8976,-1.9133,-1.9577,-2.0087,-2.0699,-2.1224,-2.1433,-2.1328,-2.1924,-2.2376,-2.2652,-2.2127,-2.1623,-2.1052,-2.0438,-2.0156,-2.0182,-2.0424,-2.0982,-2.1584,-2.1013,-2.1234,-2.1782,-2.079,-2.0184,-1.977,-1.9341,-1.8627,-1.7784,-1.7346,-1.6793,0.0,0.0,0.0,-1.6009,-1.7373,-1.754,-1.7406,-1.7592,-1.699,-1.6209,-1.5553,-1.5389,-1.5389,-1.5389,-1.5389,-1.5389,-1.5389,-1.5389,-1.5389,-1.5389,-1.5389,-1.5389,-1.5389,-1.5389,-1.5465,-1.5707,-1.6501,-1.768,-1.9284,-2.0345,-2.1485,-2.2833,-2.3033,-2.3091,-2.3091,-2.3091,-2.3091,-2.3091,-2.3091,-2.3091,-2.3091,-2.2984,-2.2822,-2.251,-2.2682,-2.249,-2.1885,-2.1777,-2.1719,-2.1699,-2.125,-2.0869,-2.0605,-2.0605,-2.0605,-2.0605,-2.0605,-2.0771,-2.1025,-2.0723,-2.0781,-2.1016,0.0,0.0,0.0,0.0,0.0,0.0,0.0,0.0,0.0,0.0,0.0,0.0,-1.831,-1.8932,-1.94,-1.9449,0.0,0.0,0.0,0.0,0.0,-1.807,-1.8597,0.0,-1.9747,-1.9786,-2.0087,-2.0699,-2.1224,-2.1433,-2.1328,-2.1924,-2.206,-2.1744,-2.1333,-2.1143,-2.1052,-2.0308,-2.0016,-2.0079,-2.106,-2.1458,-2.1622,-2.2556,-2.297,-2.2945,-2.2355,-2.2155,-2.1877,-2.0305,-1.9717,-1.9389,-1.7707,-1.7073,-1.6842,0.0,0.0,0.0,-1.6823,-1.6319,-1.5733,-1.6567,-1.6097,-1.5467,-1.5408,-1.5389,-1.5389,-1.5389,-1.5389,-1.5389,-1.5389,-1.5389,-1.5389,-1.5389,-1.5389,-1.5389,-1.5389,-1.5389,-1.5707,-1.6535,-1.7391,-1.8435,-1.9757,-2.1047,-2.2029,-2.251,-2.2867,-2.3091,-2.3091,-2.3091,-2.3091,-2.3091,-2.3091,-2.3091,-2.3091,-2.2701,-2.2539,-2.251,-2.2129,-2.1924,-2.1875,-2.1455,-2.1229,-2.12,-2.0791,-2.0625,-2.0605,-2.0605,-2.0605,-2.0605,-2.0605,-2.0615,-2.0635,-2.0615,-2.0615,-2.0635,0.0,0.0,0.0,0.0,0.0,0.0,0.0,0.0,0.0,0.0,0.0,0.0,0.0,-1.932,-1.9795,-2.0577,-2.0089,0.0,0.0,0.0,0.0,-1.8122,-1.861,-1.9185,-1.9799,-1.9799,-2.0087,-2.0699,-2.1224,-2.1381,-2.117,-2.1749,-2.1856,-2.1552,-2.1515,-2.1263,-2.0825,-2.0557,-2.0241,-1.9963,-2.1069,-2.192,-2.2481,-2.2196,-2.2945,-2.3973,-2.2372,-2.2008,-2.2217,-2.1617,-2.0921,-2.0137,-1.9167,-1.8334,-1.7485,-1.6425,-1.6028,-1.6114,-1.6826,-1.6709,-1.6457,-1.6633,-1.6876,-1.6784,-1.567,-1.5832,-1.6064,-1.5506,-1.5389,-1.5389,-1.5389,-1.5389,-1.5389,-1.5389,-1.5389,-1.5389,-1.5389,-1.5389,-1.5707,-1.6583,-1.7464,-1.8507,-1.977,-2.111,-2.206,-2.248,-2.2857,-2.3091,-2.3091,-2.3091,-2.3091,-2.3091,-2.3091,-2.3091,-2.3091,-2.2682,-2.2373,-2.2109,-2.1963,-2.1633,-2.1085,-2.1172,-2.1074,-2.0791,-2.0674,-2.0605,-2.0605,-2.0605,-2.0605,-2.0605,-2.0605,-2.0605,-2.0605,-2.0605,-2.0605,-2.0605,0.0,0.0,0.0,0.0,0.0,0.0,0.0,0.0,0.0,-1.7425,0.0,0.0,0.0,0.0,-1.923,-2.0307,-1.966,-1.8881,-1.8156,-1.848,-1.8676,-1.8662,-1.9198,-1.9682,-2.0074,-2.0087,-2.0308,-2.0699,-2.1066,-2.1069,-2.0796,-2.1142,-2.1186,-2.0928,-2.1226,-2.1113,-2.0691,-2.0691,-2.0352,-1.9936,-2.143,-2.2259,-2.2556,-2.2598,-2.3288,-2.4048,-2.2799,-2.256,-2.2874,-2.2874,-2.2374,-2.1577,-2.0628,-1.9385,-1.8119,-1.7222,-1.6788,-1.6646,-1.6968,-1.6924,-1.6731,-1.6536,-1.6824,-1.6893,-1.604,-1.6289,-1.6621,-1.6347,-1.6031,-1.5824,-1.5824,-1.5582,-1.5389,-1.5389,-1.5389,-1.5389,-1.5389,-1.5389,-1.5831,-1.6984,-1.7634,-1.8575,-1.9981,-2.1063,-2.1787,-2.206,-2.2565,-2.2886,-2.2886,-2.3023,-2.3091,-2.3091,-2.3091,-2.3091,-2.3091,-2.2578,-2.2158,-2.1885,-2.1582,-2.1173,-2.0615,-2.0869,-2.085,-2.0605,-2.0605,-2.0605,-2.0605,-2.0605,-2.0605,-2.0605,-2.0605,-2.0605,-2.0605,-2.0605,-2.0605,-2.0605,0.0,0.0,0.0,0.0,0.0,0.0,0.0,0.0,-1.7199,-1.7199,0.0,0.0,0.0,0.0,0.0,-1.8344,-1.8419,-1.8645,-1.9239,-1.9292,-1.9466,-1.9786,0.0,0.0,-2.0699,-2.0699,-2.0699,-2.0699,-2.0699,-2.0524,-2.0233,-2.0233,-2.0067,-1.9849,-2.0465,-2.0691,-2.0666,-2.0679,-2.0365,-2.0024,-2.2217,-2.2498,-2.1794,-2.3991,-2.4123,-2.3271,-2.3841,-2.4017,-2.4004,-2.4029,-2.4004,-2.3648,-2.1945,-2.0167,-1.8764,-1.8704,-1.8149,-1.7471,0.0,0.0,0.0,-1.6145,-1.5809,-1.5679,-1.6499,-1.6716,-1.6992,-1.7777,-1.7293,-1.6739,-1.6739,-1.6064,-1.5465,-1.5465,-1.5472,-1.5431,-1.5431,-1.5472,-1.6113,-1.7836,-1.8037,-1.8718,-2.044,-2.0967,-2.12,-2.121,-2.2041,-2.2519,-2.2529,-2.2877,-2.3091,-2.3091,-2.3091,-2.3091,-2.3091,-2.2314,-2.1894,-2.1875,-2.1045,-2.0615,-2.0605,-2.0605,-2.0605,-2.0605,-2.0605,-2.0605,-2.0605,-2.0605,-2.0605,-2.0605,-2.0605,-2.0605,-2.0605,-2.0605,-2.0605,-2.0605,0.0,0.0,0.0,0.0,0.0,-1.7199,-1.7199,-1.7199,-1.7199,0.0,0.0,0.0,-1.8336,-1.8819,-1.8999,-1.877,-1.8766,-1.8831,-1.9002,-1.9409,-1.9701,-1.9799,-2.0373,-2.0699,-2.0699,-2.0699,-2.0699,-2.0699,-2.0612,-2.0643,-2.0847,-2.0742,-2.0637,-2.0478,-2.1031,-2.083,-2.0075,-2.0515,-2.0591,-2.0616,-2.238,-2.317,-2.3414,-2.4431,-2.5121,-2.5481,-2.482,-2.4343,-2.4117,-2.4895,-2.4092,-2.2593,-2.1684,-2.0788,-1.9896,-1.8963,-1.8523,-1.8166,-1.7184,0.0,0.0,0.0,0.0,0.0,-1.6433,-1.7205,-1.7885,-1.7201,-1.7384,-1.7634,-1.7634,-1.7432,-1.7277,-1.7277,-1.6747,-1.6337,-1.6337,-1.687,-1.7683,-1.8816,-1.8935,-1.9371,-2.0489,-2.0967,-2.1327,0.0,-2.2207,-2.2646,-2.2906,-2.3033,-2.3091,-2.3091,-2.3091,-2.3091,-2.3091,-2.2607,-2.2187,-2.1875,-2.1318,-2.0879,-2.0605,-2.0605,-2.0605,-2.0605,-2.0605,-2.0605,-2.0605,-2.0605,-2.0605,-2.0605,-2.0605,-2.0605,-2.0605,-2.0605,-2.0605,-2.0605,0.0,0.0,0.0,0.0,0.0,-1.7578,-1.7578,-1.7356,-1.7199,0.0,0.0,0.0,-1.8806,-1.9211,-1.9394,-1.929,-1.9054,-1.9107,-1.9627,-1.9734,-1.9904,-2.0164,-2.0504,-2.0699,-2.0699,-2.0699,-2.0687,-2.0612,-2.0537,-2.0566,-2.0654,-2.0549,-2.0457,-2.0352,-2.0639,-2.0413,-1.9836,-2.0453,-2.0691,-2.0842,-2.2443,-2.317,-2.3401,-2.4399,-2.4921,-2.5059,-2.4883,-2.4587,-2.4506,-2.5586,-2.4795,-2.3328,-2.3176,-2.2274,-2.1087,-2.0338,-1.9912,-1.9468,-1.8342,-1.7989,-1.7728,-1.7005,0.0,0.0,-1.743,-1.8206,-1.8825,-1.8634,-1.8696,-1.8753,-1.8554,-1.8247,-1.7997,-1.7997,-1.7876,-1.7674,-1.731,-1.7674,-1.8318,-1.9183,-1.9301,-1.9657,-2.0527,-2.0801,-2.1143,-2.1582,-2.2012,-2.251,-2.3062,-2.3091,-2.3091,-2.3091,-2.3091,-2.3091,-2.3091,-2.2549,-2.2129,-2.1875,-2.125,-2.082,-2.0605,-2.0605,-2.0605,-2.0605,-2.0605,-2.0605,-2.0605,-2.0605,-2.0605,-2.0605,-2.0605,-2.0605,-2.0605,-2.0605,-2.0605,-2.0635,0.0,0.0,-1.8074,-1.8009,-1.8061,-1.81,-1.81,-1.7591,-1.7251,0.0,-1.7904,-1.8427,-1.878,-1.8872,-1.9094,-1.9577,-1.9185,-1.9368,-2.0542,-2.0164,-2.0151,-2.0686,-2.0699,-2.0699,-2.0699,-2.0699,-2.0637,-2.0511,-2.0486,-2.0296,-2.0016,-1.999,-1.9926,-1.9798,-1.9798,-1.9798,-1.9836,-2.0377,-2.0742,-2.1094,-2.2506,-2.292,-2.2836,-2.4311,-2.4324,-2.3684,-2.4637,-2.4888,-2.4958,-2.5908,-2.5661,-2.5059,-2.5335,-2.4134,-2.2508,-2.2204,-2.1761,-2.1186,-2.016,-1.9512,-1.8882,-1.7995,-1.739,0.0,-1.8811,-1.9187,-1.9568,-2.0605,-2.0332,-1.9706,-1.9356,-1.8637,-1.8087,-1.8087,-1.8809,-1.9079,-1.8278,-1.8238,-1.8559,-1.9332,-1.9497,-1.9811,-2.0596,-2.0723,-2.0898,-2.1298,-2.1777,-2.2353,-2.3052,-2.3091,-2.3091,-2.3091,-2.3091,-2.3091,-2.3091,-2.2353,-2.1934,-2.1875,-2.1075,-2.0654,-2.0605,-2.0605,-2.0605,-2.0605,-2.0605,-2.0605,-2.0605,-2.0605,-2.0605,-2.0605,-2.0605,-2.0605,-2.0605,-2.0605,-2.0605,-2.0664,0.0,-1.7682,-1.7944,-1.746,-1.7774,-1.81,-1.81,-1.7591,-1.7525,-1.8453,-1.9094,-1.9159,-1.8336,-1.8649,-1.878,-1.8453,-1.8728,-1.9211,-1.9917,-2.0321,-2.0594,-2.0699,-2.0699,-2.0699,-2.0699,-2.0699,-2.0687,-2.0662,-2.0398,-2.0233,-2.0156,-1.9939,-1.9837,-1.9798,-1.9798,-1.9798,-1.9811,-1.9924,-2.1004,-2.2656,-2.297,-2.3835,-2.4983,-2.5322,-2.5875,-2.644,-2.6248,-2.5573,-2.4763,-2.4556,-2.5255,-2.5959,-2.4695,-2.4931,-2.5182,-2.2807,-2.2663,-2.2832,-2.0848,-2.0335,-2.0174,-1.9083,-1.8923,0.0,-1.8092,-1.8468,-1.8907,-1.8652,-1.9035,-1.9406,-1.9329,-1.8837,-1.8489,-1.8489,-1.9209,-1.9621,-1.9128,-1.9648,-2.0157,-2.0333,-2.0642,-2.0904,-2.1064,-2.1416,-2.1807,-2.2227,-2.2613,-2.2925,-2.3081,-2.3091,-2.3091,-2.3091,-2.3091,-2.3091,-2.3091,-2.2604,-2.2217,-2.1875,-2.1348,-2.0918,-2.0605,-2.0605,-2.0605,-2.0605,-2.0605,-2.0605,-2.0605,-2.0605,-2.0605,-2.0605,-2.0605,-2.0605,-2.0605,-2.0605,-2.0605,-2.0615,-1.7974,-1.8532,-1.8767,-1.8153,-1.8296,-1.8506,-1.8506,-1.8022,-1.7957,-1.8793,-1.9433,-1.959,-1.9015,-1.9198,-1.9251,-1.8976,-1.9198,-1.9603,-2.0216,-2.0517,-2.0699,-2.0699,-2.0699,-2.0699,-2.0699,-2.0699,-2.0624,-2.0448,-2.0283,-2.0118,-1.9991,-1.985,-2.01,-2.0614,-2.0049,-2.0112,-2.0627,-2.0351,-2.1041,-2.2385,-2.3226,-2.472,-2.644,-2.644,-2.6791,-2.7241,-2.6688,-2.6135,-2.5686,-2.595,-2.5862,-2.5686,-2.5963,-2.5862,-2.5357,-2.3899,-2.3833,-2.3839,-2.1799,-2.1311,-2.1126,-2.0182,-2.0017,0.0,0.0,-2.0094,-2.0362,-2.0282,-2.0324,-2.0327,-2.0103,-1.9543,-1.9082,-1.9082,-1.9836,-2.0118,-1.9421,-2.0439,-2.1271,-2.1271,-2.1426,-2.1562,-2.1562,-2.1758,-2.206,-2.248,-2.2857,-2.3091,-2.3091,-2.3091,-2.3091,-2.3091,-2.3091,-2.3091,-2.3091,-2.251,-2.21,-2.1875,-2.1221,-2.0781,-2.0605,-2.0605,-2.0605,-2.0605,-2.0605,-2.0605,-2.0605,-2.0605,-2.0605,-2.0605,-2.0605,-2.0605,-2.0605,-2.0605,-2.0605,-2.0635,-1.8585,-1.9154,-1.9376,-1.8777,-1.88,-1.8865,-1.8865,-1.8509,-1.8453,-1.9002,-1.9786,-2.0257,-2.0152,-2.0322,-2.0414,-2.0322,-2.0505,-2.0688,-2.0844,-2.1053,-2.1157,-2.104,-2.083,-2.0792,-2.0976,-2.0767,-2.0498,-2.0207,-2.0182,-2.0054,-1.9837,-1.9798,-2.0288,-2.1129,-2.0439,-2.0577,-2.1345,-2.1106,-2.1509,-2.2397,-2.3753,-2.531,-2.6816,-2.6917,-2.703,-2.7115,-2.6776,-2.6725,-2.6914,-2.7557,-2.6678,-2.5536,-2.6892,-2.6465,-2.5289,-2.465,-2.4763,-2.4703,-2.2818,-2.2206,-2.197,-2.1235,-2.0962,-2.1018,0.0,0.0,0.0,-2.2062,-2.1705,-2.1218,-2.0834,-2.0054,-1.946,-1.9399,-2.0045,-2.0252,-1.9367,-2.0664,-2.1613,-2.1406,-2.1748,-2.1943,-2.1777,-2.1836,-2.209,-2.2598,-2.275,-2.2925,-2.3081,-2.3091,-2.3091,-2.3091,-2.3091,-2.3091,-2.3091,-2.2305,-2.1885,-2.1875,-2.1026,-2.0605,-2.0605,-2.0605,-2.0605,-2.0605,-2.0605,-2.0605,-2.0605,-2.0605,-2.0605,-2.0605,-2.0605,-2.0605,-2.0605,-2.0605,-2.0605,-2.0674,-1.7888,-1.8308,-1.8562,-1.7936,-1.8371,-1.8812,-1.8812,-1.8803,-1.9028,-1.963,-2.1106,-2.1904,-2.1368,-2.2217,-2.2608,-2.2165,-2.3041,-2.296,-2.1511,-2.2361,-2.2701,-2.2218,-2.1249,-2.1132,-2.2017,-2.103,-2.0423,-2.0207,-2.0093,-2.0016,-1.9978,-1.9862,-1.9874,-2.0024,-2.0903,-2.1119,-2.0842,-2.1732,-2.3288,-2.5146,-2.5335,-2.5285,-2.5159,-2.5611,-2.6147,-2.665,-2.7065,-2.7507,-2.7783,-2.6964,-2.6839,-2.6703,-2.4996,-2.5975,-2.7155,-2.4161,-2.472,-2.5812,-2.3579,-2.2975,-2.2811,-2.2132,-2.1947,-2.1753,-2.1088,0.0,-2.0909,-2.0826,0.0,-2.0696,-2.064,0.0,0.0,-1.8751,-1.9114,-1.9289,-1.9003,-2.0088,-2.0594,-1.9715,-2.1269,-2.2139,-2.1337,-2.166,-2.2217,-2.2964,-2.2422,-2.2353,-2.3052,-2.3091,-2.3091,-2.3091,-2.3091,-2.3091,-2.3091,-2.2305,-2.1885,-2.1875,-2.1026,-2.0605,-2.0605,-2.0605,-2.0605,-2.0605,-2.0605,-2.0605,-2.0605,-2.0605,-2.0605,-2.0605,-2.0605,-2.0605,-2.0605,-2.0605,-2.0605,-2.0674,-1.8623,-1.8887,-1.8887,-1.8323,-1.819,-1.8264,-1.8634,-1.925,-1.9765,-2.001,-2.0681,-2.094,-2.0434,-2.1147,-2.1837,-2.2348,-2.3132,-2.3289,-2.2517,-2.2866,-2.2564,-2.1355,-2.0732,-2.0617,-2.1042,-2.0566,-2.0246,-2.0093,-2.0042,-1.9952,-1.9888,-1.9837,-2.015,-2.0815,-2.1619,-2.2209,-2.2648,-2.3439,-2.4117,-2.472,-2.5347,-2.5285,-2.4951,-2.649,-2.7005,-2.7002,-2.7241,-2.7431,-2.7657,0.0,-2.6979,0.0,-2.7042,-2.6829,-2.605,-2.5285,-2.5272,-2.5159,-2.3534,-2.3584,-2.386,-2.2911,-2.317,-2.3415,-2.2382,-2.2132,-2.2113,-2.2051,0.0,0.0,0.0,0.0,0.0,0.0,-2.0477,-2.0683,-1.9991,-2.1321,-2.1837,-2.0333,-2.0909,-2.1445,-2.1592,-2.2217,-2.2754,-2.3062,-2.2769,-2.2721,-2.3081,-2.3091,-2.3091,-2.3091,-2.3091,-2.3091,-2.3091,-2.2549,-2.2129,-2.1875,-2.125,-2.082,-2.0605,-2.0605,-2.0605,-2.0605,-2.0605,-2.0605,-2.0605,-2.0605,-2.0605,-2.0605,-2.0605,-2.0605,-2.0605,-2.0605,-2.0605,-2.0674,-1.8948,-1.9073,-1.8907,-1.8372,-1.7948,-1.792,-1.8708,-1.949,-2.0028,-2.0182,-2.0476,-2.0579,-2.0282,-2.1185,-2.2247,-2.3345,-2.4213,-2.4559,-2.4235,-2.399,-2.3393,-2.2363,-2.1132,-2.0745,-2.1386,-2.0591,-2.008,-1.9952,-1.9952,-1.9901,-1.9798,-1.9798,-2.0238,-2.1066,-2.1933,-2.2849,-2.3816,-2.4669,-2.5071,-2.5184,-2.5975,-2.6063,-2.5862,-2.7155,-2.7682,-2.7708,-2.7557,-2.7708,-2.8047,-2.8536,-2.7333,0.0,-2.821,-2.7431,-2.5824,0.0,-2.6113,-2.5377,-2.396,0.0,0.0,-2.3384,-2.3722,-2.4111,-2.3296,-2.3108,-2.3108,-2.3108,-2.272,0.0,0.0,0.0,0.0,0.0,0.0,-2.1608,-2.0777,-2.1879,-2.2174,-2.0589,-2.0295,-2.0673,-2.1708,-2.2195,-2.2487,-2.274,-2.275,-2.2847,-2.3081,-2.3091,-2.3091,-2.3091,-2.3091,-2.3091,-2.3091,-2.2682,-2.2305,-2.1875,-2.1405,-2.0996,-2.0605,-2.0605,-2.0605,-2.0605,-2.0605,-2.0605,-2.0605,-2.0605,-2.0605,-2.0605,-2.0605,-2.0605,-2.0615,-2.0703,-2.0752,-2.083,-1.8229,-1.8229,-1.8077,-1.7524,-1.7523,-1.8002,-1.9195,-1.94,-1.9618,-2.0131,-2.122,-2.1941,-2.1928,-2.385,-2.5416,-2.6019,-2.7584,-2.8036,-2.6841,-2.6299,-2.6308,-2.6963,-2.3203,-2.2144,-2.4412,-2.1519,-1.9926,-1.9811,-1.9811,-1.9798,-1.9798,-1.9798,-1.9823,-1.9924,-2.1581,-2.2594,-2.3246,-2.4883,-2.6502,-2.7984,-2.8009,-2.8009,-2.7896,-2.6927,-2.7494,-2.8762,-2.8273,0.0,0.0,-2.8499,-2.8072,0.0,0.0,0.0,0.0,0.0,0.0,0.0,0.0,0.0,0.0,-2.3384,0.0,0.0,0.0,0.0,-2.3108,0.0,0.0,0.0,0.0,0.0,0.0,0.0,0.0,0.0,0.0,-2.0837,-2.0496,-1.9449,-1.9329,-1.9945,-2.1448,-2.1042,-2.1045,-2.1865,-2.1924,-2.2275,-2.3052,-2.3091,-2.3091,-2.3091,-2.3091,-2.3091,-2.3091,-2.2682,-2.2305,-2.1875,-2.1405,-2.0996,-2.0605,-2.0605,-2.0605,-2.0605,-2.0605,-2.0605,-2.0605,-2.0605,-2.0605,-2.0605,-2.0605,-2.0605,-2.0654,-2.1055,-2.1171,-2.1298,-1.7664,-1.7664,-1.7601,-1.7436,-1.7106,-1.7276,-1.8423,-1.956,-2.0585,-2.1453,-2.2264,-2.29,-2.3399,-2.4111,-2.5001,-2.603,-2.7037,-2.7387,-2.7003,-2.634,-2.5899,-2.5753,-2.2607,-2.1534,-2.3056,-2.0974,-1.9837,-1.9798,-1.9798,-1.9798,-1.9798,-1.9798,-1.9798,-1.9874,-2.1556,-2.3007,-2.4324,-2.6013,-2.7256,-2.8109,-2.8109,-2.7883,-2.7557,0.0,-2.7896,-2.836,-2.8172,-2.8586,0.0,-2.9227,-2.8486,-2.7695,-2.8436,-2.7945,-2.7115,-2.7444,-2.7293,0.0,0.0,0.0,-2.6553,-2.4675,0.0,0.0,0.0,0.0,0.0,0.0,0.0,0.0,0.0,0.0,0.0,0.0,0.0,0.0,0.0,-2.1854,-2.1585,-2.1678,-2.1286,-2.1179,-2.1561,-2.2551,-2.3,-2.2605,-2.3213,-2.3466,-2.3125,-2.3091,-2.3091,-2.3091,-2.3091,-2.3227,-2.3564,-2.3101,-2.2715,-2.2295,-2.1865,-2.1279,-2.0605,-2.0605,-2.0605,-2.0605,-2.0605,-2.0605,-2.0625,-2.0889,-2.083,-2.0664,-2.1251,-2.126,-2.0986,-2.084,-2.0977,-2.1317,-1.7124,-1.7087,-1.7074,-1.7074,-1.6936,-1.72,-1.8306,-1.956,-2.0903,-2.238,-2.2706,-2.3138,-2.4028,-2.4293,-2.4836,-2.5821,-2.6655,-2.7112,-2.7112,-2.6464,-2.6139,-2.6211,-2.3606,-2.2778,-2.4166,-2.1886,-2.0702,-2.0702,-2.01,-1.9798,-1.9798,-1.9798,-1.9798,-1.9861,-2.1142,-2.2874,-2.4876,-2.6151,-2.7469,-2.8699,-2.8699,-2.8373,-2.7883,0.0,-2.7984,-2.7846,0.0,-2.8586,-2.9289,-2.9666,-2.9076,-2.836,-2.9453,-2.88,-2.7819,-2.8499,-2.821,-2.7593,-2.719,-2.7557,0.0,-2.5862,-2.5971,0.0,-2.4123,0.0,-2.3789,0.0,0.0,0.0,0.0,0.0,0.0,0.0,0.0,0.0,0.0,-2.2659,-2.2488,-2.2927,-2.2063,-2.1632,-2.2161,-2.2958,-2.3503,-2.3591,-2.4082,-2.4146,-2.3627,-2.3604,-2.343,-2.3091,-2.3091,-2.3227,-2.3555,-2.3237,-2.2808,-2.2285,-2.2012,-2.1416,-2.0605,-2.0605,-2.0605,-2.0605,-2.0605,-2.0605,-2.0635,-2.1045,-2.1064,-2.0879,-2.1602,-2.1719,-2.1445,-2.1309,-2.1533,-2.1951,-1.6547,-1.6546,-1.6541,-1.6538,-1.7036,-1.779,-1.887,-1.9572,-2.0752,-2.2907,-2.2807,-2.2975,-2.4042,-2.4632,-2.5134,-2.5598,-2.6653,-2.7281,-2.7281,-2.6801,-2.7047,-2.8324,-2.6064,-2.5648,-2.7497,-2.4085,-2.2309,-2.2309,-2.0652,-1.9823,-1.9798,-1.9798,-1.9798,-1.9823,-2.0402,-2.2184,-2.4825,-2.5347,-2.7193,-2.9792,-2.9792,-2.9428,-2.8787,-2.8298,-2.777,-2.7394,-2.7921,-2.8825,-2.9792,-2.9792,-2.9792,-2.9792,-2.9792,-2.9792,-2.9792,-2.9792,-2.9792,-2.9553,-2.8486,-2.8185,-2.7921,-2.6851,-2.6575,0.0,0.0,0.0,-2.5128,0.0,0.0,0.0,0.0,0.0,0.0,0.0,0.0,0.0,0.0,-2.3108,-2.3108,-2.3108,-2.1721,-2.1417,-2.3126,-2.2366,-2.2626,-2.4681,-2.448,-2.4298,-2.4448,-2.4447,-2.4029,-2.3135,-2.3091,-2.311,-2.312,-2.3154,-2.2777,-2.1953,-2.1946,-2.1516,-2.0673,-2.0615,-2.0605,-2.0644,-2.0605,-2.0605,-2.0644,-2.1074,-2.121,-2.1239,-2.1758,-2.1953,-2.1992,-2.2373,-2.2721,-2.3062,-1.5939,-1.6598,-1.7116,-1.7157,-1.7626,-1.8355,-1.9434,-2.1102,-2.2757,-2.4173,-2.5335,-2.6126,-2.6402,-2.6565,-2.654,-2.6298,-2.6914,-2.7281,-2.7281,-2.6801,-2.6989,-2.8132,-2.5632,-2.5016,-2.6732,-2.3834,-2.2309,-2.2309,-2.1081,-2.0251,-1.9798,-1.9798,-1.9798,-1.9811,-1.9962,-2.182,-2.48,-2.4938,-2.6866,-2.9792,-2.9792,-2.9202,-2.8298,0.0,-2.8009,-2.7908,-2.8059,-2.8825,-2.9792,-2.9792,-2.9792,-2.9792,-2.9792,-2.9792,-2.9792,-2.9792,-2.9792,-2.9729,-2.944,-2.9365,-2.9089,-2.7959,-2.7682,-2.7394,0.0,0.0,0.0,0.0,0.0,0.0,0.0,0.0,0.0,0.0,0.0,0.0,0.0,-2.3108,-2.3108,-2.3108,-2.3121,-2.3081,-2.3021,-2.3814,-2.4209,-2.3889,-2.45,-2.4581,-2.3939,0.0,-2.3272,-2.3115,-2.3091,-2.3247,-2.3623,-2.3981,-2.371,-2.2875,-2.2866,-2.2533,-2.1893,-2.1015,-2.0944,-2.1461,-2.0867,-2.0605,-2.0664,-2.1396,-2.1523,-2.1298,-2.236,-2.2779,-2.275,-2.2588,-2.2578,-2.2715,-1.5216,-1.595,-1.6764,-1.7255,-1.8568,-1.9871,-2.0749,-2.1942,-2.3409,-2.5297,-2.5925,-2.6389,-2.6901,-2.6952,-2.6839,-2.6524,-2.6788,-2.6851,-2.6553,-2.6524,-2.6776,-2.7356,-2.6138,-2.6088,-2.7507,-2.5297,-2.3891,-2.3371,-2.2046,-2.084,-1.9798,-1.9798,-1.9798,-1.9798,-1.9798,-2.1267,-2.3785,-2.5272,-2.7118,-2.9101,-2.9591,-2.9264,0.0,-2.8075,-2.7987,-2.795,-2.7712,-2.855,-2.9792,-2.9792,-2.9792,-2.9792,-2.9792,-2.9792,-2.9792,-2.965,-2.9611,-2.9611,-2.9611,-2.9611,-2.95,-2.8963,-2.8837,-2.8549,-2.7431,-2.7351,-2.7344,0.0,-2.6547,-2.6361,0.0,0.0,0.0,0.0,0.0,0.0,0.0,-2.3108,-2.3108,-2.3108,-2.3396,-2.3428,-2.3024,-2.4208,-2.4893,-2.4645,-2.4838,-2.4641,0.0,0.0,-2.3939,-2.3585,-2.4026,-2.4397,-2.4654,-2.4955,-2.4735,-2.4082,-2.3484,-2.2944,-2.2459,-2.1531,-2.1165,-2.128,-2.1165,-2.0944,-2.0654,-2.1318,-2.1562,-2.1631,-2.2672,-2.3091,-2.3062,-2.2828,-2.274,-2.2779,-1.4688,-1.5284,-1.6192,-1.7148,-1.9521,-2.1558,-2.2292,-2.2652,-2.3703,-2.6072,-2.5649,-2.5485,-2.6399,-2.6499,-2.6499,-2.6499,-2.6499,-2.6285,-2.5737,-2.6223,-2.6499,-2.6499,-2.6952,-2.7695,-2.8762,-2.7304,-2.5925,-2.4788,-2.317,-2.1518,-1.9798,-1.9798,-1.9798,-1.9798,-1.9798,-2.0815,-2.2736,-2.5937,-2.7645,-2.831,-2.9365,-2.9453,-2.8825,-2.8076,-2.7791,-2.7717,-2.717,-2.8076,-2.954,-2.9615,-2.964,-2.9653,-2.9728,-2.9753,-2.9702,-2.947,-2.9419,-2.938,-2.938,-2.938,-2.947,-2.9702,-2.9792,-2.9528,-2.8549,-2.8055,-2.7901,-2.8283,-2.716,-2.6807,0.0,0.0,0.0,0.0,0.0,0.0,-2.3547,-2.3547,-2.3484,-2.3346,-2.3384,0.0,-2.312,-2.3979,-2.488,-2.571,-2.5068,-2.4523,0.0,0.0,-2.5087,-2.4415,-2.53,-2.5777,-2.5777,-2.5902,-2.5747,-2.5248,-2.4175,-2.3419,-2.3068,-2.2367,-2.1734,-2.1207,-2.1711,-2.1576,-2.0935,-2.1352,-2.1838,-2.2363,-2.3166,-2.3387,-2.3266,-2.3266,-2.3222,-2.3144,-1.5358,-1.6253,-1.7026,-1.7273,-1.9617,-2.1813,-2.2804,-2.4573,-2.577,-2.5749,-2.6389,-2.6753,-2.6524,-2.6499,-2.6499,-2.6499,-2.6499,-2.6449,-2.6348,-2.6436,-2.6499,-2.6499,-2.6587,-2.7153,-2.8235,-2.7115,-2.5925,-2.4788,-2.3559,-2.1866,-1.9798,-1.9798,-1.9798,-1.9798,-1.9798,-2.1255,-2.3866,-2.6264,0.0,-2.88,-2.9515,-2.9453,-2.8825,-2.8076,-2.7791,-2.7717,-2.7002,-2.7359,-2.8226,-2.8674,-2.8798,-2.8873,-2.9321,-2.947,-2.947,-2.9419,-2.9419,-2.9341,-2.9197,-2.9275,-2.9419,-2.947,-2.965,-2.9741,-2.9541,-2.9896,-2.9859,-2.8462,-2.8428,-2.833,-2.7329,0.0,0.0,0.0,0.0,0.0,-2.5908,-2.5908,-2.5548,-2.46,-2.4908,-2.4632,-2.3233,-2.371,-2.4123,-2.4107,-2.3885,-2.4047,0.0,0.0,-2.466,0.0,-2.569,0.0,0.0,0.0,-2.6543,-2.5699,-2.5867,-2.5876,-2.5695,-2.4128,-2.371,-2.4108,-2.3196,-2.2697,-2.2617,-2.3003,-2.367,-2.4514,-2.5112,-2.4904,-2.4241,-2.4241,-2.3907,-2.3406,-1.6185,-1.6602,-1.7002,-1.7727,-2.0149,-2.2346,-2.3541,-2.5405,-2.6521,-2.6117,-2.6251,-2.6302,-2.6072,-2.6311,-2.6499,-2.6499,-2.6499,-2.6499,-2.6499,-2.6499,-2.6499,-2.6499,-2.6499,-2.7014,-2.8084,-2.7582,-2.649,-2.4788,0.0,0.0,-1.9798,-1.9798,-1.9798,-1.9823,-2.0413,-2.1744,-2.369,0.0,0.0,-2.8512,-2.9012,-2.885,-2.825,-2.7397,-2.6906,-2.6623,-2.6271,-2.638,-2.6783,-2.7706,-2.8212,-2.8471,-2.8742,-2.9014,-2.9236,-2.9106,-2.9106,-2.9067,-2.8961,-2.904,-2.9106,-2.9236,-2.9404,-2.9599,-2.9599,-2.9732,-2.9591,-2.8711,-2.8819,-2.8735,-2.754,-2.6889,0.0,0.0,0.0,0.0,0.0,-2.6499,-2.6298,-2.5737,-2.5385,-2.4883,-2.4061,-2.3697,-2.3573,-2.3704,-2.3584,0.0,0.0,0.0,-2.5203,0.0,0.0,0.0,-2.7214,0.0,-2.7632,-2.7203,-2.6737,-2.6495,-2.6393,-2.5299,-2.4756,-2.4684,-2.4498,-2.4013,-2.3426,-2.3947,-2.4497,-2.5072,-2.5864,-2.5902,-2.5526,-2.5526,-2.5179,-2.4548,-1.7141,-1.7119,-1.7346,-1.8507,-2.082,-2.2825,-2.3756,-2.5461,-2.6627,-2.6671,-2.6172,-2.5774,-2.5774,-2.6223,-2.6499,-2.6499,-2.6499,-2.6499,-2.6499,-2.6499,-2.6499,-2.6499,-2.6499,-2.7014,-2.8084,-2.8109,-2.7193,0.0,0.0,0.0,0.0,0.0,0.0,0.0,0.0,0.0,0.0,0.0,-2.7268,-2.8237,-2.8575,-2.83,-2.7619,-2.6748,-2.6068,-2.5606,-2.5535,-2.5535,-2.5692,-2.6699,-2.747,-2.8096,-2.8206,-2.8611,-2.9013,-2.8843,-2.8791,-2.8803,-2.8764,-2.8764,-2.8843,-2.9013,-2.9197,-2.9341,-2.938,-2.9211,-2.8988,-2.8913,-2.8888,-2.8687,-2.8059,-2.7542,0.0,0.0,0.0,0.0,0.0,0.0,-2.7115,-2.6876,-2.605,-2.539,-2.5197,-2.4368,-2.3885,-2.4039,-2.3818,0.0,-2.4947,0.0,0.0,0.0,0.0,-2.8174,-2.8174,0.0,-2.851,-2.851,-2.7422,-2.6946,-2.6923,-2.6372,-2.578,-2.5223,-2.5716,-2.5322,-2.4325,-2.5023,-2.5392,-2.5611,-2.6657,-2.6935,-2.6771,-2.6771,-2.6342,-2.555,-1.8164,-1.859,-1.9025,-1.9564,-2.1478,-2.283,-2.2534,-2.4545,-2.636,-2.7112,-2.6751,-2.6411,-2.6411,-2.6461,-2.6499,-2.6499,-2.6499,-2.6499,-2.6499,-2.6499,-2.6499,-2.6499,-2.6499,-2.7014,-2.8084,-2.8109,-2.7758,0.0,0.0,-2.3847,0.0,0.0,0.0,0.0,0.0,0.0,0.0,-2.6691,-2.7724,-2.8574,-2.8649,-2.8238,-2.7459,-2.6688,-2.6068,-2.5571,-2.5382,-2.5347,-2.5359,-2.5456,-2.6311,-2.7406,-2.7881,-2.8405,-2.8831,-2.8803,-2.8791,-2.8764,-2.8578,-2.8657,-2.8791,-2.8831,-2.8961,-2.9157,-2.9341,-2.9381,-2.9285,-2.895,-2.8888,-2.8612,-2.7557,-2.8524,-2.9151,0.0,0.0,0.0,0.0,0.0,-2.9101,-2.8072,-2.7858,-2.7406,-2.6436,-2.6248,-2.5895,-2.5198,-2.4538,0.0,0.0,0.0,0.0,-2.6861,-2.6994,-2.7042,-2.7042,-2.8029,-2.851,-2.851,-2.8383,-2.8307,-2.8295,-2.7768,-2.749,-2.7377,-2.6988,-2.6536,-2.6214,-2.6943,-2.7248,-2.7383,-2.8429,-2.8383,-2.7678,-2.7678,-2.6764,-2.5506,-1.9572,-1.9758,-2.012,-2.0855,-2.1696,-2.2595,-2.3493,-2.4559,-2.5605,-2.6468,-2.6547,-2.6499,-2.6499,-2.6499,-2.6499,-2.6499,-2.6499,-2.6499,-2.6499,-2.6499,-2.6499,-2.6499,-2.6499,-2.6851,-2.7595,-2.7934,-2.767,0.0,0.0,0.0,0.0,0.0,0.0,0.0,0.0,-2.5473,-2.6678,-2.7674,-2.8475,-2.8995,-2.8161,-2.7593,-2.7188,-2.6142,-2.5611,-2.5418,-2.5347,-2.5312,-2.5312,-2.5312,-2.5841,-2.6625,-2.7181,-2.7712,-2.8207,-2.8521,-2.8618,-2.8618,-2.851,-2.8538,-2.8618,-2.8618,-2.8776,-2.8922,-2.9028,-2.9223,-2.9356,-2.9222,-2.9313,-2.9315,-2.8875,-2.8787,-2.885,-2.9076,0.0,0.0,0.0,0.0,0.0,-2.9164,-2.8524,-2.7934,-2.7494,-2.6889,-2.6364,-2.6036,-2.5642,0.0,0.0,0.0,0.0,-2.6885,0.0,-2.7846,-2.7846,-2.8294,-2.851,-2.851,-2.851,-2.851,-2.8498,-2.8294,-2.8198,-2.8174,-2.7736,-2.7538,-2.758,-2.8026,-2.8275,-2.8413,-2.9196,-2.93,-2.9,-2.9,-2.8454,-2.7624,-2.0772,-2.0901,-2.128,-2.2076,-2.2325,-2.2767,-2.3756,-2.4243,-2.472,-2.5429,-2.5895,-2.6245,-2.6452,-2.6499,-2.6499,-2.6499,-2.6499,-2.6499,-2.6499,-2.6499,-2.6499,-2.6499,-2.6499,0.0,-2.7268,-2.7657,-2.7645,-2.7216,-2.5925,0.0,0.0,0.0,0.0,0.0,-2.6079,-2.7022,-2.7748,-2.845,-2.8917,-2.9086,-2.7738,-2.7173,-2.6977,-2.5757,-2.5312,-2.5312,-2.5312,-2.5312,-2.5312,-2.5312,-2.5552,-2.5997,-2.6669,-2.7258,-2.7825,-2.8354,-2.851,-2.851,-2.851,-2.851,-2.851,-2.851,-2.8618,-2.8724,-2.8803,-2.9028,-2.9223,-2.9314,-2.9443,-2.9624,-2.9663,-2.9012,-2.8775,-2.9666,0.0,0.0,0.0,-2.9792,0.0,-2.934,-2.8599,-2.8073,-2.8,-2.7335,-2.6849,0.0,0.0,0.0,0.0,0.0,0.0,0.0,0.0,0.0,-2.8041,-2.8354,-2.851,-2.851,-2.851,-2.851,-2.851,-2.851,-2.851,-2.8474,-2.8205,-2.8166,-2.8319,-2.8636,-2.8825,-2.895,-2.9566,-2.9792,-2.9792,-2.9792,-2.9443,-2.8862,-2.1611,-2.2159,-2.2625,-2.3091,-2.3557,-2.3587,-2.2635,-2.3199,-2.3807,-2.408,-2.4826,-2.5629,-2.6418,-2.6499,-2.6499,-2.6499,-2.6499,-2.6499,-2.6499,-2.6499,-2.6499,0.0,0.0,-2.6751,-2.7268,-2.7329,-2.7821,-2.8863,0.0,0.0,-2.7193,0.0,-2.5372,-2.6487,-2.6831,-2.7605,-2.8623,-2.8963,-2.8961,-2.8706,-2.7636,-2.7061,-2.6777,-2.5721,-2.5312,-2.5312,-2.5312,-2.5312,-2.5312,-2.5312,-2.5312,-2.5516,-2.6549,-2.7258,-2.7825,-2.8354,-2.851,-2.851,-2.851,-2.851,-2.851,-2.851,-2.851,-2.8538,-2.8764,-2.8791,-2.8882,-2.9052,-2.9091,-2.917,-2.938,-2.9406,-2.9496,-2.974,0.0,0.0,0.0,-2.9792,0.0,-2.826,-2.8109,-2.8,-2.7841,-2.7792,-2.7705,0.0,0.0,0.0,0.0,0.0,0.0,-2.6898,-2.691,0.0,-2.691,-2.7993,-2.851,-2.851,-2.851,-2.851,-2.851,-2.851,-2.851,-2.8474,-2.8372,-2.8293,-2.8319,-2.8737,-2.8888,-2.895,-2.9566,-2.9792,-2.9792,-2.9792,-2.926,-2.8514,-2.1807,-2.2687,-2.3184,-2.2387,-2.2894,-2.3091,-2.217,-2.3123,-2.3886,-2.3601,-2.5059,-2.6061,-2.5912,-2.5908,-2.5908,0.0,-2.5548,-2.5335,0.0,-2.5674,-2.5908,-2.5908,-2.6285,-2.6575,-2.6751,-2.7128,-2.7457,-2.7808,0.0,0.0,0.0,-2.6565,-2.7092,-2.816,-2.8487,-2.8847,-2.9131,-2.8966,-2.8882,-2.8706,-2.7496,-2.6961,-2.6777,-2.5721,-2.5312,-2.5312,-2.5312,-2.5312,-2.5312,-2.5312,-2.5312,-2.5504,-2.6549,-2.7018,-2.7318,-2.8246,-2.851,-2.851,-2.851,-2.851,-2.851,-2.851,-2.8246,-2.8065,-2.8493,-2.8685,-2.8733,-2.8574,-2.8539,-2.8467,-2.8174,-2.81,-2.8236,-2.872,-2.8782,0.0,-2.9289,0.0,-2.9203,-2.8818,-2.8768,-2.8768,-2.8704,-2.8704,0.0,0.0,0.0,0.0,0.0,0.0,0.0,0.0,-2.7594,0.0,-2.8005,-2.8342,-2.851,-2.851,-2.851,-2.851,-2.851,-2.851,-2.851,-2.8498,-2.8751,-2.8834,-2.8872,-2.9323,-2.9741,-3.0093,-3.0281,-3.0357,-3.0357,-3.0357,-2.9949,-2.9378,-2.2087,-2.2904,-2.3287,-2.2242,-2.2687,-2.2873,-2.1952,-2.2857,-2.3654,-2.3612,-2.4845,-2.5729,-2.5603,-2.5234,0.0,-2.5561,-2.5121,-2.4788,-2.4788,-2.5121,-2.5385,-2.5586,-2.5971,-2.6273,-2.6487,-2.6839,0.0,-2.7281,-2.7356,-2.7542,-2.7756,-2.8059,-2.8549,-2.9087,-2.9231,-2.9112,-2.8862,-2.8758,-2.8576,-2.8321,-2.731,-2.6898,-2.6777,-2.5721,-2.5312,-2.5312,-2.5312,-2.5312,-2.5312,-2.5312,-2.5312,-2.5468,-2.6309,-2.6729,-2.7102,-2.821,-2.851,-2.851,-2.851,-2.851,-2.8462,-2.827,-2.7969,-2.7714,-2.7885,-2.7987,-2.8045,-2.7832,-2.7759,-2.7688,-2.7434,-2.7409,-2.7593,-2.8195,-2.8293,-2.8478,-2.9018,0.0,-2.8944,0.0,0.0,0.0,0.0,-2.8387,-2.8226,0.0,0.0,0.0,0.0,0.0,0.0,-2.7536,-2.8162,0.0,-2.851,-2.851,-2.851,-2.851,-2.851,-2.851,-2.851,-2.8578,-2.8578,-2.851,-2.9013,-2.917,-2.9143,-2.981,-3.0306,-3.062,-3.062,-3.0733,-3.0884,-3.0683,-3.052,-3.0394,-2.2325,-2.2822,-2.3029,-2.2532,-2.2863,-2.2884,-2.1994,-2.2537,-2.3302,-2.3965,-2.4342,-2.4813,-2.5469,-2.4619,-2.4406,-2.5398,0.0,0.0,-2.4675,-2.475,-2.5034,-2.5523,-2.5611,-2.5946,-2.6487,-2.6499,-2.6763,-2.7281,-2.8348,-2.9164,-2.9729,-2.9767,-2.965,-2.938,-2.9157,-2.8692,-2.8086,-2.8337,-2.8174,-2.763,-2.7066,-2.6837,-2.6729,-2.5673,-2.5312,-2.5312,-2.5312,-2.5312,-2.5312,-2.5312,-2.5312,-2.5396,-2.5925,-2.649,-2.709,-2.8162,-2.8474,-2.851,-2.851,-2.851,-2.8378,-2.781,-2.7654,-2.7486,-2.6958,-2.6861,-2.6885,-2.6837,-2.6837,-2.69,-2.7027,-2.7052,-2.7309,-2.8047,-2.8133,-2.8341,-2.8917,-2.9003,-2.8635,0.0,0.0,0.0,-2.7319,-2.7281,-2.7581,0.0,0.0,0.0,0.0,0.0,-2.7595,-2.8474,-2.851,-2.851,-2.851,-2.851,-2.851,-2.851,-2.851,-2.851,-2.855,-2.8724,-2.8697,-2.859,-2.9157,-2.9275,-2.9219,-3.0184,-3.0633,-3.067,-3.0708,-3.1022,-3.1386,-3.0909,-3.1009,-3.1386,0.0,0.0,-2.2925,-2.2118,-2.2646,-2.2987,-2.2418,-2.3209,-2.3765,-2.3521,-2.4566,-2.5249,-2.5013,-2.4406,-2.4104,-2.4356,-2.3822,-2.3496,-2.3496,-2.4311,-2.4838,-2.4963,-2.5799,-2.6348,-2.6499,-2.6499,-2.6763,-2.7281,-2.7959,-2.8586,-2.9101,-2.9361,-2.947,-2.938,-2.904,-2.877,-2.8585,-2.8096,-2.7798,-2.7633,-2.6683,-2.6298,-2.6226,-2.5564,-2.5312,-2.5312,-2.5312,-2.5312,-2.5312,-2.5312,-2.5312,-2.5396,-2.5925,-2.649,-2.7018,-2.7678,-2.8198,-2.851,-2.851,-2.851,-2.8378,-2.781,-2.7378,-2.6934,-2.6418,-2.6597,-2.6777,-2.6382,-2.6298,-2.6166,-2.5829,-2.5756,-2.5937,-2.6541,-2.6626,-2.6964,-2.7881,-2.8026,-2.8074,0.0,-2.8255,-2.8255,-2.8216,-2.8177,-2.7948,0.0,0.0,0.0,-2.727,-2.7067,-2.7454,-2.8474,-2.851,-2.851,-2.851,-2.851,-2.851,-2.851,-2.851,-2.8578,-2.8724,-2.8803,-2.8843,-2.8973,-2.9263,-2.938,-2.939,-3.0251,-3.0846,-3.1248,-3.1675,-3.1913,-3.2001,-3.1876,-3.165,-3.1386,-2.1797,-2.2697,-2.3277,-2.2563,-2.3029,-2.335,-2.2884,-2.3595,-2.4221,-2.432,-2.4718,-2.504,-2.5131,-2.423,-2.3602,-2.3602,-2.3283,-2.3108,-2.3108,-2.3923,-2.4525,-2.4775,-2.5624,-2.6223,-2.6487,-2.6499,-2.6763,-2.7281,-2.8084,-2.8599,-2.89,-2.9247,-2.9341,-2.9236,-2.8961,-2.863,-2.827,-2.7876,-2.7546,-2.7246,-2.643,-2.6093,-2.6045,-2.5516,-2.5312,-2.5312,-2.5312,-2.5312,-2.5312,-2.5312,-2.5312,-2.536,-2.5648,-2.6105,-2.661,-2.6887,-2.7705,-2.851,-2.851,-2.833,-2.7957,-2.7176,-2.6586,-2.6081,-2.5805,-2.5973,-2.6105,-2.5805,-2.5733,-2.5648,-2.536,-2.5312,-2.548,-2.6009,-2.5697,-2.5841,-2.7138,-2.6898,-2.6995,-2.8029,-2.815,-2.8246,-2.8486,-2.851,-2.8309,-2.7796,-2.7683,0.0,-2.7748,-2.7683,-2.7921,-2.8498,-2.851,-2.851,-2.851,-2.851,-2.851,-2.851,-2.851,-2.8618,-2.8791,-2.8882,-2.9013,-2.9143,-2.9704,-2.9895,-2.9866,-3.0929,-3.1512,-3.1788,-3.2102,-3.2378,-3.2579,-3.2303,-3.219,-3.2164,-2.2604,-2.3287,-2.3753,-2.336,-2.366,-2.3784,-2.335,-2.3868,-2.4613,-2.5481,-2.5,-2.4848,-2.5636,-2.4299,-2.3358,-2.3358,-2.3283,-2.3195,-2.3108,-2.3647,-2.4243,-2.4763,-2.5322,-2.5862,-2.6487,-2.6499,-2.6801,-2.7406,-2.8151,-2.8574,-2.8661,-2.8836,-2.8897,-2.8843,-2.8633,-2.8273,-2.7798,-2.7669,-2.7306,-2.6837,-2.6238,-2.5973,-2.5925,-2.548,-2.5312,-2.5312,-2.5312,-2.5312,-2.5312,-2.5312,-2.5312,-2.5312,-2.5312,-2.5673,-2.6093,-2.6093,-2.7128,-2.827,-2.827,-2.7885,-2.726,-2.6334,-2.5709,-2.5312,-2.5312,-2.5312,-2.5312,-2.5312,-2.5312,-2.5312,-2.5312,-2.5312,-2.5408,-2.5697,-2.5119,-2.506,-2.6357,0.0,-2.5973,-2.739,-2.757,-2.7774,-2.8342,-2.839,-2.8493,-2.8764,-2.8618,-2.8578,-2.8764,-2.8578,-2.851,-2.851,-2.851,-2.851,-2.851,-2.851,-2.851,-2.851,-2.851,-2.8618,-2.8843,-2.9,-2.918,-2.9357,-3.0248,-3.0538,-3.0555,-3.1718,-3.2215,-3.2227,-3.2303,-3.2641,-3.3061,-3.2516,-3.2654,-3.3124,-2.308,-2.3515,-2.3898,-2.3784,-2.3867,-2.3898,-2.3784,-2.4081,-2.4613,-2.5481,-2.5671,-2.5911,-2.6308,-2.5272,-2.4525,-2.4525,-2.413,-2.3653,-2.3133,-2.3647,-2.4243,-2.4763,-2.5322,-2.5862,-2.6487,-2.6499,-2.6989,-2.7971,-2.7223,-2.711,-2.7517,-2.6904,-2.7035,-2.7718,-2.7539,-2.7799,-2.833,-2.7402,-2.697,-2.6813,-2.5841,-2.5432,-2.542,-2.5336,-2.5312,-2.5312,-2.5312,-2.5312,-2.5312,-2.5312,-2.5312,-2.5312,-2.5312,-2.5673,-2.6093,-2.6093,-2.661,-2.7138,-2.7138,-2.6779,-2.631,-2.6142,-2.5709,-2.5312,-2.5312,-2.5312,-2.5312,-2.5312,-2.5312,-2.5312,-2.5312,-2.5312,-2.5047,-2.4287,-2.4723,-2.5119,-2.4892,0.0,-2.625,-2.6934,-2.7018,-2.7222,-2.775,-2.781,-2.8029,-2.8514,-2.851,-2.851,-2.855,-2.851,-2.851,-2.851,-2.851,-2.851,-2.851,-2.851,-2.851,-2.851,-2.851,-2.8709,-2.9052,-2.9091,-2.9547,-3.0376,-3.0543,-3.0819,-3.127,-3.1951,-3.2215,-3.2265,-3.2754,-3.3006,-3.3111,-3.2968,-3.3006,-3.3124,-2.3598,-2.3929,-2.4229,-2.4229,-2.4229,-2.4229,-2.4229,-2.4326,-2.4889,-2.6251,-2.6016,-2.6159,-2.7226,-2.6088,-2.5234,-2.5234,-2.4745,-2.4299,-2.4036,-2.4261,-2.4682,-2.5222,-2.5473,-2.5862,-2.6487,-2.6671,-2.671,-2.6587,-2.6499,-2.6235,-2.5834,-2.5779,-2.6271,-2.7149,-2.7169,-2.7672,-2.8438,-2.7342,-2.6898,-2.6801,-2.5709,-2.5312,-2.5312,-2.5312,-2.5312,-2.5312,-2.5312,-2.5312,-2.5312,-2.5312,-2.5312,-2.5312,-2.5312,-2.548,-2.5673,-2.5673,-2.6237,-2.6825,-2.6562,-2.6298,-2.6021,-2.5745,-2.5492,-2.5312,-2.5312,-2.5312,-2.5312,-2.5312,-2.5312,-2.5312,-2.5312,-2.5312,-2.5155,-2.4675,-2.453,0.0,0.0,-2.4891,-2.5252,-2.6358,-2.6717,-2.7102,-2.7669,-2.7942,-2.8285,-2.8633,-2.8538,-2.855,-2.8657,-2.8538,-2.851,-2.851,-2.851,-2.851,-2.851,-2.851,-2.851,-2.851,-2.851,-2.8657,-2.8922,-2.9052,-2.9423,-2.9972,-3.0731,-3.1173,-3.1461,-3.2315,-3.2679,-3.2704,-3.2968,-3.3124,-3.3124,-3.3124,-3.3124,-3.3124,-2.4033,-2.4312,-2.4497,-2.4497,-2.4497,-2.4497,-2.4497,-2.4404,-2.4957,-2.6595,-2.6012,-2.6012,-2.7519,-2.647,-2.567,-2.567,-2.5253,-2.5008,-2.5008,-2.4863,-2.5059,-2.5573,-2.5691,-2.5859,-2.6163,-2.6411,-2.6152,-2.5349,-2.5529,-2.5161,-2.4368,-2.4882,-2.5572,-2.6444,-2.6984,-2.7672,-2.8438,-2.7342,-2.6898,-2.6801,-2.5709,-2.5312,-2.5312,-2.5312,-2.5312,-2.5312,-2.5312,-2.5312,-2.5312,-2.5312,-2.5312,-2.5312,-2.5312,-2.5312,-2.5312,-2.5312,-2.5865,-2.6453,-2.6178,-2.6009,-2.5817,-2.5408,-2.5312,-2.5312,-2.5312,-2.5312,-2.5312,-2.5312,-2.5312,-2.5312,-2.5312,-2.5312,-2.5228,-2.4987,0.0,0.0,0.0,-2.4482,-2.4578,-2.5769,-2.6298,-2.6777,-2.7438,-2.7909,-2.8325,-2.8712,-2.8578,-2.8578,-2.8803,-2.8657,-2.8578,-2.8578,-2.851,-2.851,-2.851,-2.851,-2.851,-2.851,-2.855,-2.8697,-2.8882,-2.9079,-2.9349,-2.9745,-3.0891,-3.1461,-3.165,-3.2667,-3.3124,-3.3124,-3.3124,-3.3124,-3.3124,-3.3124,-3.3124,-3.3124,-2.4456,-2.4476,-2.4497,-2.4497,-2.4497,-2.4497,-2.4497,-2.4188,-2.4388,-2.5734,-2.5505,-2.555,-2.6335,-2.6148,-2.5949,-2.5949,-2.5706,-2.5536,-2.5536,-2.5096,-2.5059,-2.5573,-2.5956,-2.5848,-2.5129,-2.511,-2.5261,-2.5494,-2.3963,-2.3374,-2.357,-2.3813,-2.4414,-2.5385,-2.6619,-2.7672,-2.8438,-2.7342,-2.6898,-2.6801,-2.5709,-2.5312,-2.5312,-2.5312,-2.5312,-2.5312,-2.5312,-2.5312,-2.5312,-2.5312,-2.5312,-2.5312,-2.5312,-2.5312,-2.5312,-2.5312,-2.536,-2.5528,-2.5973,-2.5745,-2.536,-2.5312,-2.5312,-2.5312,-2.5312,-2.5312,-2.5312,-2.5312,-2.5312,-2.5312,-2.5312,-2.5312,-2.4999,-2.4071,0.0,0.0,-2.4047,-2.4638,-2.524,-2.536,-2.5396,-2.5805,-2.6849,-2.6994,-2.7464,-2.8438,-2.851,-2.8578,-2.8803,-2.8803,-2.8803,-2.8803,-2.8618,-2.851,-2.851,-2.851,-2.851,-2.851,-2.8685,-2.8882,-2.9091,-2.9275,-2.9795,-3.0543,-3.1148,-3.1675,-3.2202,-3.2817,-3.3124,-3.3124,-3.3124,-3.3124,-3.3124,-3.3124,-3.3124,-3.3124,-2.4497,-2.4497,-2.4497,-2.4497,-2.4497,-2.4497,-2.4497,-2.4352,-2.483,-2.6378,-2.5997,-2.6296,-2.8252,-2.7076,-2.6409,-2.6942,-2.5814,-2.4993,-2.4707,-2.3899,-2.3607,-2.3957,-2.5018,-2.4978,-2.3664,-2.3398,-2.3286,-2.3338,-2.2172,-2.159,-2.1476,-2.1708,-2.2727,-2.4442,-2.5487,-2.6927,-2.8414,-2.7007,-2.661,-2.6777,-2.5348,-2.5011,-2.5312,-2.5312,-2.5312,-2.5312,-2.5312,-2.5312,-2.5312,-2.5312,-2.5312,-2.5312,-2.5312,-2.5312,-2.5312,-2.5312,-2.5312,-2.5348,-2.5552,-2.5456,-2.5312,-2.5312,-2.5312,-2.5312,-2.5312,-2.5312,-2.5312,-2.5312,-2.5312,-2.5312,-2.5312,-2.5312,-2.518,-2.4783,0.0,-2.5168,-2.4771,-2.5059,-2.5312,-2.5312,-2.5901,-2.6441,-2.6861,-2.7486,-2.8077,-2.8474,-2.851,-2.855,-2.8618,-2.8618,-2.8618,-2.8618,-2.855,-2.8538,-2.8685,-2.8685,-2.8736,-2.8855,-2.8973,-2.9013,-2.9091,-2.9314,-2.9582,-2.9922,-3.0957,-3.1512,-3.1775,-3.2692,-3.3124,-3.3124,-3.3124,-3.3124,-3.3124,-3.3124,-3.3124,-3.3124,-2.4497,-2.4497,-2.4497,-2.4497,-2.4497,-2.4497,-2.4497,-2.4618,-2.5187,-2.6513,-2.6319,-2.6642,-2.8359,-2.7182,-2.6363,-2.6543,-2.5373,-2.445,-2.4131,-2.3351,-2.2728,-2.2341,-2.3613,-2.3607,-2.2023,-2.1931,-2.1691,-2.125,-2.0755,-2.0324,-1.994,-2.0526,-2.1638,-2.3129,-2.4382,-2.5771,-2.7109,-2.6068,-2.5817,-2.6045,-2.4928,-2.47,-2.5083,-2.5252,-2.5312,-2.5312,-2.5312,-2.5312,-2.5312,-2.5312,-2.5312,-2.5312,-2.5312,-2.5312,-2.5312,-2.5312,-2.5312,-2.5312,-2.5312,-2.5312,-2.5312,-2.5312,-2.5312,-2.5312,-2.5312,-2.5312,-2.5312,-2.5312,-2.5312,-2.5312,-2.5312,-2.5312,-2.5312,-2.5312,-2.5312,-2.5312,-2.5312,-2.5312,-2.5312,-2.5312,-2.6117,-2.6705,-2.6873,-2.7702,-2.833,-2.8498,-2.851,-2.855,-2.8578,-2.8669,-2.8709,-2.8709,-2.8709,-2.8776,-2.8988,-2.887,-2.8882,-2.9091,-2.917,-2.9197,-2.9209,-2.9617,-2.977,-2.9833,-3.1091,-3.165,-3.1725,-3.2679,-3.3124,-3.3124,-3.3124,-3.3124,-3.3124,-3.3124,-3.3124,-3.3124,-2.4497,-2.4497,-2.4497,-2.4497,-2.4497,-2.4497,-2.4497,-2.4921,-2.5376,-2.5764,-2.6231,-2.6319,-2.5889,-2.6138,-2.5752,-2.4421,-2.4183,-2.4084,-2.4061,-2.3709,-2.2684,-2.0871,-2.1868,-2.1757,-2.0227,-2.0917,-2.073,-1.9604,-1.9795,-1.9696,-1.9323,-2.0647,-2.1293,-2.1387,-2.3385,-2.4276,-2.4325,-2.4457,-2.4484,-2.4484,-2.4518,-2.4484,-2.4578,-2.5107,-2.5312,-2.5312,-2.5312,-2.5312,-2.5312,-2.5312,-2.5312,-2.5312,-2.5312,-2.5312,-2.5312,-2.5312,-2.5312,-2.5312,-2.5312,-2.5312,-2.5312,-2.5312,-2.5312,-2.5312,-2.5312,-2.5312,-2.5312,-2.5312,-2.5312,-2.5312,-2.5312,-2.5312,-2.5312,-2.5312,-2.5312,-2.5312,-2.5312,-2.5312,-2.5312,-2.5312,-2.5781,-2.6322,-2.6849,-2.7378,-2.7945,-2.8474,-2.851,-2.8578,-2.8803,-2.9,-2.9091,-2.9091,-2.9091,-2.9197,-2.9419,-2.8988,-2.8922,-2.9091,-2.9314,-2.9419,-2.9443,-3.0226,-3.062,-3.0683,-3.1738,-3.2215,-3.2252,-3.283,-3.3124,-3.3124,-3.3124,-3.3124,-3.3124,-3.3124,-3.3124,-3.3124,-2.4497,-2.4497,-2.47,-2.5306,-2.5421,-2.5631,-2.6246,-2.6453,-2.6816,-2.7574,-2.7227,-2.7353,-2.849,-2.7549,-2.6605,-2.5905,-2.5413,-2.4357,-2.2466,-2.1446,-2.0653,-2.0102,-2.0823,-2.0668,-1.9455,-1.9377,-1.9324,-1.9309,-1.8964,-1.879,-1.8838,-1.9205,-2.019,-2.1626,-2.2512,-2.3691,-2.4957,-2.4294,-2.4194,-2.446,-2.4133,-2.4206,-2.4578,-2.5107,-2.5312,-2.5312,-2.5312,-2.5312,-2.5312,-2.5312,-2.5312,-2.5312,-2.5312,-2.5312,-2.5312,-2.5312,-2.5312,-2.5312,-2.5312,-2.5312,-2.5312,-2.5312,-2.5312,-2.5312,-2.5312,-2.5312,-2.5312,-2.5312,-2.5312,-2.5312,-2.5312,-2.5312,-2.5312,-2.5312,-2.5312,-2.5312,-2.5312,-2.5312,-2.5444,-2.5817,-2.6309,-2.6861,-2.739,-2.7969,-2.8342,-2.8498,-2.851,-2.8578,-2.8803,-2.8882,-2.8961,-2.9091,-2.9091,-2.9197,-2.9419,-2.9263,-2.9353,-2.9585,-2.9663,-2.9863,-3.0226,-3.0091,-3.0444,-3.1173,-3.1499,-3.1851,-3.2252,-3.283,-3.3124,-3.3124,-3.3124,-3.3124,-3.3124,-3.3124,-3.3124,-3.3124,-2.4497,-2.4497,-2.4658,-2.5179,-2.5579,-2.5986,-2.6524,-2.7191,-2.7851,-2.8422,-2.8303,-2.8462,-2.9209,-2.8303,-2.7237,-2.6242,-2.5195,-2.3787,-2.1991,-2.0903,-2.0296,-2.0296,-2.0246,-1.991,-1.9287,-1.89,-1.8816,-1.8917,-1.8544,-1.8408,-1.8493,-1.8389,-1.9038,-2.0263,-2.1081,-2.2103,-2.3257,-2.3203,-2.3316,-2.3604,-2.3758,-2.3986,-2.4302,-2.5035,-2.5312,-2.5312,-2.5312,-2.5312,-2.5312,-2.5312,-2.5312,-2.5312,-2.5312,-2.5312,-2.5312,-2.5312,-2.5312,-2.5312,-2.5312,-2.5312,-2.5312,-2.5312,-2.5312,-2.5312,-2.5312,-2.5312,-2.5312,-2.5312,-2.5312,-2.5312,-2.5312,-2.5312,-2.5312,-2.5312,-2.5312,-2.5312,-2.5312,-2.5312,-2.5432,-2.5745,-2.6429,-2.7018,-2.7342,-2.8077,-2.855,-2.8618,-2.8618,-2.8697,-2.8922,-2.8922,-2.9,-2.9197,-2.9326,-2.9456,-2.956,-2.956,-2.965,-2.9792,-2.9792,-2.9967,-3.0294,-3.0382,-3.0783,-3.1411,-3.1863,-3.2252,-3.2579,-3.293,-3.3124,-3.3124,-3.3124,-3.3124,-3.3149,-3.3319,-3.3407,-3.3407,-2.4497,-2.4497,-2.454,-2.4615,-2.5348,-2.5944,-2.6027,-2.7476,-2.8581,-2.8621,-2.9209,-2.9339,-2.8581,-2.8502,-2.7703,-2.5677,-2.3916,-2.2698,-2.2283,-2.148,-2.1031,-2.1,-2.0021,-1.9485,-1.9492,-1.9178,-1.8841,-1.8482,-1.8448,-1.8381,-1.8269,-1.8076,-1.8042,-1.8144,-1.9441,-2.0063,-2.0258,-2.1569,-2.2123,-2.2282,-2.3372,-2.3806,-2.3914,-2.4915,-2.5312,-2.5312,-2.5312,-2.5312,-2.5312,-2.5312,-2.5312,-2.5312,-2.5312,-2.5312,-2.5312,-2.5312,-2.5312,-2.5312,-2.5312,-2.5312,-2.5312,-2.5312,-2.5312,-2.5312,-2.5312,-2.5312,-2.5312,-2.5312,-2.5312,-2.5312,-2.5312,-2.5312,-2.5312,-2.5312,-2.5312,-2.5312,-2.5312,-2.5312,-2.5348,-2.5444,-2.6297,-2.6934,-2.703,-2.7945,-2.8578,-2.8764,-2.8764,-2.8843,-2.9052,-2.9091,-2.9197,-2.938,-2.965,-2.9792,-2.9792,-2.9792,-2.9792,-2.9792,-2.9792,-2.9842,-2.9967,-3.0896,-3.1399,-3.1599,-3.2579,-3.3074,-3.3124,-3.3124,-3.3124,-3.3124,-3.3124,-3.3124,-3.3144,-3.3696,-3.3872,-3.3822,-2.4497,-2.4497,-2.4743,-2.5379,-2.6246,-2.7069,-2.7799,-2.8648,-2.9263,-2.9495,-2.8922,-2.8474,-2.8502,-2.8502,-2.7466,-2.4948,-2.3116,-2.1967,-2.1756,-2.0994,-2.042,-2.0104,-1.952,-1.9294,-1.9481,-1.8839,-1.8438,-1.8337,-1.8178,-1.8076,-1.8076,-1.8008,-1.8269,-1.8821,-1.911,-1.9857,-2.0901,-2.1198,-2.1663,-2.2282,-2.3372,-2.3806,-2.3914,-2.4915,-2.5312,-2.5312,-2.5312,-2.5312,-2.5312,-2.5312,-2.5312,-2.5312,-2.5312,-2.5312,-2.5312,-2.5312,-2.5312,-2.5312,-2.5312,-2.5312,-2.5312,-2.5312,-2.5312,-2.5312,-2.5312,-2.5312,-2.5312,-2.5312,-2.5312,-2.5312,-2.5312,-2.5312,-2.5312,-2.5312,-2.5312,-2.5312,-2.5312,-2.5312,-2.5624,-2.6441,-2.6753,-2.7222,-2.8089,-2.8378,-2.851,-2.8538,-2.8578,-2.8657,-2.8843,-2.9013,-2.9197,-2.938,-2.965,-2.9792,-2.9792,-2.9792,-2.9792,-2.9792,-2.9792,-3.0231,-3.1035,-3.0859,-3.1486,-3.2747,-3.2491,-3.2654,-3.3124,-3.3124,-3.3124,-3.3124,-3.3124,-3.3124,-3.3144,-3.3696,-3.3621,-3.3257,-2.5137,-2.5432,-2.5757,-2.5788,-2.6524,-2.7273,-2.7758,-2.8079,-2.8433,-2.8813,-2.8148,-2.7596,-2.7549,-2.7565,-2.6748,-2.4758,-2.3129,-2.2168,-2.1995,-2.1058,-2.0416,-2.0191,-1.9457,-1.9109,-1.9273,-1.8542,-1.8245,-1.8414,-1.8279,-1.8212,-1.8144,-1.8042,-1.8202,-1.8519,-1.8844,-1.9398,-2.0117,-2.0484,-2.0952,-2.156,-2.2362,-2.3061,-2.3695,-2.4461,-2.4969,-2.5312,-2.5312,-2.5312,-2.5312,-2.5312,-2.5312,-2.5229,-2.4862,-2.4743,-2.4743,-2.4743,-2.4743,-2.4826,-2.5194,-2.5312,-2.5312,-2.5312,-2.5312,-2.5312,-2.5312,-2.5312,-2.5312,-2.5312,-2.5312,-2.5312,-2.5312,-2.5312,-2.5312,-2.5312,-2.5312,-2.5312,-2.5312,-2.5312,-2.5516,-2.6057,-2.6585,-2.7318,-2.8414,-2.8578,-2.8657,-2.8657,-2.8657,-2.8724,-2.8922,-2.9052,-2.9197,-2.938,-2.965,-2.9792,-2.9792,-3.0055,-3.0306,-3.0545,-3.0294,-3.0482,-3.1035,-3.1273,-3.1851,-3.2667,-3.2641,-3.2805,-3.3124,-3.3124,-3.3124,-3.3124,-3.3124,-3.3124,-3.3144,-3.3696,-3.3721,-3.347,-2.5986,-2.6607,-2.6864,-2.6152,-2.673,-2.7273,-2.711,-2.7151,-2.7312,-2.7642,-2.7057,-2.653,-2.6291,-2.5978,-2.5469,-2.4582,-2.3268,-2.2403,-2.2141,-2.1073,-2.0447,-2.0377,-1.9429,-1.8924,-1.8994,-1.8404,-1.8178,-1.8414,-1.8414,-1.8347,-1.8245,-1.8076,-1.8008,-1.8008,-1.8586,-1.8877,-1.9044,-1.9639,-2.0194,-2.0662,-2.1252,-2.2142,-2.3152,-2.3818,-2.4516,-2.5123,-2.5229,-2.5312,-2.5264,-2.5123,-2.5087,-2.4969,-2.4156,-2.3902,-2.3902,-2.3902,-2.3902,-2.4047,-2.4719,-2.4898,-2.4898,-2.4898,-2.4898,-2.4898,-2.4898,-2.5123,-2.5312,-2.5312,-2.5312,-2.5312,-2.5312,-2.5312,-2.5312,-2.5312,-2.5312,-2.5312,-2.5312,-2.5312,-2.5384,-2.5564,-2.6501,-2.751,-2.8426,-2.8657,-2.8764,-2.8764,-2.8803,-2.8919,-2.9175,-2.918,-2.9273,-2.9555,-2.98,-2.993,-2.993,-3.047,-3.0959,-3.1386,-3.1047,-3.0934,-3.106,-3.1851,-3.2265,-3.239,-3.2867,-3.3124,-3.3124,-3.3124,-3.3124,-3.3124,-3.3124,-3.3124,-3.3131,-3.3583,-3.3822,-3.3897,-2.6771,-2.7028,-2.7069,-2.6946,-2.7678,-2.8051,-2.7232,-2.7315,-2.7372,-2.7204,-2.5692,-2.4789,-2.533,-2.3963,-2.3232,-2.3651,-2.2429,-2.148,-2.1042,-2.0366,-1.9807,-1.9425,-1.8877,-1.8674,-1.8904,-1.86,-1.8313,-1.8076,-1.8076,-1.8076,-1.8042,-1.8008,-1.8008,-1.8008,-1.81,-1.8462,-1.9011,-1.911,-1.9539,-2.0271,-2.1155,-2.1583,-2.1912,-2.3502,-2.4192,-2.4337,-2.5052,-2.5312,-2.5194,-2.4492,-2.4264,-2.412,-2.339,-2.3132,-2.3132,-2.3132,-2.3132,-2.318,-2.3279,-2.3316,-2.3316,-2.3316,-2.3316,-2.3316,-2.3316,-2.4348,-2.5312,-2.5312,-2.5312,-2.5312,-2.5312,-2.5312,-2.5312,-2.5312,-2.5312,-2.5312,-2.5312,-2.5312,-2.5661,-2.6561,-2.7618,-2.8354,-2.8498,-2.851,-2.855,-2.855,-2.8685,-2.8998,-2.9513,-2.9404,-2.9603,-3.0139,-3.0376,-3.0507,-3.0507,-3.1022,-3.1323,-3.1399,-3.18,-3.2265,-3.2729,-3.2378,-3.2491,-3.2968,-3.3043,-3.3124,-3.3124,-3.3124,-3.3124,-3.3124,-3.3124,-3.3124,-3.3124,-3.3156,-3.3483,-3.3897,-2.7312,-2.8048,-2.8462,-2.7971,-2.7961,-2.7984,-2.7884,-2.6553,-2.5735,-2.6278,-2.4683,-2.3516,-2.3682,-2.2966,-2.2465,-2.2377,-2.173,-2.1201,-2.0885,-2.0038,-1.9571,-1.9574,-1.8695,-1.8493,-1.9128,-1.8523,-1.8262,-1.8325,-1.8463,-1.8463,-1.8325,-1.8325,-1.8325,-1.8315,-1.8115,-1.8168,-1.8428,-1.8428,-1.8913,-1.9678,-2.0103,-2.0844,-2.1786,-2.304,-2.3756,-2.4228,-2.5004,-2.5004,-2.4564,-2.4228,-2.3829,-2.3353,-2.2574,-2.2322,-2.2322,-2.2322,-2.2322,-2.2435,-2.2883,-2.2995,-2.2995,-2.2995,-2.2995,-2.2995,-2.2995,-2.3537,-2.4022,-2.4022,-2.4022,-2.4022,-2.4022,-2.4348,-2.4636,-2.4636,-2.5016,-2.5408,-2.5709,-2.5745,-2.6154,-2.721,-2.775,-2.8186,-2.8474,-2.851,-2.851,-2.851,-2.8685,-2.9022,-2.9557,-2.948,-2.9816,-3.0698,-3.0651,-3.0909,-3.1499,-3.1738,-3.2164,-3.2792,-3.3043,-3.2955,-3.2591,-3.2667,-3.3006,-3.352,-3.3206,-3.3257,-3.3508,-3.3206,-3.3124,-3.3124,-3.3124,-3.3124,-3.3124,-3.3124,-3.3232,-3.3432]},{"header":{"parameterUnit":"m.s-1","parameterCategory":1,"la1":30.6,"la2":28.766,"lo1":-90.7593,"lo2":-88.6598,"dy":0.0162,"dx":0.0183,"nx":116,"ny":114,"refTime":"2023-04-05T12:00:00:Z","depth":0,"parameterNumber":3,"parameterNumberName":"V-component_of_WINDS"},"data":[0.0,0.0,0.0,0.0,0.0,0.0,0.0,0.0,0.0,0.0,0.0,0.0,0.0,0.0,0.0,0.0,0.0,0.0,0.0,0.0,0.0,0.0,0.0,0.0,0.0,0.0,0.0,0.0,0.0,0.0,0.0,0.0,0.0,0.0,0.0,0.0,0.0,0.0,0.0,0.0,0.0,0.0,0.0,0.0,0.0,0.0,0.0,0.0,0.0,0.0,0.0,0.0,0.0,0.0,0.0,0.0,0.0,0.0,0.0,0.0,0.0,0.0,0.0,0.0,0.0,0.0,0.0,0.0,0.0,0.0,0.0,0.0,0.0,0.0,0.0,0.0,0.0,0.0,0.0,0.0,0.0,0.0,0.0,0.0,0.0,0.0,0.0,0.0,0.0,0.0,0.0,0.0,0.0,0.0,0.0,0.0,0.0,0.0,0.0,0.0,0.0,0.0,0.0,0.0,0.0,0.0,0.0,0.0,0.0,0.0,0.0,0.0,0.0,0.0,0.0,0.0,0.0,0.0,0.0,0.0,0.0,0.0,0.0,0.0,0.0,0.0,0.0,0.0,0.0,0.0,0.0,0.0,0.0,0.0,0.0,0.0,0.0,0.0,0.0,0.0,0.0,0.0,0.0,0.0,0.0,0.0,0.0,0.0,0.0,0.0,0.0,0.0,0.0,0.0,0.0,0.0,0.0,0.0,0.0,0.0,0.0,0.0,0.0,0.0,0.0,0.0,0.0,0.0,0.0,0.0,0.0,0.0,0.0,0.0,0.0,0.0,0.0,0.0,0.0,0.0,0.0,0.0,0.0,0.0,0.0,0.0,0.0,0.0,0.0,0.0,0.0,0.0,0.0,0.0,0.0,0.0,0.0,0.0,0.0,0.0,0.0,0.0,0.0,0.0,0.0,0.0,0.0,0.0,0.0,0.0,0.0,0.0,0.0,0.0,0.0,0.0,0.0,0.0,0.0,0.0,0.0,0.0,0.0,0.0,0.0,0.0,0.0,0.0,0.0,0.0,0.0,0.0,0.0,0.0,0.0,0.0,0.0,0.0,0.0,0.0,0.0,0.0,0.0,0.0,0.0,0.0,0.0,0.0,0.0,0.0,0.0,0.0,0.0,0.0,0.0,0.0,0.0,0.0,0.0,0.0,0.0,0.0,0.0,0.0,0.0,0.0,0.0,0.0,0.0,0.0,0.0,0.0,0.0,0.0,0.0,0.0,0.0,0.0,0.0,0.0,0.0,0.0,0.0,0.0,0.0,0.0,0.0,0.0,0.0,0.0,0.0,0.0,0.0,0.0,0.0,0.0,0.0,0.0,0.0,0.0,0.0,0.0,0.0,0.0,0.0,0.0,0.0,0.0,0.0,0.0,0.0,0.0,0.0,0.0,0.0,0.0,0.0,0.0,0.0,0.0,0.0,0.0,0.0,0.0,0.0,0.0,0.0,0.0,0.0,0.0,0.0,0.0,0.0,0.0,0.0,0.0,0.0,0.0,0.0,0.0,0.0,0.0,0.0,0.0,0.0,0.0,0.0,0.0,0.0,0.0,0.0,0.0,0.0,0.0,0.0,0.0,0.0,0.0,0.0,0.0,0.0,0.0,0.0,0.0,0.0,0.0,0.0,0.0,0.0,0.0,0.0,0.0,0.0,0.0,0.0,0.0,0.0,0.0,0.0,0.0,0.0,0.0,0.0,0.0,0.0,0.0,0.0,0.0,0.0,0.0,0.0,0.0,0.0,0.0,0.0,0.0,0.0,0.0,0.0,0.0,0.0,0.0,0.0,0.0,0.0,0.0,0.0,0.0,0.0,0.0,0.0,0.0,0.0,0.0,0.0,0.0,0.0,0.0,0.0,0.0,0.0,0.0,0.0,0.0,0.0,0.0,0.0,0.0,0.0,0.0,0.0,0.0,0.0,0.0,0.0,0.0,0.0,0.0,0.0,0.0,0.0,0.0,0.0,0.0,0.0,0.0,0.0,0.0,0.0,0.0,0.0,0.0,0.0,0.0,0.0,0.0,0.0,0.0,0.0,0.0,0.0,0.0,0.0,0.0,0.0,0.0,0.0,0.0,0.0,0.0,0.0,0.0,0.0,0.0,0.0,0.0,0.0,0.0,0.0,0.0,0.0,0.0,0.0,0.0,0.0,0.0,0.0,0.0,0.0,0.0,0.0,0.0,0.0,0.0,0.0,0.0,0.0,0.0,0.0,0.0,0.0,0.0,0.0,0.0,0.0,0.0,0.0,0.0,0.0,0.0,0.0,0.0,0.0,0.0,0.0,0.0,0.0,0.0,0.0,0.0,0.0,0.0,0.0,0.0,0.0,0.0,0.0,0.0,0.0,0.0,0.0,0.0,0.0,0.0,0.0,0.0,0.0,0.0,0.0,0.0,0.0,0.0,0.0,0.0,0.0,0.0,0.0,0.0,0.0,0.0,0.0,0.0,0.0,0.0,0.0,0.0,0.0,0.0,0.0,0.0,0.0,0.0,0.0,0.0,0.0,0.0,0.0,0.0,0.0,0.0,0.0,0.0,0.0,0.0,0.0,0.0,0.0,0.0,0.0,0.0,0.0,0.0,0.0,0.0,0.0,0.0,0.0,0.0,0.0,0.0,0.0,0.0,0.0,0.0,0.0,0.0,0.0,0.0,0.0,0.0,0.0,0.0,0.0,0.0,0.0,0.0,0.0,0.0,0.0,0.0,0.0,0.0,0.0,0.0,0.0,0.0,0.0,0.0,0.0,0.0,0.0,0.0,0.0,0.0,0.0,0.0,0.0,0.0,0.0,0.0,0.0,0.0,0.0,0.0,0.0,0.0,0.0,0.0,0.0,0.0,0.0,0.0,0.0,0.0,0.0,0.0,0.0,0.0,0.0,0.0,0.0,0.0,0.0,0.0,0.0,0.0,0.0,0.0,0.0,0.0,0.0,0.0,0.0,0.0,0.0,0.0,0.0,0.0,0.0,0.0,0.0,0.0,0.0,0.0,0.0,0.0,0.0,0.0,0.0,0.0,0.0,0.0,0.0,0.0,0.0,0.0,0.0,0.0,0.0,0.0,0.0,0.0,0.0,0.0,0.0,0.0,0.0,0.0,0.0,0.0,0.0,0.0,0.0,0.0,0.0,0.0,0.0,0.0,0.0,0.0,0.0,0.0,0.0,0.0,0.0,0.0,0.0,0.0,0.0,0.0,0.0,0.0,0.0,0.0,0.0,0.0,0.0,0.0,0.0,0.0,0.0,0.0,0.0,0.0,0.0,0.0,0.0,0.0,0.0,0.0,0.0,0.0,0.0,0.0,0.0,0.0,0.0,0.0,0.0,0.0,0.0,0.0,0.0,0.0,0.0,0.0,0.0,0.0,0.0,0.0,0.0,0.0,0.0,0.0,0.0,0.0,0.0,0.0,0.0,0.0,0.0,0.0,0.0,0.0,0.0,0.0,0.0,0.0,0.0,0.0,0.0,0.0,0.0,0.0,0.0,0.0,0.0,0.0,0.0,0.0,0.0,0.0,0.0,0.0,0.0,0.0,0.0,0.0,0.0,0.0,0.0,0.0,0.0,0.0,0.0,0.0,0.0,0.0,0.0,0.0,0.0,0.0,0.0,0.0,0.0,0.0,0.0,0.0,0.0,0.0,0.0,0.0,0.0,0.0,0.0,0.0,0.0,0.0,0.0,0.0,0.0,0.0,0.0,0.0,0.0,0.0,0.0,0.0,0.0,0.0,0.0,0.0,0.0,0.0,0.0,0.0,0.0,0.0,0.0,0.0,0.0,0.0,0.0,0.0,0.0,0.0,0.0,0.0,0.0,0.0,0.0,0.0,0.0,0.0,0.0,0.0,0.0,0.0,0.0,0.0,0.0,0.0,0.0,0.0,0.0,0.0,0.0,0.0,0.0,0.0,0.0,0.0,0.0,0.0,0.0,0.0,0.0,0.0,0.0,0.0,0.0,0.0,0.0,0.0,0.0,0.0,0.0,0.0,0.0,0.0,0.0,0.0,0.0,0.0,0.0,0.0,0.0,0.0,0.0,0.0,0.0,0.0,0.0,0.0,0.0,0.0,0.0,0.0,0.0,0.0,0.0,0.0,0.0,0.0,0.0,0.0,0.0,0.0,0.0,0.0,0.0,0.0,0.0,0.0,0.0,0.0,0.0,0.0,0.0,0.0,0.0,0.0,0.0,0.0,0.0,0.0,0.0,0.0,0.0,0.0,0.0,0.0,0.0,0.0,0.0,0.0,0.0,0.0,0.0,0.0,0.0,0.0,0.0,0.0,0.0,0.0,0.0,0.0,0.0,0.0,0.0,0.0,0.0,0.0,0.0,0.0,0.0,0.0,0.0,0.0,0.0,0.0,0.0,0.0,0.0,0.0,0.0,0.0,0.0,0.0,0.0,0.0,0.0,0.0,0.0,0.0,0.0,0.0,0.0,0.0,0.0,0.0,0.0,0.0,0.0,0.0,0.0,0.0,0.0,0.0,0.0,0.0,0.0,0.0,0.0,0.0,0.0,0.0,0.0,0.0,0.0,0.0,0.0,0.0,0.0,0.0,0.0,0.0,0.0,0.0,0.0,0.0,0.0,0.0,0.0,0.0,0.0,0.0,0.0,0.0,0.0,0.0,0.0,0.0,0.0,0.0,0.0,0.0,0.0,0.0,0.0,0.0,0.0,0.0,0.0,0.0,0.0,0.0,0.0,0.0,0.0,0.0,0.0,0.0,0.0,0.0,0.0,0.0,0.0,0.0,0.0,0.0,0.0,0.0,0.0,0.0,0.0,0.0,0.0,0.0,0.0,0.0,0.0,0.0,0.0,0.0,0.0,0.0,0.0,0.0,0.0,0.0,0.0,0.0,0.0,0.0,0.0,0.0,0.0,0.0,0.0,0.0,0.0,0.0,0.0,0.0,0.0,0.0,0.0,0.0,0.0,0.0,0.0,0.0,0.0,0.0,0.0,0.0,0.0,0.0,0.0,0.0,0.0,0.0,0.0,0.0,0.0,0.0,0.0,0.0,0.0,0.0,0.0,0.0,0.0,0.0,0.0,0.0,0.0,0.0,0.0,0.0,0.0,0.0,0.0,0.0,0.0,0.0,0.0,0.0,0.0,0.0,0.0,0.0,0.0,0.0,0.0,0.0,0.0,0.0,0.0,0.0,0.0,0.0,0.0,0.0,0.0,0.0,0.0,0.0,0.0,0.0,0.0,0.0,0.0,0.0,0.0,0.0,0.0,0.0,0.0,0.0,0.0,0.0,0.0,0.0,0.0,0.0,0.0,0.0,0.0,0.0,0.0,0.0,0.0,0.0,0.0,0.0,0.0,0.0,0.0,0.0,0.0,0.0,0.0,0.0,0.0,0.0,0.0,0.0,0.0,0.0,0.0,0.0,0.0,0.0,0.0,0.0,0.0,0.0,0.0,0.0,0.0,0.0,0.0,0.0,0.0,0.0,0.0,0.0,0.0,0.0,0.0,0.0,0.0,0.0,0.0,0.0,0.0,0.0,0.0,0.0,0.0,0.0,0.0,0.0,0.0,0.0,0.0,0.0,0.0,0.0,0.0,0.0,0.0,0.0,0.0,0.0,0.0,0.0,0.0,0.0,0.0,0.0,0.0,0.0,0.0,0.0,0.0,0.0,0.0,0.0,0.0,0.0,0.0,0.0,0.0,0.0,0.0,0.0,0.0,0.0,0.0,0.0,0.0,0.0,0.0,0.0,0.0,0.0,0.0,0.0,0.0,0.0,0.0,0.0,0.0,0.0,0.0,0.0,0.0,0.0,0.0,0.0,0.0,0.0,0.0,0.0,0.0,0.0,0.0,0.0,0.0,0.0,0.0,0.0,0.0,0.0,0.0,0.0,0.0,0.0,0.0,0.0,0.0,0.0,0.0,0.0,0.0,0.0,0.0,0.0,0.0,0.0,0.0,0.0,0.0,0.0,0.0,0.0,0.0,0.0,0.0,0.0,0.0,0.0,0.0,0.0,0.0,0.0,0.0,0.0,0.0,0.0,0.0,0.0,0.0,0.0,0.0,0.0,0.0,0.0,0.0,0.0,0.0,0.0,0.0,0.0,0.0,0.0,0.0,0.0,0.0,0.0,0.0,0.0,0.0,0.0,0.0,0.0,2.5933,2.4026,0.0,0.0,0.0,0.0,0.0,0.0,0.0,0.0,0.0,0.0,0.0,0.0,0.0,0.0,0.0,0.0,0.0,0.0,0.0,0.0,0.0,0.0,0.0,0.0,0.0,0.0,0.0,0.0,0.0,0.0,0.0,0.0,0.0,0.0,0.0,0.0,0.0,0.0,3.393,3.578,3.7782,3.6845,3.5506,3.3902,0.0,0.0,0.0,0.0,0.0,0.0,0.0,0.0,0.0,0.0,0.0,0.0,0.0,0.0,0.0,0.0,0.0,0.0,0.0,0.0,0.0,0.0,0.0,0.0,0.0,0.0,0.0,0.0,0.0,0.0,0.0,0.0,0.0,0.0,0.0,0.0,0.0,0.0,0.0,0.0,0.0,0.0,0.0,0.0,0.0,0.0,0.0,0.0,0.0,0.0,0.0,0.0,0.0,0.0,0.0,0.0,0.0,0.0,0.0,0.0,0.0,0.0,0.0,0.0,0.0,0.0,0.0,0.0,0.0,0.0,2.7984,2.6678,0.0,0.0,0.0,0.0,0.0,0.0,0.0,0.0,0.0,0.0,0.0,0.0,0.0,0.0,0.0,0.0,0.0,0.0,0.0,0.0,0.0,0.0,0.0,0.0,3.0494,3.2752,3.3665,0.0,0.0,0.0,0.0,0.0,0.0,0.0,0.0,3.2275,3.2756,3.3564,3.6416,3.8858,4.0837,4.0774,3.9687,3.7769,3.6425,0.0,0.0,0.0,0.0,0.0,0.0,0.0,0.0,0.0,0.0,0.0,0.0,0.0,0.0,0.0,0.0,0.0,0.0,0.0,0.0,0.0,0.0,0.0,0.0,0.0,0.0,0.0,0.0,0.0,0.0,0.0,0.0,0.0,0.0,0.0,0.0,0.0,0.0,0.0,0.0,0.0,0.0,0.0,0.0,0.0,0.0,0.0,0.0,0.0,0.0,0.0,0.0,0.0,0.0,0.0,0.0,0.0,0.0,0.0,0.0,0.0,0.0,0.0,2.994,3.0015,3.0118,2.9783,3.0265,3.1299,3.0134,2.9682,2.9595,2.7084,0.0,0.0,0.0,0.0,0.0,0.0,0.0,0.0,0.0,0.0,0.0,0.0,0.0,0.0,0.0,0.0,0.0,0.0,0.0,0.0,0.0,2.8697,3.0022,3.1054,3.1821,3.2252,0.0,0.0,0.0,0.0,0.0,0.0,0.0,3.4622,3.5385,3.6192,4.021,4.2345,4.2654,4.2535,4.2699,4.3006,4.0645,3.908,3.8121,0.0,0.0,0.0,0.0,0.0,0.0,0.0,0.0,0.0,0.0,0.0,0.0,0.0,0.0,0.0,0.0,0.0,0.0,0.0,0.0,0.0,0.0,0.0,0.0,0.0,0.0,0.0,0.0,0.0,0.0,0.0,0.0,0.0,0.0,0.0,0.0,0.0,0.0,0.0,0.0,0.0,2.9528,2.9327,0.0,0.0,0.0,0.0,0.0,0.0,0.0,0.0,0.0,0.0,0.0,0.0,0.0,2.987,2.8874,3.1692,3.2902,3.252,3.364,3.4463,3.4931,3.3812,3.3662,3.4277,3.362,0.0,3.0496,3.0597,0.0,0.0,0.0,0.0,0.0,0.0,0.0,0.0,0.0,0.0,0.0,0.0,0.0,0.0,0.0,0.0,0.0,0.0,0.0,0.0,0.0,3.0714,3.2275,3.3617,3.4839,3.5113,3.4105,0.0,0.0,0.0,0.0,3.366,3.2814,3.5026,3.7519,4.0296,4.2157,4.3524,4.44,4.4307,4.4719,4.5426,4.3827,4.1987,4.0019,3.8775,0.0,0.0,0.0,0.0,0.0,0.0,0.0,0.0,0.0,0.0,0.0,0.0,0.0,0.0,0.0,0.0,0.0,0.0,0.0,0.0,0.0,0.0,0.0,0.0,0.0,0.0,0.0,0.0,0.0,0.0,0.0,0.0,0.0,0.0,0.0,0.0,0.0,0.0,0.0,2.9473,2.992,2.9079,2.8946,2.8165,0.0,0.0,0.0,0.0,0.0,0.0,0.0,0.0,0.0,3.132,3.2024,3.2858,3.3807,3.4874,3.5845,3.663,3.6367,3.6581,3.7146,3.5721,3.5415,3.59,3.4949,3.433,3.394,3.1958,3.0119,2.8462,0.0,0.0,0.0,0.0,2.7692,2.7706,0.0,0.0,0.0,0.0,0.0,0.0,0.0,0.0,0.0,0.0,0.0,0.0,3.0968,3.2729,3.4349,3.5867,3.707,3.6983,3.5181,3.519,0.0,0.0,0.0,3.3064,3.2679,3.5757,3.9258,4.3104,4.3308,4.4013,4.5187,4.5343,4.5725,4.6278,4.5806,4.4426,4.2341,4.064,3.9139,3.7766,0.0,0.0,0.0,0.0,0.0,0.0,0.0,0.0,0.0,0.0,0.0,0.0,0.0,0.0,0.0,0.0,0.0,0.0,0.0,0.0,0.0,0.0,0.0,0.0,0.0,0.0,0.0,0.0,0.0,0.0,0.0,0.0,0.0,0.0,0.0,0.0,0.0,3.0377,3.1106,2.9669,3.0924,3.0698,0.0,0.0,0.0,0.0,0.0,0.0,3.2266,3.2529,3.294,3.3563,3.4292,3.5505,3.7218,3.725,3.7997,3.9486,3.8335,3.7928,3.8197,3.7068,3.6726,3.6918,3.6137,3.6337,3.6906,3.3365,3.1718,3.1307,3.0294,2.9694,2.9417,2.9896,3.0071,3.0293,0.0,0.0,0.0,0.0,0.0,0.0,0.0,0.0,0.0,0.0,0.0,3.1031,3.1949,3.359,3.4995,3.5927,3.602,3.5251,3.3435,3.3988,3.3917,3.2878,3.366,3.4507,3.5288,3.7834,4.045,4.3104,4.3869,4.4285,4.4381,4.5074,4.5427,4.5494,4.6139,4.6226,4.5684,4.2988,4.1627,4.0958,3.7587,0.0,0.0,0.0,0.0,0.0,0.0,0.0,0.0,0.0,0.0,0.0,0.0,0.0,0.0,0.0,0.0,0.0,0.0,0.0,0.0,0.0,0.0,0.0,0.0,0.0,0.0,0.0,0.0,0.0,0.0,0.0,0.0,0.0,0.0,0.0,0.0,0.0,0.0,3.2669,3.4402,0.0,0.0,0.0,0.0,3.2492,3.2585,3.3545,3.5653,3.5761,3.618,3.7021,3.7695,3.7572,3.6549,3.8348,3.9329,3.9501,3.936,3.8982,3.8383,3.838,3.8,3.7401,3.8033,3.8257,3.7949,3.5649,3.425,3.3517,3.3351,3.2393,3.138,3.3109,3.3727,3.3924,0.0,0.0,0.0,0.0,0.0,0.0,0.0,0.0,0.0,2.777,3.0074,3.2008,3.2849,3.5487,3.7323,3.7649,3.8639,3.8268,3.5936,3.5943,3.4632,3.1491,3.3171,3.5629,3.8642,4.07,4.2431,4.3874,4.4165,4.4013,4.3468,4.3684,4.4365,4.5379,4.4862,4.5085,4.5747,4.4202,4.2745,4.133,3.935,3.7525,0.0,0.0,0.0,0.0,0.0,0.0,0.0,0.0,0.0,0.0,0.0,0.0,0.0,0.0,0.0,0.0,0.0,0.0,0.0,0.0,0.0,0.0,0.0,0.0,0.0,0.0,0.0,0.0,0.0,0.0,0.0,0.0,0.0,0.0,0.0,0.0,0.0,3.3624,3.6216,0.0,3.4369,3.4965,3.5528,3.5528,3.6415,3.7293,3.8089,3.8586,3.8745,3.8601,3.9281,3.9631,3.9658,4.0352,4.117,4.2143,4.1626,4.1268,4.1007,4.0123,3.9597,3.9291,3.8649,3.8569,3.878,3.718,3.6184,3.5675,3.563,3.5307,3.4924,3.5551,3.5796,3.5874,0.0,0.0,0.0,0.0,0.0,0.0,0.0,0.0,2.7418,2.859,3.07,3.2771,3.4511,3.7031,3.8828,3.9389,4.0462,3.9726,3.649,3.6209,3.4442,3.0627,3.3403,3.6622,4.0015,4.1489,4.2777,4.3893,4.3577,4.312,4.2558,4.2783,4.3302,4.4067,4.383,4.414,4.4796,4.451,4.3702,4.2445,4.0866,3.9369,3.781,0.0,0.0,0.0,0.0,0.0,0.0,0.0,0.0,0.0,0.0,0.0,0.0,0.0,0.0,0.0,0.0,0.0,0.0,0.0,0.0,0.0,0.0,0.0,0.0,0.0,0.0,0.0,0.0,0.0,0.0,0.0,0.0,0.0,0.0,3.4849,3.6837,3.5114,3.8146,3.9322,3.6622,3.7698,3.856,3.856,3.9454,4.0028,4.0028,4.0276,4.0194,3.9696,3.9912,4.0464,4.1409,4.1409,4.2125,4.3582,4.2837,4.2357,4.2092,4.116,4.0597,4.0348,3.9417,3.9276,3.9593,3.848,3.7879,3.7616,3.7308,3.713,3.7084,3.7279,3.7166,3.6929,0.0,0.0,0.0,0.0,0.0,0.0,0.0,2.6419,2.7632,2.9372,3.1072,3.3456,3.6894,3.8086,3.9296,4.0912,4.1087,3.9232,3.4828,3.4581,3.3369,3.0646,3.4519,3.7546,3.9265,4.015,4.1401,4.3066,4.214,4.1694,4.1662,4.2402,4.2269,4.1571,4.3204,4.3639,4.316,4.4013,4.4507,4.4489,4.2141,4.1631,4.1767,0.0,0.0,0.0,0.0,0.0,0.0,0.0,0.0,0.0,0.0,0.0,0.0,0.0,0.0,0.0,0.0,0.0,0.0,0.0,0.0,0.0,0.0,0.0,0.0,0.0,0.0,0.0,0.0,0.0,0.0,0.0,0.0,0.0,3.5112,3.6903,3.8046,3.7367,4.0398,4.1723,3.9647,4.0647,4.1442,4.1442,4.1425,4.1425,4.1442,4.084,4.0475,4.0475,3.9796,4.0111,4.1458,4.1508,4.2208,4.3615,4.2903,4.2158,4.1413,4.1397,4.1044,4.0442,4.0393,4.0393,4.0343,3.9597,3.9299,3.9218,3.8286,3.7825,3.7722,3.8234,3.7966,3.7209,0.0,0.0,0.0,0.0,0.0,0.0,0.0,2.6028,2.7631,2.9372,3.1618,3.3885,3.6113,3.8261,3.9725,4.019,4.0752,3.9507,3.5763,3.6021,3.5378,3.3256,3.6045,3.8161,3.9284,4.1335,4.2316,4.2162,4.1852,4.1379,4.0752,4.0918,4.116,4.1552,4.239,4.2886,4.3127,4.3822,4.4339,4.4636,4.3975,4.3445,4.2863,0.0,0.0,0.0,0.0,0.0,0.0,0.0,0.0,0.0,0.0,0.0,0.0,0.0,0.0,0.0,0.0,0.0,0.0,0.0,0.0,0.0,0.0,0.0,0.0,0.0,0.0,0.0,0.0,0.0,0.0,0.0,3.5713,3.7058,3.6816,3.9148,4.1019,4.1326,4.2632,4.329,4.2691,4.2492,4.2425,4.2425,4.2005,4.1938,4.2392,4.2322,4.225,4.2126,4.2458,4.2824,4.3207,4.3604,4.3992,4.439,4.4191,4.3429,4.2175,4.1629,4.1309,4.1077,4.0061,3.9912,4.0343,3.9597,3.9299,3.9272,3.9013,3.8887,3.8843,3.8985,3.8585,3.79,0.0,0.0,0.0,0.0,0.0,0.0,0.0,2.5576,2.7337,2.9821,3.1423,3.3415,3.625,3.7909,3.896,3.9327,3.9083,3.7734,3.4951,3.4435,3.4229,3.4193,3.6642,3.8411,3.9284,4.1431,4.2135,4.1264,4.1229,4.091,4.0362,4.0316,4.0548,4.1008,4.1317,4.1699,4.2133,4.2828,4.354,4.4232,4.4562,4.4398,4.3813,4.2554,4.083,3.8919,3.7917,3.7095,3.6166,3.4231,0.0,0.0,0.0,0.0,0.0,0.0,0.0,0.0,0.0,0.0,0.0,0.0,0.0,0.0,0.0,0.0,0.0,0.0,0.0,0.0,0.0,0.0,0.0,0.0,3.8109,3.9564,3.9918,4.1359,4.2635,4.3361,4.376,4.3969,4.3969,4.3585,4.3347,4.3347,4.3031,4.2964,4.333,4.3131,4.2964,4.2896,4.3313,4.3681,4.3969,4.4521,4.4976,4.5275,4.4898,4.4241,4.338,4.2038,4.1562,4.1761,4.0365,4.0011,4.0376,3.9945,3.958,0.0,0.0,0.0,0.0,0.0,3.8576,3.8136,0.0,0.0,0.0,0.0,0.0,0.0,0.0,2.4987,2.6848,3.0426,3.0894,3.2496,3.6697,3.7242,3.761,3.8386,3.6882,3.5127,3.3317,3.1715,3.189,3.4244,3.679,3.8507,3.9284,4.0854,4.1272,4.0502,4.0493,4.0413,4.0307,4.0202,4.0156,4.0148,4.0148,4.0298,4.0609,4.1515,4.2467,4.3441,4.425,4.4672,4.4673,4.3172,4.2024,4.1082,3.9986,3.9463,3.8992,3.7036,0.0,0.0,0.0,0.0,0.0,0.0,0.0,0.0,0.0,0.0,0.0,0.0,0.0,0.0,0.0,0.0,0.0,0.0,0.0,0.0,0.0,0.0,0.0,0.0,4.0644,4.2726,4.3663,4.3502,4.3518,4.4088,4.4126,4.4126,4.4126,4.4126,4.4126,4.4126,4.4126,4.4155,4.4126,4.3518,0.0,0.0,0.0,4.3607,4.4361,4.4966,4.5607,4.6257,4.5338,4.4782,4.455,4.2415,4.1801,4.2319,4.0906,4.0326,4.0393,4.031,3.9895,3.9299,3.9299,3.9299,3.9232,3.8576,3.8278,3.8096,0.0,0.0,0.0,0.0,0.0,0.0,0.0,2.4087,2.6159,3.0343,3.0909,3.2277,3.5855,3.6887,3.7371,3.7546,3.6545,3.5137,3.3317,3.3422,3.4086,3.5284,3.7724,3.913,3.9304,4.0246,4.0665,4.0502,4.0441,4.0379,4.0288,3.9582,3.925,3.926,3.926,3.9406,3.9752,4.1252,4.2132,4.2598,4.3406,4.4507,4.5627,4.5242,4.4602,4.3816,4.3432,4.283,4.194,3.9907,3.9416,3.9392,3.7958,3.7345,0.0,0.0,0.0,0.0,0.0,0.0,0.0,0.0,0.0,0.0,0.0,0.0,0.0,0.0,0.0,0.0,0.0,0.0,0.0,4.0984,4.2963,4.4575,4.5957,4.5578,4.5009,4.4553,4.4355,4.4253,4.4253,4.4253,4.4253,4.4253,4.4412,4.4412,4.4281,4.4277,4.4238,4.4063,4.4623,4.5295,4.6018,4.6622,4.703,4.7132,4.6363,0.0,4.4161,4.2427,4.1721,4.1771,4.0198,3.9862,4.0359,3.9763,3.9431,3.9299,3.9299,3.9299,3.9282,3.9149,3.8709,3.8096,0.0,0.0,0.0,0.0,0.0,0.0,0.0,2.3832,2.5649,2.9131,2.9597,3.0574,3.3176,3.3807,3.405,3.405,3.3953,3.3505,3.2571,3.3691,3.4976,3.6246,3.7834,3.8703,3.8703,3.903,3.9404,3.9797,3.8936,3.8887,3.964,3.9238,3.9038,3.9011,3.9011,3.9169,3.9533,4.0727,4.1425,4.1809,4.3002,4.3992,4.4745,4.5114,4.4693,4.3944,4.4235,4.4032,4.3373,4.1934,4.1985,4.2429,4.1225,4.0608,3.9868,0.0,0.0,0.0,0.0,0.0,0.0,0.0,0.0,0.0,0.0,0.0,0.0,0.0,0.0,3.609,3.7577,0.0,4.0409,4.3041,4.4401,4.5534,4.6633,4.6481,4.5974,4.5229,4.4733,4.444,4.444,4.444,4.444,4.444,4.4897,4.4947,4.4474,4.4897,4.5099,4.4997,4.5368,4.5908,4.6634,4.6871,4.6965,4.6948,4.5751,4.5001,4.4583,4.2273,4.1654,4.2273,4.0656,4.0143,4.0441,3.964,3.9299,3.9299,3.9299,3.9299,3.9299,3.9299,3.9083,3.8642,0.0,0.0,0.0,0.0,0.0,0.0,0.0,0.0,2.5083,2.7704,2.8186,2.9,3.0916,3.1044,3.0933,3.0762,3.1764,3.2244,3.1853,3.3658,3.5438,3.6945,3.7555,3.7919,3.8073,3.7971,3.8204,3.8846,3.7482,3.7576,3.8992,3.8884,3.8884,3.8992,3.882,3.8933,3.9314,4.0221,4.0797,4.1242,4.2837,4.3515,4.3571,4.4214,4.3943,4.3324,4.3944,4.4032,4.3808,4.3155,4.3808,4.4746,4.4045,4.3463,4.2499,3.9954,3.8989,0.0,0.0,0.0,0.0,0.0,0.0,0.0,0.0,3.5852,3.6566,3.8384,3.8751,3.9174,4.0485,4.1356,4.2557,4.4699,4.5652,4.638,4.7124,4.7107,4.6786,4.621,4.5466,4.5038,4.5038,4.5038,4.5038,4.5038,4.5568,4.5585,4.4869,4.5382,4.5703,4.5703,4.5568,4.5906,4.6786,4.6515,4.6477,4.6746,4.5165,4.4804,4.5425,4.2546,4.1909,4.2948,4.1343,4.0544,4.0361,3.9681,3.9379,3.9379,3.9352,3.9325,3.9342,3.9299,3.9299,3.9199,0.0,0.0,0.0,0.0,0.0,0.0,0.0,0.0,0.0,2.6802,2.7776,2.9154,3.1617,3.1818,3.1448,3.061,3.2796,3.3552,3.1988,3.4241,3.6083,3.7043,3.7005,3.7281,3.7994,3.7943,3.7915,3.7961,3.777,3.8127,3.8973,3.8218,3.8275,3.8973,3.819,3.804,3.8438,3.9958,4.0797,4.1242,4.2837,4.3515,4.3497,4.352,4.3467,4.3359,4.3269,4.3232,4.3195,4.3122,4.3195,4.3576,4.4924,4.5249,4.4604,4.1814,4.094,3.9788,3.4798,3.4297,3.5583,3.698,3.7347,3.8062,0.0,4.0417,3.9977,4.15,4.1796,4.2066,4.2868,4.3673,4.475,4.6295,4.7175,4.7889,4.8663,4.8206,4.7767,4.7652,4.7005,4.6532,4.6532,4.6532,4.6532,4.6532,4.6616,4.6346,4.5618,4.5669,4.5703,4.5703,4.506,4.541,4.6786,4.6114,4.6452,4.7736,4.622,4.5899,4.6524,4.4063,4.3031,4.3098,4.1489,4.0431,3.9795,3.9685,3.9651,3.9651,3.9511,3.9475,3.9475,3.9352,3.9299,3.9199,0.0,0.0,0.0,0.0,0.0,0.0,0.0,0.0,0.0,0.0,2.5682,2.6657,2.8693,2.9315,2.9597,2.9624,3.1627,3.2773,3.2542,3.4589,3.5924,3.6209,3.6626,3.6761,3.6556,3.6449,3.6607,3.7034,3.6072,3.6258,3.7531,3.7169,3.7445,3.8247,3.8381,3.8648,3.9032,4.0083,4.0764,4.1187,4.2204,4.2954,4.3429,4.3287,4.3233,4.3087,4.2068,4.196,0.0,4.1742,4.1942,4.2759,4.4793,4.514,4.4428,4.2464,4.169,4.0898,3.8188,3.7103,3.7068,3.8486,3.9141,3.9931,4.1613,4.1528,4.158,4.3271,4.365,4.3724,4.4028,4.506,4.6075,4.6684,4.7784,4.8663,4.8968,4.8376,4.8041,4.8494,4.7513,4.6616,4.6194,4.6549,4.643,4.5596,4.6718,4.6938,4.5771,4.6109,4.6346,4.6346,4.5196,4.5094,4.6143,4.5415,4.5585,4.6616,4.5066,4.4993,4.6075,4.3314,4.1748,4.123,4.0572,4.0057,3.9703,3.9703,3.9703,3.9703,3.9625,3.9616,3.954,3.8887,3.8659,3.8493,0.0,0.0,0.0,0.0,0.0,0.0,0.0,0.0,0.0,0.0,2.3711,2.4541,2.6446,2.7142,2.7882,2.8919,3.0223,3.1458,3.2535,3.4119,3.5193,3.5573,3.6168,3.6162,3.5496,3.5338,3.5553,3.6138,3.492,3.5076,3.65,3.6729,3.7255,3.803,3.8908,3.9355,3.9483,4.0403,4.09,4.1086,4.1972,4.2739,4.3323,4.316,4.2959,4.2577,4.116,4.0962,4.1216,4.022,4.0344,4.1233,4.3139,4.3413,4.274,4.1552,4.0671,3.995,3.9368,3.8719,3.8485,3.9549,4.059,4.1569,4.239,4.2561,4.2961,4.4315,4.4615,4.4615,4.4615,4.5816,4.6786,4.6786,4.8037,4.9001,4.9001,4.8376,4.8091,4.8646,4.7564,4.6498,4.5771,4.6363,4.6346,4.5309,4.6887,4.7175,4.5483,4.6278,4.6599,4.6194,4.5173,4.4942,4.5703,4.4987,4.4886,4.5382,4.4045,4.4113,4.5314,4.2912,4.1253,4.0238,4.0036,3.9901,3.979,3.9588,3.9622,3.9807,3.9781,3.9638,3.9318,3.8369,3.8107,3.8065,0.0,0.0,0.0,0.0,0.0,0.0,0.0,0.0,0.0,0.0,0.0,0.0,0.0,2.6475,2.7134,2.8843,2.9102,2.9888,3.1524,3.2555,3.3848,3.553,3.5496,3.5432,3.5393,3.5273,3.5209,3.5248,3.519,3.5621,3.6519,3.7292,3.8059,3.8803,3.9679,3.9762,3.9312,4.0896,4.1274,4.0953,4.254,4.3178,4.3196,4.3141,4.2632,4.1796,4.0854,4.051,4.0311,3.8854,3.8394,3.8574,3.9549,3.9771,3.9487,3.8669,3.7261,3.6033,3.6345,3.7709,3.9312,4.0306,4.1955,4.3521,4.4327,4.4513,4.453,4.4598,4.4615,4.4615,4.4615,4.5816,4.6786,4.6786,4.8037,4.9001,4.9001,4.8376,4.7889,4.7922,4.7259,4.6498,4.5771,4.6363,4.6769,4.6735,4.7462,4.6955,4.475,4.602,4.6126,4.4716,4.4632,4.4942,4.5703,4.4987,4.4615,4.4632,4.3809,4.3842,4.4615,4.3741,4.253,4.1136,4.04,4.0079,4.002,3.9326,3.9445,4.007,3.9935,3.9463,3.8706,3.7852,3.7895,3.8285,0.0,0.0,0.0,0.0,0.0,0.0,0.0,0.0,0.0,0.0,0.0,0.0,0.0,0.0,0.0,0.0,2.8181,2.8845,2.8879,3.1299,3.296,3.3463,3.4584,3.5166,3.5081,3.5009,3.501,3.501,3.501,3.5457,3.6302,3.6578,3.7432,3.874,3.885,3.9024,3.921,3.9526,4.0404,4.1538,4.0941,4.1669,4.2887,4.0689,3.9675,3.9113,0.0,3.6816,3.7955,3.6359,3.624,3.7033,3.8872,3.8726,3.7853,3.7531,3.7029,3.6812,3.7881,3.9371,4.0797,4.1544,4.2969,4.4265,4.4547,4.4615,4.4615,4.4615,4.3386,4.2337,4.2337,4.3149,4.3961,4.4468,4.665,4.846,4.8934,4.8798,4.8646,4.8646,4.7547,4.6887,4.7158,4.6938,4.638,4.5427,4.6481,4.6633,4.5399,4.6261,4.6346,4.5348,4.5331,4.5213,4.4959,4.4733,4.4615,4.4598,4.3792,4.3047,4.232,4.2066,4.1407,4.0434,3.9681,3.936,3.9292,3.8565,3.87,3.9309,3.8787,3.8712,3.8779,3.7506,3.7107,3.7064,0.0,0.0,0.0,0.0,0.0,0.0,0.0,0.0,0.0,0.0,0.0,0.0,0.0,0.0,0.0,0.0,0.0,2.6643,2.7004,2.909,3.0536,3.1056,3.2765,3.3669,3.358,3.3856,3.4007,3.4007,3.4605,3.5192,3.577,3.6679,3.7583,3.8486,3.8623,3.8788,3.8956,3.9031,3.9495,4.0121,3.9003,3.9331,4.0236,3.7845,3.6743,0.0,3.381,3.3773,3.4748,3.3991,3.3927,3.4501,3.6542,3.654,3.5934,3.6757,3.7194,3.7733,3.9153,4.0464,4.1586,4.2159,4.3058,4.3938,4.4479,4.4615,4.4654,4.4814,4.301,4.1418,4.1495,4.2039,4.237,4.1907,4.435,4.6638,4.7682,4.7361,4.7513,4.8849,4.7936,4.7276,4.7496,4.7327,4.6583,4.5094,4.6363,4.6532,4.4976,4.6092,4.621,4.4925,4.5415,4.5348,4.4615,4.4615,4.4327,4.3785,4.2997,4.2134,4.1204,4.1204,4.0646,3.9673,3.892,3.8616,3.8548,3.7804,3.7939,3.8565,3.8091,3.8024,3.8091,3.7151,3.6557,3.6144,0.0,0.0,0.0,0.0,0.0,0.0,0.0,0.0,0.0,0.0,0.0,0.0,0.0,0.0,0.0,0.0,0.0,0.0,2.5775,2.6053,2.6837,2.8434,3.0108,3.0991,3.0991,3.1733,3.2141,3.2198,3.3771,3.4605,3.4737,3.7179,3.8162,3.7873,3.8689,3.872,3.8235,3.8951,3.8314,3.6814,3.6723,3.6309,3.5641,3.47,3.3918,3.3176,3.2325,3.1528,3.0998,3.1799,3.1673,3.1473,3.3121,3.3647,3.4099,3.6433,3.7701,3.8598,3.9917,4.0867,4.1625,4.2142,4.2296,4.2692,4.4259,4.4626,4.4742,4.505,4.3296,4.1646,4.1654,4.2228,4.1876,3.9451,4.161,4.4102,4.5652,4.4654,4.5049,4.8629,4.8426,4.7699,4.6972,4.7513,4.728,4.5821,4.701,4.657,4.3663,4.5602,4.5788,4.3578,4.4942,4.5348,4.4615,4.453,4.3735,4.2236,4.1525,4.1187,4.1136,4.1136,4.0358,3.8954,3.8176,3.7838,3.7787,3.7026,3.7161,3.7838,3.7804,3.7381,3.6795,3.6761,3.6265,3.5577,0.0,0.0,0.0,0.0,0.0,0.0,0.0,0.0,0.0,0.0,0.0,0.0,0.0,0.0,0.0,0.0,0.0,0.0,2.232,2.4016,2.5227,2.5687,2.7282,2.8149,2.8149,2.8356,2.877,2.9418,2.9748,3.0544,3.181,3.294,3.3753,3.4234,3.4258,3.4163,3.4,3.3454,3.3589,3.4083,3.2965,3.3421,3.4483,3.197,3.127,3.1419,3.0012,2.9378,2.9324,3.0133,3.1872,3.4063,3.6272,3.6979,3.7212,3.8444,3.9315,3.9914,3.9909,4.0697,4.1571,4.1877,4.2108,4.2692,4.4259,4.4879,4.4644,4.303,4.118,3.9247,3.7241,3.8332,3.9607,3.9798,4.325,4.6447,4.7953,4.8291,4.8748,4.9695,4.9171,4.8663,4.846,4.8122,4.728,4.5821,4.6566,4.6498,4.5196,4.6194,4.6278,4.5162,4.55,4.5348,4.4615,4.3481,4.2405,4.1474,4.1288,4.0916,4.0383,4.0383,3.9893,3.892,3.7642,3.7083,3.7009,3.6231,3.6366,3.7009,3.6434,3.6434,3.6728,3.6129,3.5769,3.56,0.0,0.0,0.0,0.0,0.0,0.0,0.0,0.0,0.0,0.0,0.0,0.0,0.0,0.0,0.0,0.0,0.0,0.0,0.0,2.2821,2.3782,2.3817,2.5393,2.6265,2.6265,2.6617,2.6859,2.6999,2.7663,2.8643,2.9942,3.069,3.1765,3.3046,3.2208,3.196,3.2127,3.1209,3.0912,0.0,0.0,2.9904,3.0829,2.8788,2.8654,2.945,2.8663,2.9049,3.0142,3.1265,3.3421,3.582,3.6834,3.7142,3.7504,3.9351,4.0184,4.0546,4.0797,4.1585,4.2247,4.1899,4.2209,4.2695,4.3017,4.3316,4.2946,4.1064,3.9029,3.7186,3.5712,3.7203,3.855,3.817,4.188,4.5568,4.7733,4.7817,4.8392,5.0355,4.9932,4.9357,4.9035,4.8934,4.8257,4.6786,4.7056,4.6819,4.5771,4.6092,4.6126,4.572,4.5703,4.5179,4.4079,4.2878,4.2083,4.1677,4.1677,4.1457,4.106,4.0713,3.9817,3.8464,3.7635,3.6891,3.6231,3.5785,3.5876,3.6231,3.5769,3.5893,3.6214,3.5752,3.56,3.56,0.0,0.0,0.0,0.0,0.0,0.0,0.0,0.0,0.0,0.0,2.3678,2.4217,0.0,0.0,0.0,0.0,0.0,0.0,0.0,0.0,2.2626,2.2536,2.3915,2.4701,2.4701,2.5369,2.539,2.4717,2.6148,2.7211,2.7933,2.8877,3.0257,3.1942,3.0686,3.0395,3.0796,2.993,2.8794,2.7518,2.6658,2.6417,2.6502,0.0,2.6555,2.7713,2.7992,2.9637,3.1887,3.3477,3.5371,3.6967,3.6432,3.6287,3.6879,3.9625,4.0456,4.0691,4.1592,4.2364,4.2736,4.1955,4.2243,4.2421,4.1316,4.1103,4.0658,3.8876,3.6998,3.5653,3.5466,3.7156,3.8022,3.6378,3.9588,4.342,4.6633,4.5906,4.6566,5.0727,5.0456,4.9695,4.9069,4.9576,4.934,4.7838,4.7821,4.731,4.5923,4.5855,4.572,4.5415,4.5399,4.4671,4.3105,4.2574,4.2236,4.2151,4.2236,4.2236,4.2117,4.1288,3.9817,3.7889,3.7686,3.6834,3.56,3.56,3.56,3.56,3.56,3.56,3.56,3.56,3.5644,3.5672,0.0,0.0,0.0,0.0,0.0,0.0,0.0,0.0,0.0,0.0,2.3561,2.3426,0.0,0.0,0.0,0.0,0.0,0.0,0.0,0.0,0.0,2.1643,2.1897,2.206,2.206,2.2205,2.2234,2.2136,2.2328,2.2516,2.274,2.405,2.4848,2.5201,2.5442,2.5679,2.5843,2.4662,2.4059,2.3949,2.4252,2.4715,2.5288,2.5892,0.0,0.0,2.796,2.9506,3.1634,3.3411,3.5524,3.7578,3.8433,3.8922,3.9296,3.9833,4.0237,4.042,3.9986,4.0199,4.0648,4.1318,4.1307,4.1037,4.0425,4.0631,3.9813,3.5742,3.5638,3.5581,3.3354,3.472,3.6771,3.8534,4.0789,4.3775,4.802,4.7885,4.8308,5.0881,5.0016,4.9137,4.9018,4.912,4.8578,4.7107,4.7564,4.753,4.665,4.6599,4.5754,4.3849,4.3798,4.3071,4.161,4.2049,4.1982,4.1407,4.1999,4.1982,4.1356,4.0003,3.8836,3.7838,3.6546,0.0,3.56,3.56,3.56,3.56,3.56,3.56,3.56,3.56,3.5849,3.6131,0.0,0.0,0.0,0.0,0.0,0.0,0.0,2.4475,2.4484,2.3955,2.3858,2.3847,2.3891,2.3069,2.2792,0.0,0.0,0.0,0.0,0.0,0.0,0.0,0.0,0.0,2.2923,2.2878,2.2509,2.1764,0.0,2.1688,2.2139,2.227,2.3008,2.4143,2.3632,2.3676,2.4069,2.308,2.2901,2.3329,2.3473,2.4225,2.5318,0.0,0.0,0.0,2.75,2.8819,3.0569,3.1355,3.3704,3.6568,3.8169,3.8765,3.9036,3.9715,3.9995,4.0201,4.051,4.0542,4.0722,4.1705,4.1655,4.0848,3.8839,3.8584,3.7523,3.3122,3.3317,3.3863,3.2528,3.4287,3.6317,3.7594,4.0825,4.414,4.69,4.8308,4.9593,5.1016,5.0591,4.9999,4.961,4.9221,4.8562,4.7462,4.7344,4.7175,4.6802,4.643,4.5365,4.3443,4.3392,4.2682,4.1221,4.1931,4.2117,4.1779,4.2117,4.21,4.1711,4.0257,3.8971,3.7838,3.6705,3.6214,3.6197,3.5769,3.5859,3.618,3.5752,3.56,3.56,3.56,3.5739,3.5893,0.0,0.0,0.0,0.0,0.0,0.0,2.3883,2.4469,2.4626,2.3829,2.4325,2.4533,2.4006,2.3775,2.3773,0.0,0.0,0.0,0.0,0.0,0.0,0.0,0.0,0.0,0.0,0.0,0.0,2.2191,2.1677,0.0,0.0,0.0,0.0,0.0,2.2912,2.2736,2.3314,2.264,2.2799,0.0,0.0,2.4221,0.0,0.0,0.0,0.0,0.0,2.7923,2.9075,2.9317,3.14,3.4199,3.6123,3.7166,3.7842,3.8835,3.9218,3.9653,4.1052,4.1224,4.1273,4.2388,4.2149,4.0793,3.7479,3.6627,3.536,3.1116,3.1289,3.2214,3.2283,3.3988,3.5558,3.6122,3.9537,4.292,4.523,4.7505,4.9492,5.1031,5.1065,5.0676,4.9932,4.9204,4.8477,4.7733,4.6989,4.6549,4.6549,4.5872,4.4756,4.3189,4.3308,4.2682,4.1221,4.2083,4.2455,4.2286,4.2286,4.2202,4.1999,4.0375,3.8997,3.7872,3.7134,3.6711,3.6524,3.6045,3.6129,3.6468,3.5859,3.56,3.56,3.56,3.565,3.5734,0.0,0.0,0.0,0.0,0.0,0.0,2.3827,2.4278,2.4575,2.4432,2.4879,2.4935,2.4174,2.4112,2.4686,0.0,0.0,0.0,0.0,0.0,0.0,0.0,0.0,0.0,0.0,0.0,0.0,2.2822,2.1496,0.0,0.0,0.0,0.0,0.0,0.0,2.2194,2.2573,2.2063,0.0,0.0,0.0,0.0,0.0,0.0,0.0,0.0,0.0,2.701,2.7148,2.8819,2.9486,2.9884,3.1707,3.4219,3.6478,3.6591,3.7184,3.8205,4.0113,4.0792,4.1355,4.2842,4.2046,4.0112,3.7124,3.6066,3.4455,3.0046,3.055,3.186,3.2214,3.251,3.3442,3.581,3.605,3.8081,4.4291,4.5126,4.6616,5.0727,5.0608,4.9898,4.9171,4.8443,4.7716,4.6955,4.6227,4.5805,4.5805,4.5094,4.4005,4.2439,4.3064,4.2682,4.1221,4.2608,4.2963,4.2286,4.2286,4.1948,4.1238,3.9089,3.8041,3.7872,3.7134,3.6383,0.0,3.6417,3.6299,3.5701,3.5616,3.56,3.56,3.56,3.5871,3.6174,0.0,0.0,0.0,0.0,0.0,0.0,2.4035,2.4628,2.5006,2.498,2.533,2.5394,2.4819,2.4741,2.4916,2.5326,0.0,0.0,0.0,0.0,0.0,0.0,0.0,0.0,0.0,0.0,2.3847,2.2963,2.2675,0.0,0.0,0.0,0.0,0.0,0.0,2.2105,2.198,2.2233,0.0,0.0,0.0,0.0,0.0,0.0,0.0,0.0,0.0,0.0,2.6118,2.7301,2.8284,2.8996,2.8991,3.0945,3.3731,3.627,3.7466,3.8658,4.1809,4.2555,4.2739,4.3961,4.1998,3.9264,3.7379,3.5372,3.3157,3.0514,3.0881,3.175,3.1914,3.2299,3.2887,3.3723,3.5307,3.7426,4.037,4.316,4.6067,4.9193,5.0275,5.0659,5.0371,4.9272,4.7699,4.5647,4.5196,4.4823,4.435,4.4045,4.3386,4.232,4.2574,4.2252,4.1221,4.2219,4.2811,4.2963,4.1593,4.1035,4.1119,3.8447,3.7229,3.7212,3.6931,3.6857,0.0,3.684,3.6857,3.6884,3.5955,3.56,3.56,3.56,3.5734,3.5849,0.0,0.0,0.0,0.0,0.0,2.3233,2.3806,2.4565,2.5094,2.5065,2.5396,2.5499,2.5167,2.4906,2.468,2.4542,2.5261,0.0,0.0,0.0,0.0,0.0,0.0,0.0,0.0,0.0,2.426,2.3276,2.3405,2.3694,0.0,0.0,2.2839,2.2585,0.0,0.0,0.0,0.0,0.0,0.0,0.0,0.0,0.0,0.0,0.0,0.0,0.0,0.0,0.0,0.0,0.0,2.8182,2.7429,2.8425,3.0624,3.4535,3.6461,3.8053,4.1447,4.2583,4.3062,4.4009,4.1418,3.8328,3.7126,3.4769,3.2347,3.0592,3.1006,3.1732,3.186,3.2214,3.2502,3.2602,3.4429,3.6355,3.7855,4.1088,4.426,4.6876,4.8306,4.924,4.9543,4.8646,4.7073,4.4784,4.4615,4.4231,4.3426,4.3172,4.2844,4.2303,4.2286,4.2151,4.1863,4.2151,4.2557,4.3064,4.1052,4.0257,4.046,3.7963,3.6795,3.6795,3.6795,3.6958,0.0,3.6907,3.6958,3.7127,3.6022,3.56,3.56,3.56,3.56,3.56,0.0,0.0,0.0,0.0,0.0,0.0,2.2906,2.3869,2.4577,2.4518,2.4925,2.5163,2.5027,2.4365,2.4049,2.4367,2.5079,0.0,0.0,0.0,0.0,0.0,0.0,0.0,0.0,0.0,2.3907,2.3891,2.323,2.3628,2.4942,2.2882,2.2336,2.3034,0.0,0.0,0.0,0.0,0.0,0.0,0.0,0.0,0.0,0.0,0.0,0.0,0.0,0.0,0.0,0.0,0.0,0.0,0.0,2.6989,2.7351,3.0462,3.321,3.5677,3.771,3.9863,4.1697,4.2527,4.0092,3.723,3.6085,3.43,3.2229,2.9885,3.0643,3.1823,3.2231,3.1985,3.2092,3.3211,3.2802,3.3794,3.7903,3.8825,4.0321,4.3735,4.4165,4.4597,4.5647,4.5754,4.5415,4.4666,4.4615,4.4231,4.3426,4.2709,4.2303,4.2286,4.2286,4.2642,4.3358,4.2658,4.2286,4.2286,4.0815,3.9732,3.8954,3.7489,3.6795,3.6795,3.6795,3.6349,0.0,3.6468,3.6332,3.5616,3.56,3.56,3.56,3.56,3.56,3.56,0.0,0.0,0.0,0.0,0.0,0.0,2.3299,2.3844,2.4374,2.491,2.524,2.531,2.5042,2.4782,2.459,2.441,2.4606,0.0,0.0,0.0,0.0,0.0,0.0,0.0,0.0,2.3904,2.3904,2.3904,2.4195,2.4559,2.4954,2.3812,2.3151,2.2939,2.2528,2.2137,0.0,0.0,0.0,0.0,0.0,0.0,2.5458,0.0,0.0,0.0,0.0,0.0,0.0,0.0,0.0,0.0,0.0,0.0,0.0,2.7877,3.0577,3.3846,3.6345,3.8132,3.9225,3.9095,3.6878,3.4654,3.4464,3.2581,3.0802,3.0593,3.0986,3.1389,3.1506,3.1859,3.2231,3.2586,3.3327,3.4507,3.6405,3.8921,4.1544,4.4198,4.67,4.815,4.7953,4.7039,4.6143,4.5399,4.4874,4.4231,4.3426,4.32,4.2828,4.2303,4.1331,4.1373,4.2642,4.1914,4.1796,4.2269,4.029,3.9225,3.892,3.6907,3.5994,3.6045,3.7094,3.711,3.6468,3.7229,3.7094,3.6366,3.5802,3.56,3.56,3.56,3.56,3.56,0.0,0.0,0.0,0.0,0.0,0.0,2.3243,2.3782,2.4329,2.4842,2.4893,2.4919,2.4978,2.475,2.4477,2.4223,2.4468,0.0,0.0,0.0,0.0,0.0,0.0,0.0,2.3544,2.4049,2.4191,2.3904,2.4638,2.5005,2.497,2.4255,2.3686,2.3259,2.3009,2.2699,0.0,0.0,0.0,0.0,0.0,0.0,2.5077,0.0,0.0,0.0,0.0,0.0,0.0,0.0,0.0,0.0,0.0,0.0,0.0,0.0,2.8456,3.097,3.3424,3.5527,3.6878,3.6229,3.4406,3.2868,3.3286,3.1589,3.0163,3.0934,3.125,3.1389,3.1389,3.1768,3.2162,3.2435,3.3539,3.4963,3.6587,3.9055,4.1533,4.3781,4.6663,4.8139,4.7411,4.7005,4.638,4.5348,4.457,4.369,4.2642,4.2844,4.2777,4.2303,4.1416,4.1491,4.2709,4.1711,4.1288,4.1457,3.9512,3.843,3.8132,3.6705,3.5893,3.5684,3.7246,3.7313,0.0,3.7161,3.7026,3.6299,3.5785,3.56,3.56,3.56,3.56,3.56,0.0,0.0,0.0,0.0,0.0,0.0,0.0,2.368,2.4342,2.4311,2.4047,2.4191,2.4906,2.4334,2.3904,2.3904,2.4543,0.0,0.0,0.0,0.0,0.0,0.0,0.0,2.2938,2.4223,2.4602,2.3929,2.465,2.5005,2.497,2.4255,2.3904,2.3872,2.3243,2.3027,0.0,0.0,0.0,0.0,0.0,0.0,0.0,0.0,0.0,0.0,0.0,0.0,0.0,0.0,0.0,0.0,0.0,0.0,0.0,0.0,0.0,0.0,0.0,3.2158,3.4394,3.364,3.2424,3.1584,3.2204,3.1075,0.0,3.0761,3.122,3.1521,3.1589,3.1608,3.1863,3.2632,3.3457,3.5044,3.7996,3.9392,4.0822,4.2787,4.4712,4.5466,4.4479,4.5771,4.6109,4.4632,4.3826,4.2794,4.1356,4.1931,4.232,4.2371,4.2371,4.2675,4.3308,4.1914,4.0815,3.9995,3.8599,3.7533,3.688,3.6829,3.6417,3.5853,3.7324,3.7127,3.5735,3.6535,3.6366,3.56,3.56,3.56,3.56,3.56,3.56,3.56,0.0,0.0,0.0,0.0,0.0,0.0,0.0,0.0,0.0,0.0,2.3628,2.4191,2.4906,2.4334,2.3904,0.0,0.0,0.0,0.0,0.0,0.0,0.0,0.0,0.0,2.3001,2.374,2.4233,2.4351,2.4788,2.5005,2.497,2.4255,2.3904,2.3888,2.373,2.4159,0.0,0.0,0.0,0.0,0.0,0.0,0.0,0.0,0.0,0.0,2.3818,2.4165,0.0,0.0,0.0,0.0,0.0,0.0,0.0,0.0,2.6496,2.7238,2.7454,0.0,2.9394,2.9206,2.8897,2.8679,0.0,2.8774,2.8759,2.8916,2.9316,2.9799,3.0376,3.0687,3.1202,3.2246,3.3308,3.4865,3.7323,4.1256,4.3751,4.3331,4.5727,4.5945,4.2354,4.4401,4.5331,4.3809,4.3521,4.3014,4.2083,4.2202,4.2557,4.3132,4.3122,4.2963,4.2557,4.166,4.0561,3.9242,3.8345,3.7821,3.7618,3.7066,3.6992,3.7415,3.8345,3.7889,3.6592,3.733,3.684,3.56,3.56,3.56,3.56,3.56,3.56,3.56,0.0,0.0,0.0,0.0,0.0,0.0,0.0,0.0,0.0,0.0,2.323,2.3591,2.3989,2.367,2.3288,0.0,0.0,0.0,0.0,0.0,0.0,0.0,0.0,2.3006,2.2975,2.3295,2.3825,2.4498,2.4681,2.4766,2.4766,2.437,2.4178,2.4182,2.4339,2.4738,2.5304,2.5059,0.0,0.0,2.4231,0.0,0.0,0.0,0.0,0.0,2.3222,2.3519,0.0,2.4128,2.4291,2.4337,0.0,0.0,0.0,0.0,2.6519,2.694,2.6741,2.7195,2.7654,2.7522,2.7597,2.7833,2.8314,2.8478,2.8679,2.9204,2.9658,3.0039,3.0233,3.1712,3.2892,3.2862,3.5098,3.7519,3.9473,4.1673,4.3254,4.3668,4.4665,4.4654,4.2929,4.4231,4.4553,4.3014,4.2912,4.2422,4.1365,4.161,4.2134,4.2878,4.3206,4.3189,4.2811,4.2422,4.1305,3.9512,3.8768,3.8058,3.7381,3.733,3.7144,3.6918,3.8362,3.7939,3.6315,3.7077,3.6688,3.56,3.56,3.56,3.56,3.56,3.56,3.56,0.0,0.0,0.0,0.0,0.0,0.0,0.0,0.0,0.0,0.0,0.0,0.0,0.0,0.0,0.0,0.0,0.0,0.0,0.0,0.0,0.0,0.0,2.2324,2.2444,2.2757,2.3021,2.3534,2.4338,2.438,2.4416,2.4416,2.4416,2.4457,2.4518,2.4786,2.4966,2.4997,2.4438,2.4271,2.4291,2.3259,0.0,0.0,0.0,0.0,0.0,0.0,0.0,0.0,2.3127,2.3608,2.4107,2.4397,0.0,0.0,0.0,0.0,0.0,2.6691,2.7288,2.777,2.7249,2.7384,2.7859,2.8773,2.8797,2.8903,2.9867,3.0335,3.0642,3.0817,3.3079,3.4736,3.4109,3.7484,4.0787,4.2498,4.1947,4.1909,4.3323,4.2983,4.2844,4.3362,4.3921,4.3582,4.1914,4.1999,4.1474,4.0011,4.073,4.1491,4.21,4.2861,4.325,4.325,4.3325,4.2277,4.0096,3.9478,3.8454,3.7168,3.7787,3.7432,3.6377,3.821,0.0,3.5988,3.6552,3.6315,3.56,3.56,3.56,3.56,3.56,3.56,3.56,0.0,0.0,0.0,0.0,0.0,0.0,0.0,0.0,0.0,0.0,0.0,0.0,0.0,0.0,0.0,0.0,0.0,0.0,0.0,0.0,0.0,2.2375,2.3215,2.32,2.2161,2.3254,2.3755,2.3573,2.3925,2.4067,2.4067,2.4067,2.4229,2.4498,2.4559,2.4842,2.5208,2.4495,2.4055,2.3815,2.362,0.0,0.0,0.0,0.0,0.0,0.0,0.0,0.0,2.3498,2.3677,2.3486,2.4184,0.0,0.0,0.0,0.0,0.0,2.6691,2.7725,2.8474,2.7114,2.7037,2.7326,2.7492,2.7694,2.7927,2.8094,2.817,2.9087,3.1918,3.2124,3.2845,3.5824,3.8492,4.1035,4.3441,4.4419,4.3857,4.107,4.2814,4.2601,3.8403,4.0823,4.1779,3.9665,4.0663,4.073,3.9242,4.046,4.1255,4.1373,4.2083,4.2472,4.2472,4.3098,4.2277,4.0096,3.9986,3.9503,3.8667,3.8768,3.9039,3.9402,0.0,3.8447,3.7516,3.7015,3.6315,3.56,3.56,3.56,3.56,3.56,3.56,3.56,0.0,0.0,0.0,0.0,0.0,0.0,0.0,0.0,0.0,0.0,0.0,0.0,0.0,0.0,0.0,0.0,0.0,0.0,0.0,0.0,2.1178,2.2139,2.2958,2.3135,2.2512,2.2782,2.3073,2.3406,2.3595,2.3674,2.3674,2.3674,2.3867,2.4234,2.4416,2.4742,2.5075,2.436,2.3845,2.3549,0.0,0.0,0.0,0.0,0.0,0.0,0.0,0.0,0.0,0.0,2.3945,2.3889,2.4723,0.0,0.0,0.0,0.0,0.0,2.6923,2.7351,2.7826,2.8083,2.8766,2.947,2.9865,3.0079,3.0041,2.9569,2.9833,3.068,3.2474,3.4111,3.6655,4.1113,4.1485,4.1846,4.3597,4.2291,4.0974,4.047,4.0747,4.0341,3.8742,4.0121,4.0696,3.9673,3.9851,3.9884,3.9622,3.9851,4.0375,4.1187,4.1525,4.1897,4.2286,4.2642,4.21,4.0696,4.0273,3.9723,3.8988,3.8582,3.8362,3.8302,0.0,3.7364,3.6648,3.6755,3.6315,3.5633,3.6079,3.5994,3.56,3.56,3.56,3.56,0.0,0.0,0.0,0.0,0.0,0.0,0.0,0.0,0.0,0.0,0.0,0.0,0.0,0.0,0.0,0.0,0.0,0.0,0.0,2.1,2.1525,2.2178,2.2649,2.2888,2.2888,2.2446,2.2571,2.329,2.329,2.329,2.329,2.329,2.3501,2.3861,2.4114,2.4441,2.4704,2.3822,2.3449,2.3462,0.0,0.0,0.0,0.0,0.0,0.0,0.0,0.0,0.0,0.0,0.0,0.0,0.0,0.0,0.0,2.6522,2.6758,2.6874,2.7133,2.7327,2.7775,2.9161,2.9952,3.0723,3.2022,3.2295,3.2186,3.1899,3.2488,3.3217,3.3773,3.6773,4.0354,4.4013,4.3337,4.2746,4.3828,4.088,3.9227,4.0776,3.962,3.8988,3.9774,3.9851,3.9783,3.9605,3.9208,3.9266,3.9808,3.9614,3.9952,4.0916,4.1119,4.139,4.1788,4.1779,4.1593,4.1204,4.0629,3.9952,3.9225,3.8667,3.8108,3.7557,3.7405,3.6874,3.6174,3.6789,3.6586,3.596,3.6738,3.6688,3.6107,3.5938,3.5893,3.5836,0.0,0.0,0.0,0.0,0.0,0.0,0.0,0.0,0.0,0.0,0.0,0.0,0.0,0.0,0.0,0.0,0.0,0.0,0.0,2.1575,2.2207,2.2801,2.2873,2.2888,2.2888,2.2859,2.2867,2.2933,2.2933,2.2933,2.2933,2.2933,2.312,2.3428,2.3471,2.3696,2.3991,2.2696,2.2725,2.3651,2.3263,0.0,0.0,0.0,0.0,0.0,0.0,0.0,0.0,0.0,0.0,0.0,0.0,0.0,2.6623,2.6674,2.6923,2.7165,2.7197,2.8408,2.9698,2.9837,2.8907,2.871,3.165,3.2244,3.2611,3.4048,3.4971,3.5856,3.688,3.914,4.0686,4.023,4.1878,4.3584,4.4646,4.3516,4.2391,4.1881,4.1315,4.0476,3.9191,3.9073,3.8802,3.8108,3.8633,3.9005,3.9073,4.0324,4.0781,4.0197,4.0832,4.0899,4.0265,4.0265,4.0561,4.1204,4.1153,4.073,4.0028,3.9977,3.991,3.9825,3.9123,3.8413,3.7753,3.7804,3.7381,3.6795,3.7533,3.7787,3.7652,3.6958,3.6711,3.6609,0.0,0.0,0.0,0.0,0.0,0.0,0.0,0.0,0.0,0.0,0.0,0.0,0.0,0.0,0.0,0.0,0.0,0.0,0.0,2.1859,2.228,2.2859,2.2888,2.2888,2.2888,2.2888,2.2888,2.2888,2.2888,2.2888,2.2888,2.2888,2.3075,2.3406,2.3406,2.3616,2.3973,2.3472,2.342,2.3739,2.4157,2.4533,0.0,0.0,0.0,0.0,0.0,0.0,0.0,0.0,2.4896,2.5715,2.6,2.6371,2.6691,2.6691,2.694,2.7244,2.7444,2.8732,3.0048,3.019,2.9821,3.0379,3.3984,3.4775,3.4718,3.4633,3.6037,3.7255,3.7159,4.0723,4.3062,4.1243,4.3107,4.4747,4.4653,4.3547,4.2356,4.1343,4.0669,3.9737,3.8437,3.7889,3.7702,3.7889,3.7719,3.8024,3.8937,3.9529,3.9901,4.0096,4.0383,4.0383,4.0096,4.0096,4.0248,4.0536,4.0536,4.0383,4.0079,3.9639,3.9436,3.9385,3.8633,3.8159,3.7905,3.7905,3.7736,3.7466,3.728,3.6907,3.6428,3.6163,3.6062,3.6011,0.0,0.0,0.0,0.0,0.0,0.0,0.0,0.0,0.0,0.0,0.0,0.0,0.0,0.0,0.0,0.0,0.0,0.0,2.167,2.1873,2.2178,2.2606,2.262,2.2722,2.2888,2.2888,2.2888,2.2888,2.2888,2.2888,2.2888,2.2888,2.3008,2.3246,2.3246,2.3392,2.3646,2.3458,2.3476,2.3714,2.4237,2.4637,0.0,0.0,0.0,0.0,0.0,0.0,0.0,0.0,2.5379,2.6151,2.6151,2.6404,2.6691,2.6691,2.7281,2.7936,2.8175,2.9211,3.0362,3.1013,3.0913,3.1676,3.5623,3.6323,3.6194,3.6407,3.7594,3.8336,3.7538,4.089,4.3081,4.0926,4.2954,4.4549,4.3721,4.2736,4.1727,4.077,4.0291,3.9478,3.8038,3.7432,3.7246,3.7533,3.7297,3.7686,3.892,3.9208,3.9588,4.0079,4.0096,4.0096,4.0096,4.0096,4.0096,4.0096,4.0096,4.0096,4.0079,3.9588,3.9368,3.9334,3.8802,3.8464,3.8278,3.8497,3.8582,3.8514,3.777,3.7161,3.6614,3.6163,3.5994,3.5943,0.0,0.0,0.0,0.0,0.0,0.0,0.0,0.0,0.0,0.0,0.0,0.0,0.0,0.0,0.0,0.0,0.0,0.0,2.1032,2.1627,2.1989,2.1989,2.2004,2.2294,2.2888,2.2888,2.2888,2.2888,2.2888,2.2888,2.2888,2.2888,2.2888,2.2888,2.2888,2.2888,2.2859,2.2265,2.2621,2.3556,2.3182,2.3876,2.523,0.0,0.0,0.0,0.0,0.0,0.0,0.0,2.4647,2.5413,2.5413,2.6,2.6691,2.6691,2.7964,2.9369,2.9369,2.9887,3.0813,3.2376,3.1903,3.2071,3.6071,3.6381,3.6709,3.9858,3.9912,3.9134,3.8354,3.946,4.0003,3.8444,4.0836,4.2592,4.1795,4.1293,4.0821,4.034,4.0579,4.0027,3.8072,3.7905,3.7601,3.688,3.7483,3.8227,3.8954,3.9706,4.0096,4.0096,4.0096,4.0096,4.0096,4.0096,4.0096,4.0096,4.0096,4.0096,4.0096,4.0096,4.0096,4.0096,4.0096,3.969,3.9056,3.9791,4.0079,3.9994,3.9259,3.8971,3.8785,3.7354,3.6795,3.6677,0.0,0.0,0.0,0.0,0.0,0.0,0.0,0.0,0.0,0.0,0.0,0.0,0.0,0.0,0.0,0.0,0.0,0.0,2.1032,2.1627,2.1989,2.1989,2.2403,2.2722,2.2888,2.2888,2.2888,2.2888,2.2888,2.2888,2.2888,2.2888,2.2888,2.2888,2.2888,2.2888,2.2888,2.2722,2.2944,2.3457,2.3483,2.4153,2.515,0.0,0.0,0.0,0.0,0.0,0.0,0.0,0.0,0.0,2.615,2.637,2.664,2.6691,2.741,2.82,2.82,3.0125,3.1994,3.1639,3.2727,3.4275,3.581,3.6447,3.762,4.0834,3.9475,3.781,3.8136,3.946,3.9822,3.7701,3.9532,4.1144,4.089,4.0745,4.0288,3.9278,3.9473,3.9112,3.7676,3.7755,3.7821,3.7584,3.8261,3.8768,3.8988,3.9706,4.0096,4.0096,4.0096,4.0096,4.0096,4.0096,4.0096,4.0096,4.0096,4.0096,4.0096,4.0096,4.0096,4.0096,4.0096,3.9977,3.9757,3.9445,3.8725,3.7811,3.8108,3.7567,3.6614,3.6761,3.6434,3.5926,0.0,0.0,0.0,0.0,0.0,0.0,0.0,0.0,0.0,0.0,0.0,0.0,0.0,0.0,0.0,0.0,0.0,0.0,0.0,2.1627,2.1873,2.1612,2.22,2.2649,2.2888,2.2888,2.2888,2.2888,2.2888,2.2888,2.2902,2.3171,2.3302,2.3302,2.3302,2.3302,2.3273,2.3004,2.3045,2.3282,2.3399,2.3958,2.4719,0.0,0.0,0.0,0.0,0.0,0.0,0.0,0.0,0.0,2.6468,2.6554,2.6724,2.7418,2.7895,2.8467,2.9661,3.1132,3.2525,3.3173,3.4239,3.5396,3.6532,3.7424,3.8657,4.0889,3.9548,3.81,3.8589,3.9441,3.9604,3.8191,3.9134,4.0184,4.0456,4.0239,3.9842,3.9203,3.9166,3.8839,3.7927,3.7882,3.7905,3.7905,3.8582,3.8988,3.8988,3.9706,4.0096,4.0096,4.0096,4.0096,4.0096,4.0096,4.0096,4.0096,4.0096,4.0096,4.0096,4.0096,4.0096,4.0096,4.0096,3.9943,3.9639,3.9174,3.8294,3.7246,3.7398,3.6891,3.6096,3.6265,3.6028,3.56,0.0,0.0,0.0,0.0,0.0,0.0,0.0,0.0,0.0,0.0,0.0,0.0,0.0,0.0,0.0,0.0,0.0,0.0,0.0,2.1605,2.1692,2.1119,2.1728,2.233,2.2888,2.2888,2.2888,2.2888,2.2888,2.2888,2.2902,2.3601,2.3891,2.3891,2.3891,2.3891,2.3871,2.3186,2.297,2.3082,2.3082,2.3473,2.4063,2.4063,0.0,0.0,0.0,0.0,0.0,0.0,0.0,0.0,2.6468,2.6537,2.6875,2.8365,2.8909,2.9622,3.2313,3.2508,3.2723,3.5929,3.6059,3.5893,3.7863,3.8821,3.9496,4.0256,3.9804,3.9297,3.9387,3.935,3.9296,3.9278,3.9296,3.9531,4.0202,3.9713,3.9391,3.9634,3.9348,3.8986,3.8592,3.8252,3.8072,3.8108,3.8717,3.9089,3.9089,3.974,4.0096,4.0096,4.0096,4.0096,4.0096,4.0096,4.0096,4.0096,4.0096,4.0096,4.0096,4.0096,4.0096,4.0096,4.0028,3.9622,3.8988,3.8836,3.8396,3.7736,3.7043,3.6761,3.6626,3.596,3.565,3.56,0.0,0.0,0.0,0.0,0.0,0.0,0.0,0.0,0.0,0.0,0.0,0.0,0.0,0.0,0.0,0.0,0.0,0.0,0.0,2.142,2.1722,2.1786,2.2374,2.2757,2.2888,2.2888,2.2888,2.2888,2.2888,2.2888,2.2902,2.3601,2.3891,2.3891,2.3891,2.3891,2.3871,2.3186,2.2925,2.2947,2.2947,2.3348,2.3943,2.3943,2.44,0.0,0.0,0.0,0.0,0.0,0.0,0.0,2.6433,2.6502,2.6605,2.7063,2.8202,2.9453,3.0087,3.2048,3.414,3.5226,3.652,3.7637,3.8118,3.8336,3.8715,3.9546,3.904,3.8662,3.9278,3.8931,3.8511,3.8462,3.8513,3.8566,3.868,3.8571,3.8483,3.8542,3.8651,3.8797,3.8957,3.9128,3.9347,3.9613,3.9774,3.9859,3.9859,4.0011,4.0096,4.0096,4.0096,4.0096,4.0096,4.0096,4.0096,4.0096,4.0096,4.0096,4.0096,4.0096,4.0096,4.0079,3.9503,3.914,3.8903,3.776,3.7185,3.7032,3.6863,3.64,3.5904,3.6366,3.6146,3.56,0.0,0.0,0.0,0.0,0.0,0.0,0.0,0.0,0.0,0.0,0.0,0.0,0.0,0.0,0.0,0.0,0.0,0.0,0.0,0.0,2.1715,2.1525,2.2403,2.2765,2.2475,2.2765,2.2888,2.2888,2.2888,2.307,2.3389,2.4036,2.4355,2.437,2.4355,2.4167,2.3871,2.3186,2.2888,2.2888,2.2888,2.3187,2.3616,2.3616,2.4042,2.4639,2.4843,0.0,0.0,0.0,0.0,0.0,0.0,0.0,2.6654,2.7466,2.7895,2.8579,3.0745,3.2095,3.3401,3.5451,3.7094,3.8209,3.8209,3.8209,3.8317,3.8785,3.8515,3.8336,3.8752,3.8514,3.8241,3.8209,3.8242,3.8369,3.8734,3.8444,3.8354,3.8734,3.8367,3.8331,3.9035,3.9071,3.9356,4.0036,4.0096,4.0096,4.0096,4.0096,4.0096,4.0096,4.0096,4.0096,4.0096,4.0096,4.0096,4.0096,4.0096,4.0096,4.0096,4.0096,3.991,3.9554,3.9157,3.8582,3.7895,3.7134,3.6552,3.6231,3.6231,3.6197,3.618,3.6214,3.6197,3.6129,0.0,0.0,0.0,0.0,0.0,0.0,0.0,0.0,0.0,0.0,0.0,0.0,0.0,0.0,0.0,0.0,0.0,0.0,0.0,0.0,0.0,2.1017,2.2011,2.2388,2.2004,2.249,2.2786,2.2888,2.3026,2.3418,2.408,2.4563,2.4824,2.4878,2.4824,2.4447,2.3871,2.3209,2.2925,2.2947,2.2955,2.3135,2.3319,2.3319,2.3689,2.4198,2.4261,2.4739,2.5313,2.5446,0.0,0.0,0.0,0.0,2.6737,2.8034,2.7787,2.7909,3.163,3.2224,3.2644,3.6139,3.7595,3.8209,3.8209,3.8209,3.8209,3.8209,3.8209,3.8209,3.8209,3.8209,3.8225,3.8209,3.8209,3.8461,3.9115,3.8625,3.8462,3.9097,3.8187,3.7925,3.9,3.8725,3.8945,4.0019,4.0096,4.0096,4.0096,4.0096,4.0096,4.0096,4.0096,4.0096,4.0096,4.0096,4.0096,4.0096,4.0096,4.0096,4.0096,3.9977,3.9588,3.8988,3.8717,3.7946,3.6795,3.666,3.6197,3.56,3.56,3.6011,3.6502,3.5859,3.6028,3.6485,0.0,0.0,0.0,0.0,0.0,0.0,0.0,0.0,0.0,0.0,0.0,0.0,0.0,0.0,0.0,0.0,0.0,0.0,0.0,0.0,0.0,2.1003,2.1162,2.1496,2.1989,2.2077,2.2374,2.2888,2.3476,2.4109,2.4762,2.4781,2.481,2.481,2.481,2.4447,2.3871,2.3314,2.306,2.3082,2.3201,2.3341,2.3466,2.3466,2.356,2.376,2.4156,2.4364,2.4574,2.5256,2.554,0.0,0.0,0.0,2.6536,2.6824,2.7754,2.8824,2.9416,3.1869,3.476,3.6895,3.781,3.8209,3.8209,3.8209,3.8209,3.8209,3.8209,3.8209,3.8209,3.8259,3.8257,3.8209,3.8241,3.8294,3.8354,3.8281,3.8245,3.8354,3.7846,3.7925,3.9,3.8725,3.8945,4.0019,4.0096,4.0096,4.0096,4.0096,4.0096,4.0096,4.0096,4.0096,4.0096,4.0096,4.0096,4.0096,4.0096,4.0096,4.0079,3.9453,3.9089,3.892,3.7658,3.6981,3.6745,3.6045,3.5701,3.56,3.56,3.5667,3.5735,3.5633,3.5667,3.5735,0.0,0.0,0.0,0.0,0.0,0.0,0.0,0.0,0.0,0.0,0.0,0.0,0.0,0.0,0.0,0.0,0.0,0.0,0.0,0.0,0.0,1.9943,2.0611,2.1133,2.1423,2.1801,2.2309,2.2888,2.3572,2.4098,2.446,2.4786,2.5111,2.5456,2.5068,2.4606,2.4095,2.348,2.3223,2.3223,2.3275,2.3807,2.4498,2.3755,2.4,2.465,2.4096,2.4094,2.4343,2.4699,2.5137,2.554,2.5779,0.0,0.0,0.0,2.7008,2.8024,2.977,3.2238,3.4763,3.6686,3.7487,3.788,3.814,3.8209,3.8209,3.8209,3.8209,3.8209,3.8209,3.8207,3.8224,3.8209,3.8207,3.8224,3.8209,3.8209,3.8209,3.8209,3.7792,3.7925,3.9,3.8725,3.8945,4.0019,4.0096,4.0096,4.0096,4.0096,4.0096,4.0096,4.0096,4.0096,4.0096,4.0096,3.9893,3.9503,3.991,3.9673,3.8853,3.8531,3.8379,3.8328,3.7269,3.6535,3.6096,3.5735,3.56,3.56,3.56,3.5893,3.6214,3.5752,3.5893,3.6214,0.0,0.0,0.0,0.0,0.0,0.0,0.0,0.0,0.0,0.0,0.0,0.0,0.0,0.0,0.0,0.0,0.0,0.0,0.0,0.0,0.0,1.9358,2.0407,2.1075,2.1249,2.1743,2.2309,2.2888,2.3572,2.3961,2.4107,2.4727,2.5292,2.583,2.5121,2.4602,2.4271,2.3615,2.3341,2.3371,2.3755,2.4512,2.5384,2.4767,2.5194,2.5959,2.4777,2.4594,2.4854,2.4645,2.4945,2.5458,2.5476,2.5797,0.0,0.0,0.0,2.7178,2.9865,3.1724,3.3436,3.5771,3.6643,3.7166,3.8016,3.8209,3.8209,3.8209,3.8209,3.8209,3.8209,3.8209,3.8209,3.8209,3.8209,3.8209,3.8209,3.8209,3.8157,3.8037,3.7614,3.7701,3.8573,3.8466,3.876,3.9748,3.9994,4.0096,4.0096,4.0096,4.0096,4.0096,4.0096,4.0096,4.0096,3.991,3.9529,3.8988,3.9385,3.8954,3.7905,3.7719,3.7618,3.7584,3.6806,3.6146,3.56,3.56,3.56,3.56,3.56,3.5977,3.6417,3.5802,3.5994,3.64,0.0,0.0,0.0,0.0,0.0,0.0,0.0,0.0,0.0,0.0,0.0,0.0,2.0202,2.0481,2.0713,2.072,0.0,0.0,0.0,0.0,0.0,2.0025,2.0654,0.0,2.1931,2.1975,2.2309,2.2888,2.3572,2.3961,2.4107,2.4727,2.5154,2.5402,2.4596,2.4269,2.4271,2.3726,2.3487,2.3613,2.4932,2.5516,2.5711,2.6941,2.7435,2.7405,2.6701,2.6462,2.6363,2.5526,2.5293,2.5325,2.5465,2.5612,2.5811,0.0,0.0,0.0,2.8489,2.9364,3.0629,3.3968,3.5119,3.5891,3.778,3.8209,3.8209,3.8209,3.8209,3.8209,3.8209,3.8209,3.8209,3.8209,3.8209,3.8209,3.8209,3.8209,3.8037,3.7578,3.7189,3.7076,3.7452,3.7775,3.8251,3.8988,3.9706,4.0096,4.0096,4.0096,4.0096,4.0096,4.0096,4.0096,4.0096,3.9419,3.9039,3.8988,3.8328,3.7973,3.7889,3.7161,3.6863,3.6812,3.6011,3.5633,3.56,3.56,3.56,3.56,3.56,3.5616,3.565,3.5616,3.5616,3.565,0.0,0.0,0.0,0.0,0.0,0.0,0.0,0.0,0.0,0.0,0.0,0.0,0.0,2.0359,2.0769,2.1589,2.0757,0.0,0.0,0.0,0.0,2.0083,2.0669,2.1307,2.1989,2.1989,2.2309,2.2888,2.3572,2.4008,2.4246,2.4855,2.5254,2.5514,2.5135,2.4786,2.4491,2.4283,2.3962,2.3686,2.5053,2.6123,2.6851,2.6452,2.7405,2.8633,2.6662,2.6228,2.6537,2.6223,2.6009,2.5832,2.5493,2.5763,2.623,2.6286,2.6348,2.6752,2.8352,2.8941,2.9689,3.2209,3.3663,3.4796,3.6038,3.7073,3.7845,3.814,3.8209,3.8209,3.8209,3.8209,3.8209,3.8209,3.8209,3.8209,3.8209,3.8209,3.8037,3.7578,3.7133,3.7018,3.7379,3.7694,3.821,3.8937,3.969,4.0096,4.0096,4.0096,4.0096,4.0096,4.0096,4.0096,4.0096,3.9385,3.8751,3.8294,3.8041,3.7374,3.6428,3.6671,3.6502,3.6011,3.5718,3.56,3.56,3.56,3.56,3.56,3.56,3.56,3.56,3.56,3.56,3.56,0.0,0.0,0.0,0.0,0.0,0.0,0.0,0.0,0.0,1.8974,0.0,0.0,0.0,0.0,2.0309,2.1306,2.0627,1.994,1.9469,1.9861,2.0292,2.0727,2.1322,2.1859,2.2294,2.2309,2.2504,2.2888,2.3345,2.371,2.3976,2.4374,2.4697,2.4941,2.5073,2.4939,2.4605,2.4605,2.4201,2.3759,2.554,2.6527,2.6941,2.6931,2.7754,2.8723,2.7171,2.6886,2.726,2.726,2.7142,2.6885,2.6167,2.6377,2.6863,2.6775,2.6866,2.7297,2.8449,2.8589,2.8906,3.0936,3.1977,3.2976,3.4694,3.5847,3.6791,3.7596,3.788,3.7967,3.7967,3.8088,3.8209,3.8209,3.8209,3.8209,3.8209,3.8209,3.7985,3.7377,3.7075,3.6853,3.68,3.7228,3.7736,3.821,3.9182,3.974,3.974,3.9977,4.0096,4.0096,4.0096,4.0096,4.0096,3.9106,3.8379,3.7905,3.7381,3.658,3.5616,3.6146,3.6113,3.56,3.56,3.56,3.56,3.56,3.56,3.56,3.56,3.56,3.56,3.56,3.56,3.56,0.0,0.0,0.0,0.0,0.0,0.0,0.0,0.0,1.9101,1.9101,0.0,0.0,0.0,0.0,0.0,1.9801,1.9838,2.0081,2.0676,2.0733,2.1104,2.1975,0.0,0.0,2.2888,2.2888,2.2888,2.2888,2.2888,2.3045,2.3327,2.3327,2.3444,2.3655,2.4335,2.4605,2.4575,2.459,2.4216,2.3864,2.6537,2.6811,2.5974,2.8592,2.8813,2.7794,2.8412,2.8622,2.8607,2.8637,2.8607,2.837,2.7466,2.7378,2.7558,2.7599,2.8014,2.851,0.0,0.0,0.0,3.0126,3.0128,3.0525,3.3828,3.4656,3.513,3.655,3.7192,3.7487,3.7487,3.7845,3.8157,3.8157,3.8175,3.8192,3.8192,3.8175,3.7845,3.6978,3.688,3.6539,3.5672,3.6315,3.6812,3.6829,3.8176,3.9005,3.9022,3.9723,4.0096,4.0096,4.0096,4.0096,4.0096,3.865,3.7922,3.7889,3.636,3.5616,3.56,3.56,3.56,3.56,3.56,3.56,3.56,3.56,3.56,3.56,3.56,3.56,3.56,3.56,3.56,3.56,0.0,0.0,0.0,0.0,0.0,1.9101,1.9101,1.9101,1.9101,0.0,0.0,0.0,2.0364,2.0901,2.1054,2.0709,2.066,2.0732,2.092,2.1368,2.1736,2.1989,2.2577,2.2888,2.2888,2.2888,2.2888,2.2888,2.2992,2.3383,2.4035,2.4126,2.4216,2.435,2.5008,2.4769,2.3924,2.4395,2.4485,2.4515,2.6731,2.7675,2.7904,2.9116,2.9939,3.03,2.9579,2.9011,2.8742,2.9669,2.8712,2.7165,2.7199,2.6909,2.6704,2.7398,2.7721,2.784,2.7769,0.0,0.0,0.0,0.0,0.0,3.1652,3.3496,3.5101,3.5267,3.6242,3.7075,3.7075,3.717,3.7264,3.7264,3.7505,3.7685,3.7685,3.745,3.7073,3.6533,3.6471,3.6241,3.5667,3.6315,3.7032,0.0,3.8464,3.9225,3.9774,3.9994,4.0096,4.0096,4.0096,4.0096,4.0096,3.9157,3.843,3.7889,3.6924,3.6163,3.56,3.56,3.56,3.56,3.56,3.56,3.56,3.56,3.56,3.56,3.56,3.56,3.56,3.56,3.56,3.56,0.0,0.0,0.0,0.0,0.0,1.9522,1.9522,1.9275,1.9101,0.0,0.0,0.0,2.0886,2.1336,2.154,2.1423,2.1162,2.122,2.175,2.1917,2.2106,2.2345,2.2722,2.2888,2.2888,2.2888,2.2925,2.2992,2.306,2.3399,2.397,2.406,2.4112,2.4201,2.4597,2.4328,2.364,2.4321,2.4605,2.4784,2.6806,2.7675,2.7889,2.9142,2.9699,2.9864,2.9654,2.9367,2.9205,3.0492,2.9549,2.7925,2.843,2.7878,2.7172,2.7737,2.8045,2.826,2.8447,2.8649,2.8788,2.8654,0.0,0.0,3.1606,3.3185,3.4672,3.5417,3.6397,3.7004,3.671,3.6799,3.69,3.69,3.6958,3.7055,3.7227,3.7055,3.6741,3.6364,3.6301,3.611,3.5644,3.6028,3.662,3.7381,3.8125,3.8988,4.0045,4.0096,4.0096,4.0096,4.0096,4.0096,4.0096,3.9056,3.8328,3.7889,3.6806,3.6062,3.56,3.56,3.56,3.56,3.56,3.56,3.56,3.56,3.56,3.56,3.56,3.56,3.56,3.56,3.56,3.565,0.0,0.0,2.0074,2.0001,2.0059,2.0103,2.0103,1.9537,1.9159,0.0,1.9885,2.0465,2.0857,2.0959,2.1206,2.1743,2.1307,2.1511,2.2714,2.2345,2.233,2.2873,2.2888,2.2888,2.2888,2.2888,2.297,2.3082,2.3105,2.3246,2.3487,2.3509,2.3538,2.3595,2.3595,2.3595,2.364,2.4231,2.4664,2.5083,2.6881,2.7375,2.7215,2.9037,2.9052,2.8289,2.9427,2.9726,2.9744,3.0808,3.0582,2.9864,3.0193,2.9539,2.8615,2.8356,2.8747,2.9294,2.9679,2.9409,2.9145,2.9655,2.9448,0.0,3.2418,3.3148,3.3808,3.578,3.6585,3.6771,3.6117,3.6186,3.6376,3.6376,3.6229,3.6264,3.6761,3.6781,3.662,3.6262,3.6285,3.6204,3.5763,3.5802,3.6197,3.6981,3.7719,3.8717,4.0028,4.0096,4.0096,4.0096,4.0096,4.0096,4.0096,3.8717,3.799,3.7889,3.6411,3.5684,3.56,3.56,3.56,3.56,3.56,3.56,3.56,3.56,3.56,3.56,3.56,3.56,3.56,3.56,3.56,3.5701,0.0,1.9638,1.9928,1.9391,1.974,2.0103,2.0103,1.9537,1.9464,2.0494,2.1206,2.1278,2.0364,2.0712,2.0857,2.0494,2.0799,2.1336,2.212,2.2519,2.2772,2.2888,2.2888,2.2888,2.2888,2.2888,2.2925,2.2947,2.3157,2.3275,2.3341,2.3501,2.3588,2.3595,2.3595,2.3595,2.361,2.3744,2.5031,2.7061,2.7435,2.8468,2.9774,3.0178,3.0836,3.1509,3.1212,3.0477,2.9577,2.9265,3.0031,3.0868,2.943,2.9843,3.0548,2.8801,2.9138,2.9822,2.8695,2.8774,2.9149,2.9107,2.949,0.0,3.0485,3.151,3.2339,3.2307,3.3303,3.4126,3.399,3.355,3.3185,3.3185,3.4125,3.5215,3.626,3.6092,3.581,3.5756,3.6299,3.6667,3.6575,3.7094,3.777,3.8497,3.9266,3.9808,4.0079,4.0096,4.0096,4.0096,4.0096,4.0096,4.0096,3.9249,3.8481,3.7889,3.6975,3.6231,3.56,3.56,3.56,3.56,3.56,3.56,3.56,3.56,3.56,3.56,3.56,3.56,3.56,3.56,3.56,3.5616,2.0006,2.0582,2.0843,2.0161,2.032,2.0553,2.0553,2.0016,1.9943,2.0872,2.1583,2.1757,2.1119,2.1322,2.138,2.1075,2.1322,2.1772,2.2403,2.2736,2.2888,2.2888,2.2888,2.2888,2.2888,2.2888,2.2955,2.3112,2.3231,2.3348,2.3458,2.3551,2.3954,2.4567,2.3894,2.3969,2.4582,2.4253,2.5076,2.6677,2.7679,2.946,3.1509,3.1509,3.1928,3.2392,3.1735,3.1077,3.0612,3.0926,3.0821,3.0612,3.0941,3.0821,3.0353,2.9251,2.9431,2.9703,2.8473,2.8474,2.8879,2.9024,2.9399,0.0,0.0,3.1314,3.1885,3.1913,3.2763,3.3334,3.2967,3.2849,3.2803,3.2803,3.4013,3.4934,3.4857,3.5943,3.6749,3.6749,3.711,3.7347,3.7347,3.7686,3.821,3.8937,3.969,4.0096,4.0096,4.0096,4.0096,4.0096,4.0096,4.0096,4.0096,3.8988,3.8278,3.7889,3.6755,3.5994,3.56,3.56,3.56,3.56,3.56,3.56,3.56,3.56,3.56,3.56,3.56,3.56,3.56,3.56,3.56,3.565,2.0823,2.1414,2.1661,2.0991,2.0971,2.1044,2.1044,2.0602,2.0494,2.1104,2.1975,2.2497,2.2381,2.257,2.2672,2.257,2.2773,2.2976,2.3099,2.3331,2.3395,2.3264,2.3033,2.3041,2.3296,2.3064,2.3068,2.3297,2.3319,2.3429,2.3588,2.3595,2.4178,2.5181,2.4358,2.4522,2.5382,2.5098,2.5576,2.6692,2.8308,3.0163,3.1958,3.2078,3.2213,3.2243,3.1839,3.178,3.2004,3.2841,3.1794,3.0432,3.2048,3.1539,3.0205,2.9442,2.9577,2.9702,2.8494,2.8231,2.8439,2.8895,2.9118,2.9535,0.0,0.0,0.0,3.1951,3.2407,3.2518,3.1929,3.2171,3.2466,3.2525,3.3777,3.4381,3.3292,3.5611,3.7341,3.7077,3.7669,3.8007,3.7719,3.7821,3.8261,3.914,3.9503,3.9808,4.0079,4.0096,4.0096,4.0096,4.0096,4.0096,4.0096,3.8633,3.7905,3.7889,3.6326,3.56,3.56,3.56,3.56,3.56,3.56,3.56,3.56,3.56,3.56,3.56,3.56,3.56,3.56,3.56,3.56,3.5718,2.0578,2.1015,2.1259,2.0588,2.0856,2.117,2.117,2.1021,2.1133,2.1801,2.3389,2.4273,2.3731,2.4675,2.5164,2.4617,2.5589,2.5556,2.3891,2.4834,2.5212,2.4621,2.3496,2.347,2.4723,2.3666,2.3135,2.3297,2.3422,2.3487,2.3494,2.3566,2.3684,2.3864,2.4911,2.5113,2.4784,2.5899,2.7754,2.9968,3.0193,3.0133,2.9983,3.0522,3.1092,3.169,3.2183,3.2781,3.311,3.2064,3.1914,3.1824,2.9789,3.0956,3.2362,2.8858,2.946,3.0761,2.8351,2.7685,2.7795,2.8264,2.8408,2.8606,2.9293,0.0,2.9517,2.9742,0.0,2.9833,2.9753,0.0,0.0,2.9646,3.1191,3.2341,3.2261,3.4273,3.5313,3.4061,3.684,3.8345,3.7049,3.7516,3.8481,3.9876,3.8836,3.8717,4.0028,4.0096,4.0096,4.0096,4.0096,4.0096,4.0096,3.8633,3.7905,3.7889,3.6326,3.56,3.56,3.56,3.56,3.56,3.56,3.56,3.56,3.56,3.56,3.56,3.56,3.56,3.56,3.56,3.56,3.5718,2.1517,2.1727,2.1727,2.1079,2.0833,2.0872,2.1248,2.1903,2.2439,2.2717,2.3427,2.3668,2.2995,2.3693,2.4412,2.482,2.5691,2.5865,2.5062,2.5562,2.5281,2.3874,2.3382,2.3406,2.3994,2.3503,2.329,2.3422,2.3466,2.3516,2.3545,2.3588,2.4014,2.4807,2.5764,2.6467,2.6991,2.7934,2.8742,2.946,3.0208,3.0133,2.9801,3.1569,3.2183,3.2108,3.2392,3.2691,3.2961,0.0,3.2153,0.0,3.2228,3.1973,3.1046,3.0133,3.0118,2.9983,2.8109,2.8169,2.8625,2.8041,2.8485,2.8915,2.8391,2.8264,2.8304,2.8352,0.0,0.0,0.0,0.0,0.0,0.0,3.0573,3.1397,3.0637,3.2754,3.4442,3.4605,3.6033,3.7144,3.7398,3.8481,3.9411,4.0045,3.9537,3.9453,4.0079,4.0096,4.0096,4.0096,4.0096,4.0096,4.0096,3.9056,3.8328,3.7889,3.6806,3.6062,3.56,3.56,3.56,3.56,3.56,3.56,3.56,3.56,3.56,3.56,3.56,3.56,3.56,3.56,3.56,3.5718,2.2088,2.2135,2.1943,2.1321,2.0784,2.0705,2.1521,2.242,2.3091,2.3268,2.3607,2.3621,2.3076,2.4051,2.5146,2.6156,2.7188,2.7637,2.7272,2.7176,2.6557,2.5277,2.4149,2.3917,2.4602,2.3792,2.3407,2.3516,2.3516,2.356,2.3595,2.3595,2.4118,2.5106,2.6138,2.723,2.8382,2.94,2.9879,3.0013,3.0956,3.1061,3.0821,3.2362,3.2991,3.3021,3.2841,3.3021,3.3425,3.4008,3.2646,0.0,3.3619,3.2691,3.0776,0.0,3.112,3.031,2.8618,0.0,0.0,2.7929,2.8334,2.8798,2.7824,2.76,2.76,2.76,2.787,0.0,0.0,0.0,0.0,0.0,0.0,3.0433,2.9466,3.1102,3.2797,3.3929,3.4627,3.5538,3.6946,3.8154,3.9046,3.9486,3.9503,3.9673,4.0079,4.0096,4.0096,4.0096,4.0096,4.0096,4.0096,3.9385,3.8633,3.7889,3.7168,3.6366,3.56,3.56,3.56,3.56,3.56,3.56,3.56,3.56,3.56,3.56,3.56,3.56,3.5616,3.5859,3.5943,3.6079,2.1724,2.1724,2.1495,2.0838,2.0608,2.0892,2.2081,2.2317,2.2568,2.3209,2.4357,2.5129,2.5114,2.7376,2.9173,2.9865,3.1662,3.2252,3.1013,3.032,3.0131,3.0543,2.6516,2.5418,2.7898,2.5029,2.3538,2.361,2.361,2.3595,2.3595,2.3595,2.3625,2.3744,2.5719,2.6986,2.7764,2.9654,3.1584,3.335,3.338,3.338,3.3245,3.2019,3.2766,3.4354,3.3694,0.0,0.0,3.3963,3.3455,0.0,0.0,0.0,0.0,0.0,0.0,0.0,0.0,0.0,0.0,2.7929,0.0,0.0,0.0,0.0,2.76,0.0,0.0,0.0,0.0,0.0,0.0,0.0,0.0,0.0,0.0,2.928,2.9614,3.0382,3.2249,3.3859,3.4915,3.5457,3.636,3.7872,3.7973,3.8582,4.0028,4.0096,4.0096,4.0096,4.0096,4.0096,4.0096,3.9385,3.8633,3.7889,3.7168,3.6366,3.56,3.56,3.56,3.56,3.56,3.56,3.56,3.56,3.56,3.56,3.56,3.56,3.5684,3.6468,3.6761,3.6981,2.1051,2.1051,2.0976,2.0733,2.0296,2.0407,2.1714,2.3003,2.4209,2.5342,2.6242,2.6932,2.7276,2.8106,2.9015,3.001,3.1102,3.1574,3.1132,3.0569,3.0124,2.9888,2.6411,2.5325,2.7055,2.4775,2.3588,2.3595,2.3595,2.3595,2.3595,2.3595,2.3595,2.3684,2.5689,2.748,2.9052,3.1001,3.2482,3.3499,3.3499,3.323,3.2841,0.0,3.3245,3.3799,3.3574,3.4068,0.0,3.4831,3.3948,3.3006,3.3888,3.323,3.2243,3.2706,3.2527,0.0,0.0,0.0,3.1644,2.9472,0.0,0.0,0.0,0.0,0.0,0.0,0.0,0.0,0.0,0.0,0.0,0.0,0.0,0.0,0.0,2.848,2.8709,2.8638,3.0755,3.238,3.2807,3.4726,3.6364,3.7344,3.8254,3.9151,4.0054,4.0096,4.0096,4.0096,4.0096,4.0333,4.0815,4.0113,3.9343,3.8616,3.7872,3.6857,3.56,3.56,3.56,3.56,3.56,3.56,3.5633,3.618,3.6079,3.5701,3.6715,3.6823,3.6349,3.6096,3.6332,3.7015,2.0865,2.0591,2.0348,2.0348,2.0183,2.0498,2.1864,2.331,2.4911,2.6731,2.7121,2.7575,2.8383,2.8696,2.9208,3.0165,3.1071,3.1605,3.1605,3.1054,3.0741,3.0757,2.7946,2.7086,2.8547,2.6025,2.4672,2.4672,2.3954,2.3595,2.3595,2.3595,2.3595,2.367,2.5196,2.726,2.9711,3.1165,3.2736,3.4203,3.4203,3.3814,3.323,0.0,3.335,3.3185,0.0,3.4068,3.4906,3.5355,3.4651,3.3799,3.51,3.4322,3.308,3.3963,3.3619,3.2811,3.2333,3.2841,0.0,3.0821,3.0883,0.0,2.8813,0.0,2.8226,0.0,0.0,0.0,0.0,0.0,0.0,0.0,0.0,0.0,0.0,2.7919,2.8082,2.775,2.9546,3.0966,3.1358,3.3326,3.5175,3.6589,3.762,3.8642,3.9714,3.9773,3.9876,4.0096,4.0096,4.0333,4.0798,4.035,3.9605,3.8599,3.8125,3.7094,3.56,3.56,3.56,3.56,3.56,3.56,3.565,3.6451,3.6485,3.6163,3.7415,3.7618,3.7144,3.6907,3.7297,3.8115,2.1227,2.0479,1.9801,1.9753,2.0303,2.1201,2.2538,2.3325,2.4732,2.736,2.724,2.738,2.8652,2.9355,2.9953,3.0507,3.1764,3.2512,3.2512,3.1869,3.202,3.3164,3.0856,3.0363,3.2124,2.8513,2.6587,2.6587,2.4612,2.3625,2.3595,2.3595,2.3595,2.3625,2.4261,2.6437,2.9651,3.0208,3.2407,3.5504,3.5504,3.507,3.4384,3.3724,3.3095,3.2647,3.3275,3.4352,3.5504,3.5504,3.5504,3.5504,3.5504,3.5504,3.5504,3.5504,3.5504,3.522,3.3948,3.3589,3.3275,3.1929,3.16,0.0,0.0,0.0,2.9421,0.0,0.0,0.0,0.0,0.0,0.0,0.0,0.0,0.0,0.0,2.76,2.76,2.76,2.863,2.9681,3.0482,3.1284,3.2844,3.5412,3.5953,3.7061,3.903,3.9123,3.9404,4.007,4.0096,4.013,4.0146,4.0104,3.9352,3.8024,3.7915,3.7081,3.5628,3.5616,3.56,3.5577,3.56,3.56,3.5667,3.6502,3.6829,3.688,3.7686,3.8024,3.8091,3.8751,3.9453,4.0045,2.1541,2.1631,2.1374,2.0584,2.1006,2.1874,2.3161,2.5204,2.718,2.8873,3.0193,3.1135,3.1465,3.1659,3.1629,3.1271,3.2004,3.2512,3.2512,3.1869,3.2093,3.3378,3.0479,2.9747,3.1647,2.8342,2.6587,2.6587,2.5068,2.4081,2.3595,2.3595,2.3595,2.361,2.3789,2.6004,2.9621,2.9786,3.2018,3.5504,3.5504,3.4801,3.3724,0.0,3.338,3.326,3.344,3.4352,3.5504,3.5504,3.5504,3.5504,3.5504,3.5504,3.5504,3.5504,3.5504,3.5429,3.5085,3.4996,3.4666,3.332,3.2991,3.2647,0.0,0.0,0.0,0.0,0.0,0.0,0.0,0.0,0.0,0.0,0.0,0.0,0.0,2.76,2.76,2.76,2.8299,2.8758,2.8556,3.0072,3.1621,3.2956,3.4032,3.5766,3.8311,0.0,3.8446,4.0037,4.0096,4.0367,4.0916,3.9912,3.946,3.9521,3.7962,3.677,3.5902,3.5677,3.5379,3.5021,3.5424,3.56,3.5701,3.706,3.728,3.6981,3.8826,3.9554,3.9503,3.9123,3.9106,3.9343,2.163,2.2258,2.2656,2.2185,2.3239,2.4321,2.4837,2.6207,2.7959,3.0148,3.0896,3.145,3.1989,3.2049,3.1914,3.154,3.1854,3.1929,3.1644,3.154,3.1839,3.2602,3.115,3.1091,3.2781,3.0148,2.8472,2.7914,2.6273,2.4837,2.3595,2.3595,2.3595,2.3595,2.3595,2.5345,2.8408,3.0118,3.2317,3.4681,3.5265,3.4876,0.0,3.3681,3.3576,3.3531,3.3246,3.4175,3.5504,3.5504,3.5504,3.5504,3.5504,3.5504,3.5504,3.5572,3.5604,3.5604,3.5604,3.5604,3.5392,3.4593,3.4367,3.4023,3.2691,3.1812,3.1249,0.0,3.0337,3.0059,0.0,0.0,0.0,0.0,0.0,0.0,0.0,2.76,2.76,2.76,2.7944,2.8045,2.7745,2.9301,3.0809,3.1902,3.2517,3.3761,0.0,0.0,3.7039,3.8393,3.9016,3.9521,3.9937,3.9171,3.8826,3.8821,3.7582,3.663,3.5943,3.5482,3.5224,3.5155,3.5224,3.5379,3.5684,3.6924,3.7347,3.7466,3.9368,4.0096,4.0045,3.9639,3.9486,3.9554,2.1827,2.2767,2.3781,2.3875,2.5788,2.7224,2.6982,2.7115,2.8248,3.1002,3.0567,3.0372,3.1391,3.1511,3.1511,3.1511,3.1511,3.1256,3.0672,3.1182,3.1511,3.1511,3.2049,3.3006,3.4354,3.2467,3.0896,2.9606,2.7675,2.5644,2.3595,2.3595,2.3595,2.3595,2.3595,2.4807,2.7096,3.0911,3.2946,3.3739,3.4996,3.51,3.4429,3.3908,3.3713,3.3623,3.296,3.3833,3.5282,3.5372,3.5402,3.5417,3.5507,3.5537,3.5554,3.5671,3.5688,3.572,3.572,3.572,3.5671,3.5554,3.5504,3.519,3.4023,3.3213,3.2524,3.1827,3.1176,3.1249,0.0,0.0,0.0,0.0,0.0,0.0,2.8124,2.8124,2.8049,2.7884,2.7929,0.0,2.7615,2.8832,3.0114,3.1328,3.1095,3.1601,0.0,0.0,3.558,3.6539,3.7686,3.8306,3.8306,3.8222,3.7903,3.7344,3.7049,3.6584,3.595,3.5193,3.5037,3.5381,3.4913,3.4951,3.5452,3.6249,3.7074,3.7965,3.9329,3.9901,3.9995,3.9995,4.002,4.0087,2.3094,2.421,2.489,2.4049,2.574,2.7546,2.8604,2.981,3.0644,3.0687,3.145,3.1884,3.154,3.1511,3.1511,3.1511,3.1511,3.1451,3.1331,3.1436,3.1511,3.1511,3.1615,3.2288,3.3649,3.2243,3.0896,2.9606,2.8139,2.6117,2.3595,2.3595,2.3595,2.3595,2.3595,2.533,2.8442,3.13,0.0,3.4399,3.5175,3.51,3.4429,3.3908,3.3713,3.3623,3.3123,3.3411,3.4089,3.463,3.4857,3.4948,3.549,3.5671,3.5671,3.5688,3.5688,3.5752,3.5894,3.5831,3.5688,3.5671,3.5572,3.5444,3.5205,3.4543,3.3823,3.3252,3.2559,3.2021,3.1857,0.0,0.0,0.0,0.0,0.0,3.0808,3.0808,3.0447,2.9382,2.9684,2.9355,2.775,2.8319,2.894,2.9309,2.9364,3.0709,0.0,0.0,3.4973,0.0,3.8177,0.0,0.0,0.0,3.7732,3.81,3.6942,3.6361,3.6274,3.5437,3.4823,3.443,3.4228,3.421,3.4333,3.5085,3.6189,3.748,3.8302,3.8903,3.9365,3.9365,3.9592,3.9935,2.5283,2.5688,2.6057,2.6655,2.8642,3.0406,3.1099,3.2226,3.2532,3.1194,3.1285,3.1345,3.1002,3.1286,3.1511,3.1511,3.1511,3.1511,3.1511,3.1511,3.1511,3.1511,3.1511,3.2123,3.3469,3.2871,3.1569,2.9606,0.0,0.0,2.3595,2.3595,2.3595,2.3625,2.4328,2.5914,2.8233,0.0,0.0,3.4054,3.4806,3.4688,3.4043,3.3607,3.3226,3.2877,3.2659,3.2722,3.3074,3.3985,3.453,3.4924,3.5257,3.559,3.5863,3.5943,3.5943,3.5975,3.6085,3.6022,3.5943,3.5863,3.575,3.5589,3.5589,3.4966,3.4342,3.4065,3.3743,3.3275,3.2676,3.1974,0.0,0.0,0.0,0.0,0.0,3.1511,3.1271,3.0672,3.0253,2.9654,2.8738,2.8304,2.828,2.8755,2.8929,0.0,0.0,0.0,3.3905,0.0,0.0,0.0,3.7371,0.0,3.7088,3.7356,3.6632,3.6301,3.6327,3.555,3.5192,3.5171,3.4825,3.4615,3.4568,3.5253,3.5894,3.6566,3.7633,3.8222,3.8474,3.8474,3.9051,3.9864,2.7497,2.7396,2.7692,2.9546,3.1681,3.3133,3.3075,3.3711,3.3625,3.1927,3.1122,3.0717,3.0717,3.1182,3.1511,3.1511,3.1511,3.1511,3.1511,3.1511,3.1511,3.1511,3.1511,3.2123,3.3469,3.3499,3.2407,0.0,0.0,0.0,0.0,0.0,0.0,0.0,0.0,0.0,0.0,0.0,3.2497,3.38,3.4434,3.4331,3.3728,3.3328,3.2772,3.2191,3.2247,3.2247,3.2372,3.3267,3.4151,3.4851,3.4988,3.5489,3.6068,3.6179,3.6196,3.6211,3.6242,3.6242,3.6179,3.6068,3.5894,3.5752,3.572,3.52,3.47,3.4533,3.4503,3.4264,3.344,3.2751,0.0,0.0,0.0,0.0,0.0,0.0,3.2243,3.1959,3.1046,3.0325,3.0028,2.9041,2.8655,2.9162,2.9217,0.0,3.1292,0.0,0.0,0.0,0.0,3.6061,3.6061,0.0,3.6492,3.6492,3.6391,3.6333,3.6301,3.564,3.5565,3.5938,3.5394,3.4932,3.4659,3.5243,3.5435,3.5494,3.6859,3.7501,3.7618,3.7618,3.8418,3.9532,2.9069,2.9678,3.0373,3.1234,3.2838,3.3768,3.3096,3.3323,3.3288,3.2526,3.1809,3.1406,3.1406,3.1466,3.1511,3.1511,3.1511,3.1511,3.1511,3.1511,3.1511,3.1511,3.1511,3.2123,3.3469,3.3499,3.308,0.0,0.0,2.8483,0.0,0.0,0.0,0.0,0.0,0.0,0.0,3.1809,3.3261,3.4586,3.4677,3.4408,3.3909,3.3401,3.2772,3.2219,3.2342,3.237,3.2385,3.2508,3.3301,3.4377,3.4973,3.563,3.6164,3.6211,3.6196,3.6242,3.6414,3.6352,3.6196,3.6164,3.6085,3.5926,3.5752,3.5642,3.5368,3.4655,3.4503,3.4098,3.2841,3.3993,3.4741,0.0,0.0,0.0,0.0,0.0,3.4681,3.3455,3.32,3.2662,3.1436,3.1212,3.0998,3.0636,3.0167,0.0,0.0,0.0,0.0,3.4459,3.4628,3.469,3.469,3.5876,3.6492,3.6492,3.6492,3.6477,3.6461,3.5782,3.5504,3.5517,3.4855,3.4118,3.3402,3.3947,3.4179,3.4271,3.566,3.6492,3.6981,3.6981,3.7695,3.8628,3.1321,3.162,3.2199,3.3375,3.4138,3.4628,3.4829,3.435,3.3749,3.3127,3.2132,3.1511,3.1511,3.1511,3.1511,3.1511,3.1511,3.1511,3.1511,3.1511,3.1511,3.1511,3.1511,3.1929,3.2886,3.329,3.2976,0.0,0.0,0.0,0.0,0.0,0.0,0.0,0.0,3.0357,3.1794,3.3201,3.439,3.5252,3.4622,3.4303,3.4027,3.3087,3.256,3.2315,3.237,3.2398,3.2398,3.2398,3.3,3.385,3.4556,3.5231,3.5861,3.626,3.6383,3.6383,3.6492,3.6445,3.6383,3.6383,3.6258,3.6116,3.6006,3.5847,3.5612,3.5292,3.5167,3.4936,3.4412,3.4307,3.4382,3.4651,0.0,0.0,0.0,0.0,0.0,3.4756,3.3993,3.329,3.2766,3.1974,3.142,3.1236,3.1106,0.0,0.0,0.0,0.0,3.4489,0.0,3.5722,3.5722,3.6215,3.6492,3.6492,3.6492,3.6492,3.6476,3.6215,3.6091,3.6061,3.5262,3.4697,3.4288,3.4379,3.4377,3.4391,3.5339,3.5861,3.6053,3.6053,3.6832,3.7847,3.3243,3.3531,3.4054,3.533,3.5727,3.591,3.6062,3.5192,3.4259,3.3441,3.241,3.1697,3.1524,3.1511,3.1511,3.1511,3.1511,3.1511,3.1511,3.1511,3.1511,3.1511,3.1511,0.0,3.2497,3.2961,3.2946,3.2363,3.0896,0.0,0.0,0.0,0.0,0.0,3.1149,3.2347,3.3216,3.4512,3.5392,3.5758,3.4638,3.4238,3.4144,3.2893,3.2398,3.2398,3.2398,3.2398,3.2398,3.2398,3.2705,3.3275,3.4212,3.4967,3.5614,3.6292,3.6492,3.6492,3.6492,3.6492,3.6492,3.6492,3.6383,3.6274,3.6211,3.6006,3.5847,3.5799,3.5718,3.5619,3.5587,3.4806,3.4445,3.5355,0.0,0.0,0.0,3.5504,0.0,3.4966,3.4083,3.353,3.3591,3.2721,3.2211,0.0,0.0,0.0,0.0,0.0,0.0,0.0,0.0,0.0,3.5891,3.6292,3.6492,3.6492,3.6492,3.6492,3.6492,3.6492,3.6492,3.6445,3.5538,3.5095,3.4971,3.4738,3.4581,3.4578,3.5235,3.5504,3.5504,3.5504,3.6198,3.7109,3.4584,3.5462,3.6208,3.6953,3.7698,3.7656,3.6224,3.5469,3.4639,3.3372,3.2722,3.2148,3.1553,3.1511,3.1511,3.1511,3.1511,3.1511,3.1511,3.1511,3.1511,0.0,0.0,3.1809,3.2497,3.2497,3.3155,3.4474,0.0,0.0,3.2407,0.0,3.0238,3.1496,3.2404,3.3487,3.4723,3.5607,3.6085,3.6089,3.4743,3.4327,3.4351,3.2921,3.2398,3.2398,3.2398,3.2398,3.2398,3.2398,3.2398,3.2659,3.4058,3.4967,3.5614,3.6292,3.6492,3.6492,3.6492,3.6492,3.6492,3.6492,3.6492,3.6445,3.6242,3.6196,3.6148,3.6037,3.6005,3.5941,3.572,3.5672,3.5623,3.5522,0.0,0.0,0.0,3.5504,0.0,3.3679,3.3499,3.3591,3.3774,3.3789,3.3834,0.0,0.0,0.0,0.0,0.0,0.0,3.4505,3.452,0.0,3.452,3.583,3.6492,3.6492,3.6492,3.6492,3.6492,3.6492,3.6492,3.6445,3.543,3.5018,3.4971,3.4629,3.4503,3.4578,3.5235,3.5504,3.5504,3.5504,3.5893,3.6414,3.4899,3.6307,3.7102,3.5827,3.6638,3.6953,3.5479,3.4443,3.3487,3.2633,3.2074,3.1545,3.0881,3.0808,3.0808,0.0,3.0447,3.0193,0.0,3.0597,3.0808,3.0808,3.1256,3.16,3.1809,3.2258,3.2721,3.314,0.0,0.0,0.0,3.1659,3.2287,3.3559,3.4405,3.4994,3.5418,3.593,3.6148,3.6089,3.4879,3.4431,3.4351,3.2921,3.2398,3.2398,3.2398,3.2398,3.2398,3.2398,3.2398,3.2644,3.4058,3.4659,3.5044,3.6153,3.6492,3.6492,3.6492,3.6492,3.6492,3.6492,3.6153,3.5922,3.6306,3.6305,3.6042,3.5444,3.5321,3.5154,3.4561,3.447,3.4636,3.5073,3.5149,0.0,3.5769,0.0,3.5663,3.5271,3.5211,3.5211,3.5288,3.5288,0.0,0.0,0.0,0.0,0.0,0.0,0.0,0.0,3.5398,0.0,3.5845,3.6276,3.6492,3.6492,3.6492,3.6492,3.6492,3.6492,3.6492,3.6476,3.5903,3.5686,3.5655,3.5336,3.5444,3.5863,3.6088,3.6178,3.6178,3.6178,3.6009,3.5797,3.5346,3.6655,3.7268,3.5595,3.6307,3.6605,3.5131,3.4127,3.3316,3.2649,3.1944,3.1212,3.058,3.0073,0.0,3.0462,2.9939,2.9606,2.9606,2.9939,3.0253,3.0492,3.0883,3.1241,3.1496,3.1914,0.0,3.2512,3.2602,3.2751,3.3005,3.344,3.4099,3.4973,3.5539,3.5711,3.5562,3.6072,3.6167,3.5845,3.4877,3.4505,3.4351,3.2921,3.2398,3.2398,3.2398,3.2398,3.2398,3.2398,3.2398,3.2598,3.375,3.4289,3.4767,3.6107,3.6492,3.6492,3.6492,3.6492,3.643,3.6184,3.5799,3.5552,3.5691,3.5661,3.5416,3.4912,3.482,3.4653,3.4105,3.3999,3.4227,3.4896,3.5018,3.5245,3.5914,0.0,3.5823,0.0,0.0,0.0,0.0,3.5369,3.5247,0.0,0.0,0.0,0.0,0.0,0.0,3.5245,3.6045,0.0,3.6492,3.6492,3.6492,3.6492,3.6492,3.6492,3.6492,3.6414,3.6414,3.6492,3.6068,3.5941,3.5988,3.5922,3.6118,3.6492,3.6492,3.6626,3.6806,3.6567,3.6372,3.6222,3.5727,3.6522,3.6854,3.6059,3.6589,3.6622,3.5197,3.4456,3.3825,3.3213,3.2084,3.1124,3.0488,2.934,2.9086,3.0268,0.0,0.0,2.9472,2.9562,2.9834,3.0417,3.0522,3.0853,3.1496,3.1511,3.1824,3.2512,3.3784,3.4756,3.5429,3.5474,3.5572,3.572,3.5926,3.575,3.5309,3.6107,3.6061,3.5444,3.472,3.4428,3.4289,3.2934,3.2398,3.2398,3.2398,3.2398,3.2398,3.2398,3.2398,3.2505,3.3183,3.3906,3.4751,3.6045,3.6445,3.6492,3.6492,3.6492,3.6322,3.5675,3.5475,3.526,3.4582,3.4459,3.4489,3.4428,3.4428,3.4354,3.413,3.4085,3.4255,3.479,3.4896,3.5155,3.5869,3.5976,3.552,0.0,0.0,0.0,3.4422,3.4451,3.4986,0.0,0.0,0.0,0.0,0.0,3.4926,3.6445,3.6492,3.6492,3.6492,3.6492,3.6492,3.6492,3.6492,3.6492,3.646,3.6274,3.632,3.6429,3.5926,3.5831,3.6002,3.6373,3.6507,3.6552,3.6596,3.6971,3.7404,3.6836,3.6956,3.7404,0.0,0.0,3.6688,3.5396,3.6241,3.6787,3.5876,3.4408,3.3165,3.2523,3.1443,3.0493,2.9876,2.9086,2.8727,2.9026,2.8453,2.8064,2.8064,2.9037,2.9666,2.9816,3.0746,3.1331,3.1511,3.1511,3.1824,3.2512,3.332,3.4068,3.4758,3.5381,3.5671,3.572,3.6022,3.6088,3.5936,3.5799,3.566,3.5368,3.4152,3.366,3.3567,3.2721,3.2398,3.2398,3.2398,3.2398,3.2398,3.2398,3.2398,3.2505,3.3183,3.3906,3.4659,3.5506,3.6091,3.6492,3.6492,3.6492,3.6322,3.5675,3.5121,3.4551,3.3814,3.412,3.4351,3.3767,3.366,3.349,3.2911,3.2819,3.3049,3.3667,3.3775,3.4204,3.5446,3.5631,3.5692,0.0,3.5922,3.5922,3.5953,3.5984,3.5692,0.0,0.0,0.0,3.4982,3.4645,3.5061,3.6445,3.6492,3.6492,3.6492,3.6492,3.6492,3.6492,3.6492,3.6414,3.6274,3.6211,3.6179,3.61,3.5816,3.572,3.5812,3.6292,3.6761,3.724,3.7749,3.8033,3.8138,3.7988,3.7719,3.7404,3.4883,3.6324,3.7251,3.6108,3.6854,3.7367,3.6622,3.5396,3.4351,3.3704,3.2068,3.0716,3.0083,2.8876,2.8128,2.8128,2.7809,2.76,2.76,2.8573,2.9292,2.9592,3.0537,3.1182,3.1496,3.1511,3.1824,3.2512,3.3469,3.4159,3.4518,3.5322,3.5752,3.5863,3.6085,3.6074,3.5861,3.5599,3.5337,3.4951,3.3829,3.3398,3.3336,3.2659,3.2398,3.2398,3.2398,3.2398,3.2398,3.2398,3.2398,3.2459,3.2829,3.3413,3.406,3.4414,3.546,3.6492,3.6492,3.6261,3.5784,3.4783,3.4029,3.3457,3.3029,3.3244,3.3413,3.3029,3.2936,3.2829,3.2459,3.2398,3.2613,3.329,3.289,3.3075,3.4813,3.4505,3.4552,3.5876,3.603,3.6153,3.6461,3.6492,3.6153,3.5339,3.5353,0.0,3.5277,3.5353,3.5737,3.6476,3.6492,3.6492,3.6492,3.6492,3.6492,3.6492,3.6492,3.6383,3.6196,3.6148,3.6068,3.5988,3.6034,3.6105,3.623,3.7023,3.7554,3.7883,3.8257,3.8586,3.8826,3.8497,3.8362,3.8332,3.6174,3.7268,3.8013,3.7384,3.7772,3.7971,3.7367,3.6666,3.598,3.5395,3.3252,3.152,3.0756,2.9022,2.7899,2.7899,2.7809,2.7705,2.76,2.8244,2.8891,2.9577,3.0178,3.0821,3.1496,3.1511,3.1869,3.2662,3.3923,3.4586,3.4692,3.5609,3.6086,3.6179,3.6321,3.6107,3.566,3.5414,3.5028,3.4428,3.3583,3.3244,3.3183,3.2613,3.2398,3.2398,3.2398,3.2398,3.2398,3.2398,3.2398,3.2398,3.2398,3.2859,3.3398,3.3398,3.4722,3.6184,3.6184,3.5691,3.4891,3.3706,3.2906,3.2398,3.2398,3.2398,3.2398,3.2398,3.2398,3.2398,3.2398,3.2398,3.2521,3.289,3.2151,3.2148,3.3812,0.0,3.3244,3.5136,3.5367,3.5629,3.6276,3.6338,3.6306,3.6242,3.6383,3.6414,3.6242,3.6414,3.6492,3.6492,3.6492,3.6492,3.6492,3.6492,3.6492,3.6492,3.6492,3.6383,3.6179,3.6053,3.6034,3.6091,3.637,3.6637,3.6902,3.7967,3.8392,3.8407,3.8497,3.8901,3.9313,3.8751,3.8916,3.9388,3.6936,3.7632,3.8153,3.8063,3.8103,3.8153,3.8063,3.6993,3.598,3.5395,3.4067,3.2721,3.1492,3.0118,2.9292,2.9292,2.8757,2.8188,2.763,2.8244,2.8891,2.9577,3.0178,3.0821,3.1496,3.1511,3.2093,3.3335,3.4224,3.4934,3.5458,3.6945,3.7381,3.6951,3.7133,3.689,3.6261,3.5152,3.4597,3.4397,3.3075,3.2552,3.2536,3.2428,3.2398,3.2398,3.2398,3.2398,3.2398,3.2398,3.2398,3.2398,3.2398,3.2859,3.3398,3.3398,3.406,3.4813,3.4813,3.4275,3.3675,3.346,3.2906,3.2398,3.2398,3.2398,3.2398,3.2398,3.2398,3.2398,3.2398,3.2398,3.2059,3.1017,3.1643,3.2151,3.1932,0.0,3.3598,3.4551,3.4659,3.4921,3.5598,3.5675,3.5876,3.6414,3.6492,3.6492,3.646,3.6492,3.6492,3.6492,3.6492,3.6492,3.6492,3.6492,3.6492,3.6492,3.6492,3.6336,3.6037,3.6005,3.6163,3.6442,3.648,3.681,3.7349,3.8078,3.8392,3.8452,3.9035,3.9334,3.9373,3.929,3.9334,3.9388,3.7673,3.8295,3.8775,3.8775,3.8775,3.8775,3.8775,3.8276,3.7514,3.6549,3.532,3.4014,3.2736,3.1091,3.0073,3.0073,2.949,2.9022,2.8708,2.8978,2.9415,3.0058,3.0357,3.0821,3.1496,3.1927,3.2402,3.2906,3.4147,3.4815,3.4993,3.6646,3.7087,3.6523,3.7139,3.7058,3.6399,3.5075,3.4505,3.4382,3.298,3.2398,3.2398,3.2398,3.2398,3.2398,3.2398,3.2398,3.2398,3.2398,3.2398,3.2398,3.2398,3.2613,3.2859,3.2859,3.3658,3.4412,3.3998,3.366,3.3306,3.2952,3.2628,3.2398,3.2398,3.2398,3.2398,3.2398,3.2398,3.2398,3.2398,3.2398,3.2198,3.1582,3.1397,0.0,0.0,3.1859,3.2321,3.3737,3.4274,3.4767,3.5414,3.5845,3.6122,3.6321,3.6445,3.646,3.6352,3.6445,3.6492,3.6492,3.6492,3.6492,3.6492,3.6492,3.6492,3.6492,3.6492,3.6352,3.6116,3.6037,3.6012,3.6117,3.6705,3.715,3.7494,3.8512,3.8945,3.8975,3.929,3.9388,3.9388,3.9388,3.9388,3.9388,3.846,3.8907,3.9299,3.9299,3.9299,3.9299,3.9299,3.9149,3.8706,3.7719,3.6552,3.5395,3.4287,3.2397,3.1209,3.1209,3.0363,2.9804,2.9804,2.9696,2.9864,3.0477,3.0685,3.1231,3.2093,3.247,3.2804,3.311,3.4344,3.4951,3.4963,3.6459,3.6862,3.6314,3.7056,3.7058,3.6399,3.5075,3.4505,3.4382,3.298,3.2398,3.2398,3.2398,3.2398,3.2398,3.2398,3.2398,3.2398,3.2398,3.2398,3.2398,3.2398,3.2398,3.2398,3.2398,3.318,3.3935,3.3506,3.329,3.3044,3.2521,3.2398,3.2398,3.2398,3.2398,3.2398,3.2398,3.2398,3.2398,3.2398,3.2398,3.229,3.1982,0.0,0.0,0.0,3.1336,3.1459,3.2982,3.366,3.4351,3.5198,3.5722,3.6091,3.6258,3.6414,3.6414,3.6211,3.6352,3.6414,3.6414,3.6492,3.6492,3.6492,3.6492,3.6492,3.6492,3.646,3.632,3.6148,3.599,3.5921,3.5924,3.6978,3.7494,3.7719,3.8931,3.9388,3.9388,3.9388,3.9388,3.9388,3.9388,3.9388,3.9388,3.9232,3.9265,3.9299,3.9299,3.9299,3.9299,3.9299,3.8709,3.8282,3.8241,3.7547,3.683,3.6248,3.4465,3.3288,3.3288,3.1533,3.0432,3.0432,2.9909,2.9864,3.0477,3.1277,3.2422,3.396,3.3096,3.3446,3.5169,3.536,3.5822,3.6556,3.756,3.7685,3.7109,3.7319,3.7058,3.6399,3.5075,3.4505,3.4382,3.298,3.2398,3.2398,3.2398,3.2398,3.2398,3.2398,3.2398,3.2398,3.2398,3.2398,3.2398,3.2398,3.2398,3.2398,3.2398,3.2459,3.2675,3.3244,3.2952,3.2459,3.2398,3.2398,3.2398,3.2398,3.2398,3.2398,3.2398,3.2398,3.2398,3.2398,3.2398,3.1997,3.074,0.0,0.0,3.0709,3.1536,3.2305,3.2459,3.2505,3.3103,3.4443,3.4628,3.5153,3.6399,3.6492,3.6414,3.6211,3.6211,3.6211,3.6211,3.6383,3.6492,3.6492,3.6492,3.6492,3.6492,3.6305,3.6148,3.6005,3.5831,3.5984,3.648,3.712,3.7749,3.8377,3.911,3.9388,3.9388,3.9388,3.9388,3.9388,3.9388,3.9388,3.9388,3.9299,3.9299,3.9299,3.9299,3.9299,3.9299,3.9299,3.9067,3.8602,3.7847,3.7826,3.738,3.5999,3.5526,3.5125,3.4718,3.3565,3.2645,3.2199,3.1145,3.0284,2.9783,3.1311,3.2187,3.22,3.1984,3.2571,3.4037,3.3738,3.4136,3.5218,3.6128,3.6282,3.5814,3.6825,3.6977,3.6368,3.4568,3.406,3.4351,3.2518,3.2013,3.2398,3.2398,3.2398,3.2398,3.2398,3.2398,3.2398,3.2398,3.2398,3.2398,3.2398,3.2398,3.2398,3.2398,3.2398,3.2444,3.2705,3.2582,3.2398,3.2398,3.2398,3.2398,3.2398,3.2398,3.2398,3.2398,3.2398,3.2398,3.2398,3.2398,3.2228,3.172,0.0,3.2213,3.1705,3.2074,3.2398,3.2398,3.3152,3.3919,3.4459,3.526,3.5938,3.6445,3.6492,3.646,3.6383,3.6383,3.6383,3.6383,3.646,3.6445,3.6305,3.6305,3.6289,3.6195,3.61,3.6068,3.6005,3.5799,3.5806,3.6057,3.6974,3.7554,3.7868,3.896,3.9388,3.9388,3.9388,3.9388,3.9388,3.9388,3.9388,3.9388,3.9299,3.9299,3.9299,3.9299,3.9299,3.9299,3.9299,3.8923,3.8417,3.7777,3.7674,3.7351,3.6461,3.6401,3.6203,3.5707,3.4605,3.373,3.3214,3.2067,3.0926,2.985,3.1264,3.1903,3.1598,3.1614,3.2158,3.3195,3.2815,3.3084,3.4021,3.4673,3.4797,3.4533,3.5476,3.5716,3.5329,3.3517,3.3044,3.3411,3.1979,3.1686,3.2105,3.2321,3.2398,3.2398,3.2398,3.2398,3.2398,3.2398,3.2398,3.2398,3.2398,3.2398,3.2398,3.2398,3.2398,3.2398,3.2398,3.2398,3.2398,3.2398,3.2398,3.2398,3.2398,3.2398,3.2398,3.2398,3.2398,3.2398,3.2398,3.2398,3.2398,3.2398,3.2398,3.2398,3.2398,3.2398,3.2398,3.2398,3.3429,3.4258,3.4474,3.5537,3.6261,3.6476,3.6492,3.646,3.6414,3.6367,3.6336,3.6336,3.6336,3.6258,3.6038,3.6133,3.6148,3.6005,3.5941,3.5894,3.591,3.5929,3.5954,3.6029,3.7218,3.7719,3.7808,3.8945,3.9388,3.9388,3.9388,3.9388,3.9388,3.9388,3.9388,3.9388,3.9299,3.9299,3.9299,3.9299,3.9299,3.9299,3.9299,3.8101,3.7446,3.8197,3.7116,3.6813,3.8113,3.7157,3.6354,3.6206,3.4377,3.3224,3.3193,3.2483,3.1729,3.0943,3.1158,3.1805,3.2846,3.2364,3.2461,3.3198,3.3108,3.3189,3.3385,3.3528,3.3584,3.3571,3.3243,3.3108,3.3024,3.1874,3.1409,3.1409,3.1382,3.1409,3.1459,3.2136,3.2398,3.2398,3.2398,3.2398,3.2398,3.2398,3.2398,3.2398,3.2398,3.2398,3.2398,3.2398,3.2398,3.2398,3.2398,3.2398,3.2398,3.2398,3.2398,3.2398,3.2398,3.2398,3.2398,3.2398,3.2398,3.2398,3.2398,3.2398,3.2398,3.2398,3.2398,3.2398,3.2398,3.2398,3.2398,3.2398,3.2998,3.369,3.4443,3.5121,3.5768,3.6445,3.6492,3.6414,3.6211,3.6053,3.6005,3.6005,3.6005,3.5894,3.5688,3.6038,3.6116,3.6005,3.5799,3.5688,3.5718,3.6262,3.6492,3.6567,3.7823,3.8392,3.8437,3.9125,3.9388,3.9388,3.9388,3.9388,3.9388,3.9388,3.9388,3.9388,3.9299,3.9299,3.9148,3.8689,3.859,3.8451,3.801,3.7604,3.725,3.701,3.7048,3.6882,3.6384,3.6809,3.6872,3.6317,3.53,3.399,3.2384,3.1945,3.1651,3.1402,3.1164,3.1079,3.121,3.1236,3.1612,3.2374,3.1875,3.1978,3.2628,3.2685,3.2547,3.2366,3.2756,3.2833,3.2524,3.1235,3.0966,3.1378,3.0889,3.0982,3.1459,3.2136,3.2398,3.2398,3.2398,3.2398,3.2398,3.2398,3.2398,3.2398,3.2398,3.2398,3.2398,3.2398,3.2398,3.2398,3.2398,3.2398,3.2398,3.2398,3.2398,3.2398,3.2398,3.2398,3.2398,3.2398,3.2398,3.2398,3.2398,3.2398,3.2398,3.2398,3.2398,3.2398,3.2398,3.2398,3.2567,3.3044,3.375,3.4459,3.5136,3.5799,3.6276,3.6476,3.6492,3.6414,3.6211,3.6148,3.6085,3.6005,3.6005,3.5894,3.5688,3.5816,3.5767,3.5651,3.5587,3.5827,3.6262,3.5941,3.6282,3.715,3.7539,3.7958,3.8437,3.9125,3.9388,3.9388,3.9388,3.9388,3.9388,3.9388,3.9388,3.9388,3.9299,3.9299,3.9175,3.8772,3.8463,3.8165,3.7793,3.734,3.6875,3.6461,3.6554,3.643,3.591,3.6554,3.6725,3.5953,3.524,3.413,3.245,3.242,3.2481,3.2481,3.1704,3.1177,3.1016,3.0842,3.1007,3.1562,3.117,3.1251,3.179,3.185,3.1763,3.1577,3.1625,3.1566,3.1287,3.0103,2.9843,3.0212,3.034,3.0632,3.1105,3.2044,3.2398,3.2398,3.2398,3.2398,3.2398,3.2398,3.2398,3.2398,3.2398,3.2398,3.2398,3.2398,3.2398,3.2398,3.2398,3.2398,3.2398,3.2398,3.2398,3.2398,3.2398,3.2398,3.2398,3.2398,3.2398,3.2398,3.2398,3.2398,3.2398,3.2398,3.2398,3.2398,3.2398,3.2398,3.2552,3.2952,3.3904,3.4659,3.5075,3.5938,3.646,3.6383,3.6383,3.632,3.6116,3.6116,3.6053,3.5894,3.5814,3.5733,3.5621,3.5621,3.5572,3.5504,3.5504,3.5714,3.6103,3.6207,3.6686,3.7434,3.7973,3.8437,3.8826,3.9245,3.9388,3.9388,3.9388,3.9388,3.9418,3.9709,3.9813,3.9813,3.9299,3.9299,3.9272,3.9202,3.8662,3.8193,3.8137,3.7131,3.6337,3.6305,3.591,3.5829,3.6337,3.6399,3.6104,3.5422,3.4635,3.381,3.2959,3.3395,3.3657,3.3607,3.2353,3.172,3.1807,3.0991,3.0671,3.0912,3.0932,3.0972,3.1015,3.1151,3.1171,3.1112,3.0225,2.9815,2.9683,2.8818,2.8444,2.8519,2.9848,3.0402,3.054,3.189,3.2398,3.2398,3.2398,3.2398,3.2398,3.2398,3.2398,3.2398,3.2398,3.2398,3.2398,3.2398,3.2398,3.2398,3.2398,3.2398,3.2398,3.2398,3.2398,3.2398,3.2398,3.2398,3.2398,3.2398,3.2398,3.2398,3.2398,3.2398,3.2398,3.2398,3.2398,3.2398,3.2398,3.2398,3.2444,3.2567,3.3735,3.4551,3.4674,3.5768,3.6414,3.6242,3.6242,3.6179,3.6037,3.6005,3.5894,3.572,3.5572,3.5504,3.5504,3.5504,3.5504,3.5504,3.5504,3.5564,3.5714,3.6821,3.7419,3.7659,3.8826,3.9328,3.9388,3.9388,3.9388,3.9388,3.9388,3.9388,3.9499,4.0157,4.0367,4.0307,3.9299,3.9299,3.9121,3.8618,3.801,3.7429,3.689,3.6259,3.5816,3.5701,3.6116,3.6445,3.6399,3.6399,3.6284,3.5963,3.5174,3.3988,3.2255,3.2639,3.268,3.2095,3.1239,3.1103,3.1791,3.1199,3.0915,3.0975,3.1092,3.1151,3.1151,3.119,3.1015,3.0638,3.0435,2.993,2.9234,2.9044,2.8748,2.8519,2.9848,3.0402,3.054,3.189,3.2398,3.2398,3.2398,3.2398,3.2398,3.2398,3.2398,3.2398,3.2398,3.2398,3.2398,3.2398,3.2398,3.2398,3.2398,3.2398,3.2398,3.2398,3.2398,3.2398,3.2398,3.2398,3.2398,3.2398,3.2398,3.2398,3.2398,3.2398,3.2398,3.2398,3.2398,3.2398,3.2398,3.2398,3.2798,3.3919,3.432,3.4921,3.5953,3.6322,3.6492,3.6445,3.6414,3.6352,3.6179,3.6068,3.5894,3.572,3.5572,3.5504,3.5504,3.5504,3.5504,3.5504,3.5504,3.6028,3.6985,3.6776,3.7524,3.894,3.8721,3.8916,3.9388,3.9388,3.9388,3.9388,3.9388,3.9388,3.9499,4.0157,4.0068,3.9634,3.8799,3.8606,3.8367,3.8322,3.7793,3.728,3.692,3.6677,3.623,3.5502,3.6353,3.6871,3.6393,3.6332,3.6066,3.5358,3.4861,3.4136,3.3152,3.3294,3.3234,3.2868,3.1829,3.1491,3.1918,3.1399,3.1052,3.0952,3.1032,3.1072,3.1112,3.1171,3.1055,3.0821,3.0601,3.023,2.9755,2.9528,2.951,2.9674,3.0709,3.1165,3.1374,3.2387,3.2614,3.2398,3.2398,3.2398,3.2398,3.2398,3.2398,3.2437,3.2695,3.2761,3.2761,3.2761,3.2761,3.2722,3.2465,3.2398,3.2398,3.2398,3.2398,3.2398,3.2398,3.2398,3.2398,3.2398,3.2398,3.2398,3.2398,3.2398,3.2398,3.2398,3.2398,3.2398,3.2398,3.2398,3.2659,3.3426,3.4104,3.5044,3.6368,3.6414,3.6352,3.6352,3.6352,3.6274,3.6116,3.6037,3.5894,3.572,3.5572,3.5504,3.5504,3.5818,3.6118,3.6402,3.6103,3.6327,3.6985,3.727,3.7958,3.8931,3.8901,3.9095,3.9388,3.9388,3.9388,3.9388,3.9388,3.9388,3.9499,4.0157,4.0187,3.9888,3.8165,3.7735,3.7576,3.8051,3.7648,3.728,3.7399,3.72,3.6742,3.5781,3.6566,3.7023,3.6521,3.6336,3.5788,3.4622,3.4415,3.4333,3.434,3.4137,3.3946,3.3829,3.2576,3.1967,3.2085,3.1479,3.1092,3.0952,3.0952,3.0992,3.1052,3.1151,3.119,3.119,3.0781,3.058,3.0477,3.0097,3.0222,3.0778,3.1582,3.1991,3.2235,3.2934,3.2906,3.252,3.2437,3.2398,3.241,3.252,3.2547,3.2614,3.3172,3.3355,3.3355,3.3355,3.3355,3.3251,3.2803,3.2668,3.2668,3.2668,3.2668,3.2668,3.2668,3.252,3.2398,3.2398,3.2398,3.2398,3.2398,3.2398,3.2398,3.2398,3.2398,3.2398,3.2398,3.2398,3.249,3.2721,3.3996,3.529,3.6384,3.6352,3.6242,3.6242,3.6211,3.6194,3.6189,3.6034,3.5908,3.5853,3.5752,3.5669,3.5669,3.6312,3.6896,3.7404,3.7,3.6866,3.7015,3.7958,3.8452,3.8601,3.917,3.9388,3.9388,3.9388,3.9388,3.9388,3.9388,3.9388,3.9484,4.0023,4.0307,4.0397,3.7618,3.7458,3.7429,3.7517,3.6981,3.6723,3.731,3.6496,3.616,3.7016,3.6778,3.6664,3.7028,3.6463,3.5774,3.5146,3.5037,3.4712,3.4087,3.3562,3.2964,3.2328,3.1495,3.1388,3.2092,3.1342,3.1012,3.1151,3.1151,3.1151,3.1171,3.119,3.119,3.119,3.1114,3.0878,3.0497,3.0435,3.0231,3.0053,3.1364,3.1923,3.2031,3.2873,3.3145,3.3039,3.2574,3.2398,3.2465,3.2949,3.3093,3.3198,3.3716,3.3894,3.3894,3.3894,3.3894,3.3885,3.3793,3.3767,3.3767,3.3767,3.3767,3.3767,3.3767,3.3055,3.2398,3.2398,3.2398,3.2398,3.2398,3.2398,3.2398,3.2398,3.2398,3.2398,3.2398,3.2398,3.2844,3.4073,3.5429,3.6292,3.6476,3.6492,3.646,3.646,3.6305,3.6455,3.7019,3.623,3.5991,3.6562,3.6442,3.6357,3.6357,3.6971,3.733,3.7419,3.7898,3.8452,3.9005,3.8586,3.8721,3.929,3.9379,3.9388,3.9388,3.9388,3.9388,3.9388,3.9388,3.9388,3.9388,3.9514,3.9903,4.0397,3.6327,3.6307,3.643,3.6784,3.6275,3.606,3.6752,3.6379,3.6079,3.6169,3.6594,3.6823,3.6554,3.6224,3.5778,3.521,3.52,3.5111,3.4845,3.3849,3.3308,3.3397,3.1898,3.1631,3.2799,3.1682,3.1314,3.1819,3.1739,3.1739,3.1819,3.1819,3.1819,3.1802,3.1376,3.1075,3.0898,3.0898,3.1245,3.1876,3.2486,3.3036,3.3547,3.3602,3.3459,3.3119,3.2586,3.2586,3.2895,3.3119,3.3407,3.3742,3.4268,3.4456,3.4456,3.4456,3.4456,3.4382,3.4086,3.4011,3.4011,3.4011,3.4011,3.4011,3.4011,3.3614,3.3293,3.3293,3.3293,3.3293,3.3293,3.3055,3.2841,3.2841,3.2602,3.2521,3.2906,3.2952,3.3475,3.4905,3.5598,3.6076,3.6445,3.6492,3.6492,3.6492,3.6305,3.6486,3.7159,3.6243,3.617,3.724,3.6772,3.6836,3.7539,3.7823,3.8332,3.908,3.9379,3.9275,3.8841,3.8931,3.9334,3.9948,3.9574,3.9634,3.9933,3.9574,3.9388,3.9388,3.9388,3.9388,3.9388,3.9388,3.9604,3.9843]}]]